Wetterdaten: Mittwoch, 19.09.2018
Datum Zeit Temp. A. Pool Temp. Temp. 5cm Feuchte A. Luftdruck Regen Wind Richtung Richtung Sonnenschein ET UV Solar Taupunkt Windchill Windben Empfang
19.09.2018 00:00 18,3 C 22,8 C 17,8 C 78 % 1018,2 hPa 0,0 l/m 31,6 km/h (5 Bft) W-SW 245 0 min 0,000 mm 0,0 UV-I 0 W/m 14,4 C 12,1 C 38,6 km/h (5 Bft) 97,58 %
19.09.2018 00:02 18,3 C 22,8 C 17,8 C 79 % 1018,3 hPa 0,0 l/m 27,3 km/h (4 Bft) SW 235 0 min 0,000 mm 0,0 UV-I 0 W/m 14,6 C 12,7 C 40,2 km/h (6 Bft) 13,33 %
19.09.2018 00:04 18,2 C 22,8 C 17,8 C 79 % 1018,3 hPa 0,0 l/m 25,3 km/h (4 Bft) W 259 0 min 0,000 mm 0,0 UV-I 0 W/m 14,5 C 12,9 C 38,6 km/h (5 Bft) 79,49 %
19.09.2018 00:06 18,2 C 22,8 C 17,8 C 80 % 1018,3 hPa 0,0 l/m 23,7 km/h (4 Bft) W-SW 254 0 min 0,000 mm 0,0 UV-I 0 W/m 14,7 C 13,2 C 33,8 km/h (5 Bft) 98,00 %
19.09.2018 00:08 18,1 C 22,8 C 17,8 C 80 % 1018,2 hPa 0,0 l/m 25,8 km/h (4 Bft) W-SW 254 0 min 0,000 mm 0,0 UV-I 0 W/m 14,6 C 12,7 C 38,6 km/h (5 Bft) 93,62 %
19.09.2018 00:10 18,1 C 22,8 C 17,8 C 80 % 1018,2 hPa 0,0 l/m 23,2 km/h (4 Bft) W 277 0 min 0,000 mm 0,0 UV-I 0 W/m 14,6 C 13,1 C 32,2 km/h (5 Bft) 96,00 %
19.09.2018 00:12 18,0 C 22,8 C 17,8 C 80 % 1018,3 hPa 0,0 l/m 22,7 km/h (4 Bft) W-SW 244 0 min 0,000 mm 0,0 UV-I 0 W/m 14,5 C 13,1 C 32,2 km/h (5 Bft) 98,00 %
19.09.2018 00:14 17,9 C 22,8 C 17,2 C 81 % 1018,4 hPa 0,0 l/m 20,9 km/h (4 Bft) W-SW 254 0 min 0,000 mm 0,0 UV-I 0 W/m 14,6 C 13,3 C 32,2 km/h (5 Bft) 95,24 %
19.09.2018 00:16 17,9 C 22,8 C 17,2 C 81 % 1018,3 hPa 0,0 l/m 17,0 km/h (3 Bft) W 273 0 min 0,000 mm 0,0 UV-I 0 W/m 14,6 C 14,2 C 33,8 km/h (5 Bft) 98,11 %
19.09.2018 00:18 17,9 C 22,8 C 17,2 C 81 % 1018,3 hPa 0,0 l/m 21,6 km/h (4 Bft) W-SW 244 0 min 0,000 mm 0,0 UV-I 0 W/m 14,6 C 13,2 C 38,6 km/h (5 Bft) 97,87 %
19.09.2018 00:20 17,8 C 22,2 C 17,2 C 81 % 1018,2 hPa 0,0 l/m 23,1 km/h (4 Bft) W-SW 257 0 min 0,000 mm 0,0 UV-I 0 W/m 14,5 C 12,7 C 35,4 km/h (5 Bft) 97,56 %
19.09.2018 00:22 17,8 C 22,2 C 17,2 C 81 % 1018,2 hPa 0,0 l/m 28,6 km/h (4 Bft) W 273 0 min 0,000 mm 0,0 UV-I 0 W/m 14,5 C 11,8 C 41,8 km/h (6 Bft) 98,00 %
19.09.2018 00:24 17,7 C 22,8 C 17,2 C 82 % 1018,2 hPa 0,0 l/m 23,4 km/h (4 Bft) W-SW 244 0 min 0,000 mm 0,0 UV-I 0 W/m 14,6 C 12,6 C 33,8 km/h (5 Bft) 96,00 %
19.09.2018 00:26 17,7 C 22,8 C 17,2 C 82 % 1018,2 hPa 0,0 l/m 22,7 km/h (4 Bft) W 271 0 min 0,000 mm 0,0 UV-I 0 W/m 14,6 C 12,7 C 30,6 km/h (5 Bft) 97,87 %
19.09.2018 00:28 17,7 C 22,2 C 17,2 C 82 % 1018,3 hPa 0,0 l/m 21,2 km/h (4 Bft) W 263 0 min 0,000 mm 0,0 UV-I 0 W/m 14,6 C 13,0 C 30,6 km/h (5 Bft) 97,73 %
19.09.2018 00:30 17,6 C 22,2 C 17,2 C 82 % 1018,3 hPa 0,0 l/m 19,8 km/h (3 Bft) SW 227 0 min 0,000 mm 0,0 UV-I 0 W/m 14,5 C 13,1 C 33,8 km/h (5 Bft) 97,56 %
19.09.2018 00:32 17,6 C 22,2 C 17,2 C 83 % 1018,3 hPa 0,0 l/m 20,0 km/h (4 Bft) SW 216 0 min 0,000 mm 0,0 UV-I 0 W/m 14,7 C 13,1 C 30,6 km/h (5 Bft) 98,11 %
19.09.2018 00:34 17,5 C 22,2 C 17,2 C 83 % 1018,3 hPa 0,0 l/m 23,2 km/h (4 Bft) W-NW 301 0 min 0,000 mm 0,0 UV-I 0 W/m 14,6 C 12,3 C 30,6 km/h (5 Bft) 97,14 %
19.09.2018 00:36 17,5 C 22,2 C 17,2 C 83 % 1018,3 hPa 0,0 l/m 15,6 km/h (3 Bft) SW 219 0 min 0,000 mm 0,0 UV-I 0 W/m 14,6 C 14,1 C 22,5 km/h (4 Bft) 98,21 %
19.09.2018 00:38 17,4 C 22,2 C 17,2 C 83 % 1018,3 hPa 0,0 l/m 17,3 km/h (3 Bft) W-SW 242 0 min 0,000 mm 0,0 UV-I 0 W/m 14,5 C 13,5 C 25,7 km/h (4 Bft) 98,11 %
19.09.2018 00:40 17,4 C 22,2 C 16,7 C 84 % 1018,3 hPa 0,0 l/m 20,3 km/h (4 Bft) W-SW 237 0 min 0,000 mm 0,0 UV-I 0 W/m 14,7 C 12,8 C 27,4 km/h (4 Bft) 97,73 %
19.09.2018 00:42 17,3 C 22,2 C 16,7 C 84 % 1018,2 hPa 0,0 l/m 23,4 km/h (4 Bft) SW 232 0 min 0,000 mm 0,0 UV-I 0 W/m 14,6 C 12,0 C 32,2 km/h (5 Bft) 96,30 %
19.09.2018 00:44 17,3 C 22,2 C 16,7 C 85 % 1018,3 hPa 0,0 l/m 20,1 km/h (4 Bft) W-SW 244 0 min 0,000 mm 0,0 UV-I 0 W/m 14,8 C 12,7 C 30,6 km/h (5 Bft) 98,57 %
19.09.2018 00:46 17,2 C 22,2 C 16,7 C 85 % 1018,3 hPa 0,0 l/m 21,2 km/h (4 Bft) SW 227 0 min 0,000 mm 0,0 UV-I 0 W/m 14,7 C 12,3 C 38,6 km/h (5 Bft) 97,56 %
19.09.2018 00:48 17,2 C 22,2 C 16,7 C 85 % 1018,3 hPa 0,0 l/m 23,2 km/h (4 Bft) W-SW 250 0 min 0,000 mm 0,0 UV-I 0 W/m 14,7 C 11,9 C 38,6 km/h (5 Bft) 96,30 %
19.09.2018 00:50 17,2 C 22,2 C 16,7 C 85 % 1018,3 hPa 0,0 l/m 17,2 km/h (3 Bft) S-SW 212 0 min 0,000 mm 0,0 UV-I 0 W/m 14,7 C 13,3 C 25,7 km/h (4 Bft) 98,46 %
19.09.2018 00:52 17,2 C 22,2 C 16,7 C 85 % 1018,3 hPa 0,0 l/m 18,9 km/h (3 Bft) S-SW 210 0 min 0,000 mm 0,0 UV-I 0 W/m 14,7 C 12,8 C 35,4 km/h (5 Bft) 97,87 %
19.09.2018 00:54 17,1 C 22,2 C 16,7 C 86 % 1018,3 hPa 0,0 l/m 24,0 km/h (4 Bft) SW 227 0 min 0,000 mm 0,0 UV-I 0 W/m 14,7 C 11,6 C 35,4 km/h (5 Bft) 97,87 %
19.09.2018 00:56 17,1 C 22,2 C 16,7 C 86 % 1018,3 hPa 0,0 l/m 16,7 km/h (3 Bft) W-SW 244 0 min 0,000 mm 0,0 UV-I 0 W/m 14,7 C 13,3 C 27,4 km/h (4 Bft) 98,11 %
19.09.2018 00:58 17,1 C 22,2 C 16,7 C 86 % 1018,3 hPa 0,0 l/m 23,9 km/h (4 Bft) W-SW 240 0 min 0,000 mm 0,0 UV-I 0 W/m 14,7 C 11,7 C 37,0 km/h (5 Bft) 97,87 %
19.09.2018 01:00 17,1 C 22,2 C 16,7 C 86 % 1018,1 hPa 0,0 l/m 22,0 km/h (4 Bft) S-SW 207 0 min 0,051 mm 0,0 UV-I 0 W/m 14,7 C 12,0 C 32,2 km/h (5 Bft) 100,00 %
19.09.2018 01:02 17,1 C 22,2 C 16,7 C 86 % 1018,2 hPa 0,0 l/m 20,9 km/h (4 Bft) S 171 0 min 0,000 mm 0,0 UV-I 0 W/m 14,7 C 12,3 C 30,6 km/h (5 Bft) 100,00 %
19.09.2018 01:04 17,1 C 22,2 C 16,7 C 87 % 1018,1 hPa 0,0 l/m 21,9 km/h (4 Bft) S-SW 203 0 min 0,000 mm 0,0 UV-I 0 W/m 14,9 C 12,1 C 35,4 km/h (5 Bft) 100,00 %
19.09.2018 01:06 17,1 C 22,2 C 16,7 C 87 % 1018,1 hPa 0,0 l/m 23,9 km/h (4 Bft) W-SW 246 0 min 0,000 mm 0,0 UV-I 0 W/m 14,9 C 11,7 C 38,6 km/h (5 Bft) 98,21 %
19.09.2018 01:08 17,1 C 22,2 C 16,7 C 87 % 1018,1 hPa 0,0 l/m 23,6 km/h (4 Bft) SW 227 0 min 0,000 mm 0,0 UV-I 0 W/m 14,9 C 11,7 C 41,8 km/h (6 Bft) 100,00 %
19.09.2018 01:10 17,2 C 22,2 C 16,7 C 86 % 1018,0 hPa 0,0 l/m 24,0 km/h (4 Bft) W-SW 242 0 min 0,000 mm 0,0 UV-I 0 W/m 14,8 C 11,8 C 40,2 km/h (6 Bft) 100,00 %
19.09.2018 01:12 17,2 C 22,2 C 17,2 C 86 % 1018,0 hPa 0,0 l/m 23,6 km/h (4 Bft) W-SW 254 0 min 0,000 mm 0,0 UV-I 0 W/m 14,8 C 11,8 C 35,4 km/h (5 Bft) 94,74 %
19.09.2018 01:14 17,2 C 22,2 C 16,7 C 86 % 1018,0 hPa 0,0 l/m 21,4 km/h (4 Bft) W-SW 249 0 min 0,000 mm 0,0 UV-I 0 W/m 14,8 C 12,3 C 35,4 km/h (5 Bft) 100,00 %
19.09.2018 01:16 17,3 C 22,2 C 16,7 C 85 % 1018,1 hPa 0,0 l/m 24,1 km/h (4 Bft) S-SW 213 0 min 0,000 mm 0,0 UV-I 0 W/m 14,8 C 11,9 C 32,2 km/h (5 Bft) 96,30 %
19.09.2018 01:18 17,3 C 22,2 C 16,7 C 85 % 1018,0 hPa 0,0 l/m 17,4 km/h (3 Bft) SW 221 0 min 0,000 mm 0,0 UV-I 0 W/m 14,8 C 13,3 C 25,7 km/h (4 Bft) 100,00 %
19.09.2018 01:20 17,3 C 22,2 C 16,7 C 86 % 1018,1 hPa 0,0 l/m 16,1 km/h (3 Bft) W-SW 250 0 min 0,000 mm 0,0 UV-I 0 W/m 14,9 C 13,7 C 30,6 km/h (5 Bft) 94,74 %
19.09.2018 01:22 17,2 C 22,2 C 16,7 C 86 % 1018,0 hPa 0,0 l/m 17,5 km/h (3 Bft) W 270 0 min 0,000 mm 0,0 UV-I 0 W/m 14,8 C 13,2 C 22,5 km/h (4 Bft) 100,00 %
19.09.2018 01:24 17,2 C 22,2 C 16,7 C 86 % 1017,8 hPa 0,0 l/m 21,7 km/h (4 Bft) W 265 0 min 0,000 mm 0,0 UV-I 0 W/m 14,8 C 12,2 C 27,4 km/h (4 Bft) 97,87 %
19.09.2018 01:26 17,2 C 22,2 C 16,1 C 86 % 1017,6 hPa 0,0 l/m 20,5 km/h (4 Bft) W-SW 248 0 min 0,000 mm 0,0 UV-I 0 W/m 14,8 C 12,5 C 29,0 km/h (5 Bft) 100,00 %
19.09.2018 01:28 17,1 C 22,2 C 16,1 C 87 % 1017,6 hPa 0,0 l/m 15,8 km/h (3 Bft) W 277 0 min 0,000 mm 0,0 UV-I 0 W/m 14,9 C 13,5 C 25,7 km/h (4 Bft) 98,00 %
19.09.2018 01:30 17,0 C 22,2 C 16,1 C 87 % 1017,4 hPa 0,0 l/m 18,7 km/h (3 Bft) W-NW 284 0 min 0,000 mm 0,0 UV-I 0 W/m 14,8 C 12,6 C 29,0 km/h (5 Bft) 100,00 %
19.09.2018 01:32 17,0 C 22,2 C 16,1 C 87 % 1017,4 hPa 0,0 l/m 14,2 km/h (3 Bft) W 260 0 min 0,000 mm 0,0 UV-I 0 W/m 14,8 C 13,9 C 24,1 km/h (4 Bft) 100,00 %
19.09.2018 01:34 16,9 C 22,2 C 16,1 C 87 % 1017,4 hPa 0,0 l/m 14,7 km/h (3 Bft) W 265 0 min 0,000 mm 0,0 UV-I 0 W/m 14,7 C 13,6 C 19,3 km/h (3 Bft) 100,00 %
19.09.2018 01:36 16,9 C 22,2 C 15,6 C 88 % 1017,7 hPa 0,0 l/m 7,8 km/h (2 Bft) NW 304 0 min 0,000 mm 0,0 UV-I 0 W/m 14,9 C 16,2 C 14,5 km/h (3 Bft) 100,00 %
19.09.2018 01:38 16,8 C 22,2 C 16,1 C 88 % 1017,8 hPa 0,2 l/m 7,5 km/h (2 Bft) S 173 0 min 0,000 mm 0,0 UV-I 0 W/m 14,8 C 16,2 C 16,1 km/h (3 Bft) 98,00 %
19.09.2018 01:40 16,8 C 22,2 C 16,1 C 88 % 1018,0 hPa 0,0 l/m 13,2 km/h (3 Bft) S 181 0 min 0,000 mm 0,0 UV-I 0 W/m 14,8 C 13,9 C 17,7 km/h (3 Bft) 100,00 %
19.09.2018 01:42 16,8 C 22,2 C 16,1 C 89 % 1018,2 hPa 0,0 l/m 13,2 km/h (3 Bft) S 173 0 min 0,000 mm 0,0 UV-I 0 W/m 15,0 C 13,9 C 17,7 km/h (3 Bft) 100,00 %
19.09.2018 01:44 16,7 C 22,2 C 16,1 C 89 % 1018,2 hPa 0,0 l/m 9,9 km/h (2 Bft) S-SO 157 0 min 0,000 mm 0,0 UV-I 0 W/m 14,9 C 15,0 C 16,1 km/h (3 Bft) 100,00 %
19.09.2018 01:46 16,7 C 22,2 C 16,1 C 89 % 1018,2 hPa 0,0 l/m 7,5 km/h (2 Bft) S 171 0 min 0,000 mm 0,0 UV-I 0 W/m 14,9 C 16,1 C 11,3 km/h (2 Bft) 100,00 %
19.09.2018 01:48 16,7 C 22,2 C 16,1 C 90 % 1018,0 hPa 0,0 l/m 6,4 km/h (2 Bft) S-SW 211 0 min 0,000 mm 0,0 UV-I 0 W/m 15,0 C 16,7 C 12,9 km/h (3 Bft) 100,00 %
19.09.2018 01:50 16,7 C 22,2 C 16,1 C 90 % 1018,1 hPa 0,0 l/m 7,6 km/h (2 Bft) SW 236 0 min 0,000 mm 0,0 UV-I 0 W/m 15,0 C 16,1 C 12,9 km/h (3 Bft) 100,00 %
19.09.2018 01:52 16,7 C 22,2 C 16,1 C 90 % 1018,2 hPa 0,0 l/m 6,9 km/h (2 Bft) SW 223 0 min 0,000 mm 0,0 UV-I 0 W/m 15,0 C 16,4 C 17,7 km/h (3 Bft) 97,37 %
19.09.2018 01:54 16,7 C 22,2 C 16,1 C 90 % 1018,2 hPa 0,0 l/m 7,7 km/h (2 Bft) SW 232 0 min 0,000 mm 0,0 UV-I 0 W/m 15,0 C 16,0 C 11,3 km/h (2 Bft) 100,00 %
19.09.2018 01:56 16,7 C 22,2 C 15,6 C 90 % 1018,2 hPa 0,0 l/m 7,8 km/h (2 Bft) SW 236 0 min 0,000 mm 0,0 UV-I 0 W/m 15,0 C 16,0 C 12,9 km/h (3 Bft) 100,00 %
19.09.2018 01:58 16,6 C 22,2 C 15,6 C 90 % 1018,2 hPa 0,0 l/m 6,7 km/h (2 Bft) W-SW 248 0 min 0,000 mm 0,0 UV-I 0 W/m 15,0 C 16,5 C 12,9 km/h (3 Bft) 100,00 %
19.09.2018 02:00 16,6 C 22,2 C 15,6 C 90 % 1018,2 hPa 0,0 l/m 5,6 km/h (1 Bft) SW 230 0 min 0,025 mm 0,0 UV-I 0 W/m 15,0 C 16,6 C 9,7 km/h (2 Bft) 98,11 %
19.09.2018 02:02 16,6 C 22,2 C 15,6 C 90 % 1018,2 hPa 0,0 l/m 7,2 km/h (2 Bft) SW 229 0 min 0,000 mm 0,0 UV-I 0 W/m 15,0 C 16,2 C 11,3 km/h (2 Bft) 97,56 %
19.09.2018 02:04 16,6 C 22,2 C 15,6 C 91 % 1018,3 hPa 0,0 l/m 4,4 km/h (1 Bft) W-SW 250 0 min 0,000 mm 0,0 UV-I 0 W/m 15,1 C 16,6 C 6,4 km/h (2 Bft) 100,00 %
19.09.2018 02:06 16,6 C 22,2 C 15,6 C 91 % 1018,2 hPa 0,0 l/m 4,0 km/h (1 Bft) SW 236 0 min 0,000 mm 0,0 UV-I 0 W/m 15,1 C 16,6 C 8,0 km/h (2 Bft) 94,87 %
19.09.2018 02:08 16,6 C 22,2 C 15,6 C 91 % 1018,3 hPa 0,0 l/m 2,8 km/h (1 Bft) W-SW 247 0 min 0,000 mm 0,0 UV-I 0 W/m 15,1 C 16,6 C 4,8 km/h (1 Bft) 94,64 %
19.09.2018 02:10 16,6 C 22,2 C 15,6 C 91 % 1018,3 hPa 0,0 l/m 3,6 km/h (1 Bft) W 259 0 min 0,000 mm 0,0 UV-I 0 W/m 15,1 C 16,6 C 4,8 km/h (1 Bft) 95,74 %
19.09.2018 02:12 16,6 C 22,2 C 15,6 C 91 % 1018,3 hPa 0,0 l/m 3,0 km/h (1 Bft) W-SW 256 0 min 0,000 mm 0,0 UV-I 0 W/m 15,1 C 16,6 C 4,8 km/h (1 Bft) 93,62 %
19.09.2018 02:14 16,5 C 22,2 C 15,6 C 91 % 1018,3 hPa 0,0 l/m 4,1 km/h (1 Bft) W-NW 283 0 min 0,000 mm 0,0 UV-I 0 W/m 15,0 C 16,5 C 6,4 km/h (2 Bft) 96,00 %
19.09.2018 02:16 16,4 C 22,2 C 15,6 C 92 % 1018,4 hPa 0,0 l/m 3,6 km/h (1 Bft) W 281 0 min 0,000 mm 0,0 UV-I 0 W/m 15,1 C 16,4 C 6,4 km/h (2 Bft) 97,14 %
19.09.2018 02:18 16,4 C 22,2 C 15,6 C 92 % 1018,4 hPa 0,0 l/m 3,8 km/h (1 Bft) W 275 0 min 0,000 mm 0,0 UV-I 0 W/m 15,1 C 16,4 C 6,4 km/h (2 Bft) 92,00 %
19.09.2018 02:20 16,4 C 22,2 C 15,6 C 92 % 1018,4 hPa 0,0 l/m 3,2 km/h (1 Bft) W 277 0 min 0,000 mm 0,0 UV-I 0 W/m 15,1 C 16,4 C 4,8 km/h (1 Bft) 94,00 %
19.09.2018 02:22 16,4 C 22,2 C 15,6 C 92 % 1018,5 hPa 0,0 l/m 1,6 km/h (1 Bft) W 277 0 min 0,000 mm 0,0 UV-I 0 W/m 15,1 C 16,4 C 4,8 km/h (1 Bft) 95,12 %
19.09.2018 02:24 16,3 C 22,2 C 15,6 C 92 % 1018,5 hPa 0,0 l/m 3,8 km/h (1 Bft) W 275 0 min 0,000 mm 0,0 UV-I 0 W/m 15,0 C 16,3 C 6,4 km/h (2 Bft) 94,00 %
19.09.2018 02:26 16,3 C 22,2 C 15,6 C 92 % 1018,5 hPa 0,0 l/m 4,1 km/h (1 Bft) W-NW 298 0 min 0,000 mm 0,0 UV-I 0 W/m 15,0 C 16,3 C 6,4 km/h (2 Bft) 95,74 %
19.09.2018 02:28 16,3 C 22,2 C 15,6 C 92 % 1018,5 hPa 0,0 l/m 3,2 km/h (1 Bft) W 266 0 min 0,000 mm 0,0 UV-I 0 W/m 15,0 C 16,3 C 6,4 km/h (2 Bft) 95,74 %
19.09.2018 02:30 16,3 C 22,2 C 15,6 C 92 % 1018,4 hPa 0,0 l/m 5,1 km/h (1 Bft) W 273 0 min 0,000 mm 0,0 UV-I 0 W/m 15,0 C 16,3 C 9,7 km/h (2 Bft) 98,00 %
19.09.2018 02:32 16,3 C 22,2 C 15,6 C 92 % 1018,5 hPa 0,0 l/m 6,7 km/h (2 Bft) W-NW 296 0 min 0,000 mm 0,0 UV-I 0 W/m 15,0 C 16,2 C 12,9 km/h (3 Bft) 98,00 %
19.09.2018 02:34 16,3 C 22,2 C 15,6 C 92 % 1018,5 hPa 0,0 l/m 4,4 km/h (1 Bft) NW 314 0 min 0,000 mm 0,0 UV-I 0 W/m 15,0 C 16,3 C 6,4 km/h (2 Bft) 100,00 %
19.09.2018 02:36 16,3 C 22,2 C 15,6 C 92 % 1018,5 hPa 0,0 l/m 4,1 km/h (1 Bft) W 264 0 min 0,000 mm 0,0 UV-I 0 W/m 15,0 C 16,3 C 6,4 km/h (2 Bft) 100,00 %
19.09.2018 02:38 16,3 C 22,2 C 15,6 C 92 % 1018,5 hPa 0,0 l/m 5,4 km/h (1 Bft) W 267 0 min 0,000 mm 0,0 UV-I 0 W/m 15,0 C 16,3 C 9,7 km/h (2 Bft) 100,00 %
19.09.2018 02:40 16,3 C 22,2 C 15,6 C 92 % 1018,5 hPa 0,0 l/m 5,3 km/h (1 Bft) W-SW 250 0 min 0,000 mm 0,0 UV-I 0 W/m 15,0 C 16,3 C 9,7 km/h (2 Bft) 98,11 %
19.09.2018 02:42 16,3 C 22,2 C 15,6 C 92 % 1018,5 hPa 0,0 l/m 4,9 km/h (1 Bft) W-NW 282 0 min 0,000 mm 0,0 UV-I 0 W/m 15,0 C 16,3 C 8,0 km/h (2 Bft) 100,00 %
19.09.2018 02:44 16,3 C 22,2 C 15,6 C 92 % 1018,6 hPa 0,0 l/m 5,3 km/h (1 Bft) W-SW 254 0 min 0,000 mm 0,0 UV-I 0 W/m 15,0 C 16,3 C 11,3 km/h (2 Bft) 100,00 %
19.09.2018 02:46 16,3 C 22,2 C 15,6 C 92 % 1018,6 hPa 0,0 l/m 5,5 km/h (1 Bft) W 267 0 min 0,000 mm 0,0 UV-I 0 W/m 15,0 C 16,3 C 11,3 km/h (2 Bft) 100,00 %
19.09.2018 02:48 16,3 C 22,2 C 15,6 C 92 % 1018,6 hPa 0,0 l/m 5,9 km/h (2 Bft) W 280 0 min 0,000 mm 0,0 UV-I 0 W/m 15,0 C 16,3 C 11,3 km/h (2 Bft) 96,00 %
19.09.2018 02:50 16,3 C 22,2 C 15,6 C 93 % 1018,6 hPa 0,0 l/m 5,7 km/h (1 Bft) W-SW 250 0 min 0,000 mm 0,0 UV-I 0 W/m 15,2 C 16,3 C 11,3 km/h (2 Bft) 98,11 %
19.09.2018 02:52 16,3 C 22,2 C 15,6 C 93 % 1018,5 hPa 0,0 l/m 8,0 km/h (2 Bft) W 259 0 min 0,000 mm 0,0 UV-I 0 W/m 15,2 C 15,5 C 11,3 km/h (2 Bft) 98,00 %
19.09.2018 02:54 16,2 C 22,2 C 15,6 C 93 % 1018,6 hPa 0,0 l/m 6,7 km/h (2 Bft) W-SW 253 0 min 0,000 mm 0,0 UV-I 0 W/m 15,1 C 16,1 C 11,3 km/h (2 Bft) 97,73 %
19.09.2018 02:56 16,2 C 22,2 C 15,6 C 93 % 1018,6 hPa 0,0 l/m 8,2 km/h (2 Bft) W 263 0 min 0,000 mm 0,0 UV-I 0 W/m 15,1 C 15,3 C 12,9 km/h (3 Bft) 96,00 %
19.09.2018 02:58 16,3 C 22,2 C 15,6 C 93 % 1018,6 hPa 0,0 l/m 7,0 km/h (2 Bft) W 275 0 min 0,000 mm 0,0 UV-I 0 W/m 15,2 C 16,0 C 12,9 km/h (3 Bft) 97,87 %
19.09.2018 03:00 16,3 C 22,2 C 15,6 C 93 % 1018,5 hPa 0,0 l/m 6,7 km/h (2 Bft) W 263 0 min 0,000 mm 0,0 UV-I 0 W/m 15,2 C 16,2 C 9,7 km/h (2 Bft) 97,73 %
19.09.2018 03:02 16,2 C 22,2 C 15,6 C 93 % 1018,5 hPa 0,0 l/m 6,7 km/h (2 Bft) W-SW 257 0 min 0,000 mm 0,0 UV-I 0 W/m 15,1 C 16,1 C 11,3 km/h (2 Bft) 97,56 %
19.09.2018 03:04 16,2 C 22,2 C 15,6 C 93 % 1018,5 hPa 0,0 l/m 5,9 km/h (2 Bft) W 261 0 min 0,000 mm 0,0 UV-I 0 W/m 15,1 C 16,2 C 11,3 km/h (2 Bft) 95,45 %
19.09.2018 03:06 16,2 C 22,2 C 15,6 C 93 % 1018,5 hPa 0,0 l/m 5,4 km/h (1 Bft) SW 230 0 min 0,000 mm 0,0 UV-I 0 W/m 15,1 C 16,2 C 8,0 km/h (2 Bft) 97,92 %
19.09.2018 03:08 16,2 C 22,2 C 15,6 C 93 % 1018,5 hPa 0,0 l/m 7,0 km/h (2 Bft) W-SW 238 0 min 0,000 mm 0,0 UV-I 0 W/m 15,1 C 15,9 C 9,7 km/h (2 Bft) 96,00 %
19.09.2018 03:10 16,2 C 22,2 C 15,6 C 93 % 1018,5 hPa 0,0 l/m 8,1 km/h (2 Bft) SW 236 0 min 0,000 mm 0,0 UV-I 0 W/m 15,1 C 15,3 C 11,3 km/h (2 Bft) 97,87 %
19.09.2018 03:12 16,2 C 22,2 C 15,6 C 93 % 1018,6 hPa 0,0 l/m 8,4 km/h (2 Bft) W-SW 241 0 min 0,000 mm 0,0 UV-I 0 W/m 15,1 C 15,2 C 12,9 km/h (3 Bft) 96,00 %
19.09.2018 03:14 16,2 C 22,2 C 15,6 C 93 % 1018,6 hPa 0,0 l/m 8,7 km/h (2 Bft) W-SW 242 0 min 0,000 mm 0,0 UV-I 0 W/m 15,1 C 15,0 C 12,9 km/h (3 Bft) 97,73 %
19.09.2018 03:16 16,2 C 22,2 C 15,6 C 93 % 1018,6 hPa 0,0 l/m 6,9 km/h (2 Bft) W-NW 283 0 min 0,000 mm 0,0 UV-I 0 W/m 15,1 C 15,9 C 9,7 km/h (2 Bft) 97,44 %
19.09.2018 03:18 16,2 C 22,2 C 15,6 C 93 % 1018,6 hPa 0,0 l/m 4,8 km/h (1 Bft) W 259 0 min 0,000 mm 0,0 UV-I 0 W/m 15,1 C 16,2 C 8,0 km/h (2 Bft) 96,72 %
19.09.2018 03:20 16,2 C 22,2 C 15,6 C 93 % 1018,6 hPa 0,0 l/m 5,4 km/h (1 Bft) W 262 0 min 0,000 mm 0,0 UV-I 0 W/m 15,1 C 16,2 C 6,4 km/h (2 Bft) 97,44 %
19.09.2018 03:22 16,2 C 22,2 C 15,6 C 93 % 1018,6 hPa 0,0 l/m 6,6 km/h (2 Bft) W-SW 254 0 min 0,000 mm 0,0 UV-I 0 W/m 15,1 C 16,1 C 9,7 km/h (2 Bft) 96,36 %
19.09.2018 03:24 16,2 C 22,2 C 15,6 C 93 % 1018,5 hPa 0,0 l/m 5,5 km/h (1 Bft) W-SW 255 0 min 0,000 mm 0,0 UV-I 0 W/m 15,1 C 16,2 C 9,7 km/h (2 Bft) 98,00 %
19.09.2018 03:25 16,2 C 22,2 C 15,6 C 93 % 1018,5 hPa 0,0 l/m 4,2 km/h (1 Bft) W-SW 242 0 min 0,000 mm 0,0 UV-I 0 W/m 15,1 C 16,2 C 6,4 km/h (2 Bft) 95,83 %
19.09.2018 03:26 16,2 C 22,2 C 15,6 C 93 % 1018,5 hPa 0,0 l/m 6,8 km/h (2 Bft) W-SW 249 0 min 0,000 mm 0,0 UV-I 0 W/m 15,1 C 16,0 C 9,7 km/h (2 Bft) 100,00 %
19.09.2018 03:28 16,2 C 22,2 C 15,6 C 93 % 1018,5 hPa 0,0 l/m 3,4 km/h (1 Bft) W-SW 244 0 min 0,000 mm 0,0 UV-I 0 W/m 15,1 C 16,2 C 4,8 km/h (1 Bft) 98,00 %
19.09.2018 03:30 16,2 C 22,2 C 15,6 C 93 % 1018,5 hPa 0,0 l/m 2,5 km/h (1 Bft) W-SW 245 0 min 0,000 mm 0,0 UV-I 0 W/m 15,1 C 16,2 C 4,8 km/h (1 Bft) 95,74 %
19.09.2018 03:32 16,2 C 22,2 C 15,6 C 93 % 1018,5 hPa 0,0 l/m 3,8 km/h (1 Bft) W-SW 241 0 min 0,000 mm 0,0 UV-I 0 W/m 15,1 C 16,2 C 6,4 km/h (2 Bft) 95,12 %
19.09.2018 03:34 16,2 C 22,2 C 15,6 C 93 % 1018,5 hPa 0,0 l/m 3,3 km/h (1 Bft) W-SW 241 0 min 0,000 mm 0,0 UV-I 0 W/m 15,1 C 16,2 C 4,8 km/h (1 Bft) 96,00 %
19.09.2018 03:36 16,2 C 22,2 C 15,6 C 93 % 1018,5 hPa 0,0 l/m 3,3 km/h (1 Bft) W-SW 240 0 min 0,000 mm 0,0 UV-I 0 W/m 15,1 C 16,2 C 4,8 km/h (1 Bft) 94,00 %
19.09.2018 03:38 16,2 C 22,2 C 15,6 C 93 % 1018,5 hPa 0,0 l/m 4,0 km/h (1 Bft) W-SW 240 0 min 0,000 mm 0,0 UV-I 0 W/m 15,1 C 16,2 C 4,8 km/h (1 Bft) 96,00 %
19.09.2018 03:40 16,2 C 22,2 C 15,6 C 93 % 1018,5 hPa 0,0 l/m 4,9 km/h (1 Bft) SW 215 0 min 0,000 mm 0,0 UV-I 0 W/m 15,1 C 16,2 C 6,4 km/h (2 Bft) 93,62 %
19.09.2018 03:42 16,2 C 22,2 C 15,6 C 93 % 1018,5 hPa 0,0 l/m 4,9 km/h (1 Bft) SW 219 0 min 0,000 mm 0,0 UV-I 0 W/m 15,1 C 16,2 C 6,4 km/h (2 Bft) 95,12 %
19.09.2018 03:44 16,2 C 22,2 C 15,6 C 93 % 1018,5 hPa 0,0 l/m 6,6 km/h (2 Bft) SW 214 0 min 0,000 mm 0,0 UV-I 0 W/m 15,1 C 16,1 C 9,7 km/h (2 Bft) 95,74 %
19.09.2018 03:46 16,2 C 22,2 C 15,6 C 93 % 1018,5 hPa 0,0 l/m 5,4 km/h (1 Bft) SW 225 0 min 0,000 mm 0,0 UV-I 0 W/m 15,1 C 16,2 C 8,0 km/h (2 Bft) 95,12 %
19.09.2018 03:48 16,2 C 22,2 C 15,6 C 93 % 1018,5 hPa 0,0 l/m 3,0 km/h (1 Bft) SW 223 0 min 0,000 mm 0,0 UV-I 0 W/m 15,1 C 16,2 C 6,4 km/h (2 Bft) 94,64 %
19.09.2018 03:50 16,2 C 22,2 C 15,6 C 93 % 1018,5 hPa 0,0 l/m 2,9 km/h (1 Bft) SW 223 0 min 0,000 mm 0,0 UV-I 0 W/m 15,1 C 16,2 C 6,4 km/h (2 Bft) 95,12 %
19.09.2018 03:52 16,2 C 22,2 C 15,6 C 93 % 1018,5 hPa 0,0 l/m 5,0 km/h (1 Bft) SW 234 0 min 0,000 mm 0,0 UV-I 0 W/m 15,1 C 16,2 C 11,3 km/h (2 Bft) 98,11 %
19.09.2018 03:54 16,2 C 22,2 C 15,6 C 93 % 1018,5 hPa 0,0 l/m 4,2 km/h (1 Bft) W-SW 239 0 min 0,000 mm 0,0 UV-I 0 W/m 15,1 C 16,2 C 8,0 km/h (2 Bft) 97,87 %
19.09.2018 03:56 16,2 C 22,2 C 15,6 C 93 % 1018,5 hPa 0,0 l/m 4,1 km/h (1 Bft) W-SW 239 0 min 0,000 mm 0,0 UV-I 0 W/m 15,1 C 16,2 C 6,4 km/h (2 Bft) 97,87 %
19.09.2018 03:58 16,2 C 22,2 C 15,6 C 93 % 1018,5 hPa 0,0 l/m 5,1 km/h (1 Bft) W-SW 237 0 min 0,000 mm 0,0 UV-I 0 W/m 15,1 C 16,2 C 6,4 km/h (2 Bft) 100,00 %
19.09.2018 04:00 16,2 C 22,2 C 15,6 C 93 % 1018,5 hPa 0,0 l/m 4,9 km/h (1 Bft) W-SW 242 0 min 0,000 mm 0,0 UV-I 0 W/m 15,1 C 16,2 C 6,4 km/h (2 Bft) 98,00 %
19.09.2018 04:02 16,2 C 22,2 C 15,6 C 93 % 1018,5 hPa 0,0 l/m 5,0 km/h (1 Bft) W-SW 244 0 min 0,000 mm 0,0 UV-I 0 W/m 15,1 C 16,2 C 6,4 km/h (2 Bft) 88,89 %
19.09.2018 04:04 16,1 C 22,2 C 15,6 C 93 % 1018,5 hPa 0,0 l/m 4,9 km/h (1 Bft) SW 234 0 min 0,000 mm 0,0 UV-I 0 W/m 15,0 C 16,1 C 6,4 km/h (2 Bft) 95,12 %
19.09.2018 04:06 16,1 C 22,2 C 15,6 C 93 % 1018,5 hPa 0,0 l/m 6,4 km/h (2 Bft) W-SW 243 0 min 0,000 mm 0,0 UV-I 0 W/m 15,0 C 16,1 C 11,3 km/h (2 Bft) 92,86 %
19.09.2018 04:08 16,1 C 22,2 C 15,6 C 93 % 1018,5 hPa 0,0 l/m 6,6 km/h (2 Bft) W-SW 238 0 min 0,000 mm 0,0 UV-I 0 W/m 15,0 C 16,0 C 9,7 km/h (2 Bft) 97,14 %
19.09.2018 04:10 16,1 C 22,2 C 15,6 C 93 % 1018,4 hPa 0,0 l/m 7,0 km/h (2 Bft) SW 233 0 min 0,000 mm 0,0 UV-I 0 W/m 15,0 C 15,8 C 9,7 km/h (2 Bft) 98,11 %
19.09.2018 04:12 16,1 C 22,2 C 15,6 C 93 % 1018,4 hPa 0,0 l/m 7,1 km/h (2 Bft) SW 228 0 min 0,000 mm 0,0 UV-I 0 W/m 15,0 C 15,7 C 11,3 km/h (2 Bft) 96,00 %
19.09.2018 04:14 16,1 C 22,2 C 15,6 C 93 % 1018,4 hPa 0,0 l/m 8,1 km/h (2 Bft) SW 236 0 min 0,000 mm 0,0 UV-I 0 W/m 15,0 C 15,2 C 12,9 km/h (3 Bft) 97,73 %
19.09.2018 04:16 16,1 C 22,2 C 15,6 C 93 % 1018,4 hPa 0,0 l/m 4,5 km/h (1 Bft) W 265 0 min 0,000 mm 0,0 UV-I 0 W/m 15,0 C 16,1 C 8,0 km/h (2 Bft) 98,11 %
19.09.2018 04:18 16,0 C 22,2 C 15,6 C 93 % 1018,5 hPa 0,0 l/m 4,3 km/h (1 Bft) W 271 0 min 0,000 mm 0,0 UV-I 0 W/m 14,9 C 16,0 C 9,7 km/h (2 Bft) 97,37 %
19.09.2018 04:20 16,0 C 22,2 C 15,6 C 93 % 1018,5 hPa 0,0 l/m 5,1 km/h (1 Bft) W-SW 242 0 min 0,000 mm 0,0 UV-I 0 W/m 14,9 C 16,0 C 8,0 km/h (2 Bft) 98,21 %
19.09.2018 04:22 16,0 C 22,2 C 15,6 C 93 % 1018,5 hPa 0,0 l/m 4,9 km/h (1 Bft) W-SW 238 0 min 0,000 mm 0,0 UV-I 0 W/m 14,9 C 16,0 C 8,0 km/h (2 Bft) 97,37 %
19.09.2018 04:24 16,0 C 22,2 C 15,6 C 93 % 1018,5 hPa 0,0 l/m 6,1 km/h (2 Bft) SW 230 0 min 0,000 mm 0,0 UV-I 0 W/m 14,9 C 16,0 C 9,7 km/h (2 Bft) 97,37 %
19.09.2018 04:26 16,1 C 22,2 C 15,6 C 93 % 1018,5 hPa 0,0 l/m 6,0 km/h (2 Bft) SW 232 0 min 0,000 mm 0,0 UV-I 0 W/m 15,0 C 16,1 C 9,7 km/h (2 Bft) 98,25 %
19.09.2018 04:28 16,1 C 22,2 C 15,6 C 93 % 1018,5 hPa 0,0 l/m 6,0 km/h (2 Bft) SW 235 0 min 0,000 mm 0,0 UV-I 0 W/m 15,0 C 16,1 C 12,9 km/h (3 Bft) 94,34 %
19.09.2018 04:30 16,1 C 22,2 C 15,6 C 92 % 1018,5 hPa 0,0 l/m 5,0 km/h (1 Bft) SW 227 0 min 0,000 mm 0,0 UV-I 0 W/m 14,8 C 16,1 C 8,0 km/h (2 Bft) 97,56 %
19.09.2018 04:32 16,1 C 22,2 C 15,6 C 93 % 1018,5 hPa 0,0 l/m 6,7 km/h (2 Bft) SW 236 0 min 0,000 mm 0,0 UV-I 0 W/m 15,0 C 16,0 C 8,0 km/h (2 Bft) 98,11 %
19.09.2018 04:34 16,1 C 22,2 C 15,6 C 93 % 1018,5 hPa 0,0 l/m 6,6 km/h (2 Bft) SW 236 0 min 0,000 mm 0,0 UV-I 0 W/m 15,0 C 16,0 C 8,0 km/h (2 Bft) 100,00 %
19.09.2018 04:36 16,1 C 22,2 C 15,6 C 92 % 1018,5 hPa 0,0 l/m 5,9 km/h (2 Bft) W-SW 248 0 min 0,000 mm 0,0 UV-I 0 W/m 14,8 C 16,1 C 9,7 km/h (2 Bft) 100,00 %
19.09.2018 04:38 16,1 C 22,2 C 15,6 C 92 % 1018,5 hPa 0,0 l/m 5,8 km/h (2 Bft) W-SW 244 0 min 0,000 mm 0,0 UV-I 0 W/m 14,8 C 16,1 C 11,3 km/h (2 Bft) 100,00 %
19.09.2018 04:40 16,1 C 22,2 C 15,6 C 93 % 1018,5 hPa 0,0 l/m 6,7 km/h (2 Bft) SW 231 0 min 0,000 mm 0,0 UV-I 0 W/m 15,0 C 16,0 C 11,3 km/h (2 Bft) 100,00 %
19.09.2018 04:42 16,1 C 22,2 C 15,6 C 92 % 1018,5 hPa 0,0 l/m 5,8 km/h (2 Bft) SW 227 0 min 0,000 mm 0,0 UV-I 0 W/m 14,8 C 16,1 C 8,0 km/h (2 Bft) 100,00 %
19.09.2018 04:44 16,2 C 22,2 C 15,6 C 92 % 1018,6 hPa 0,0 l/m 6,6 km/h (2 Bft) W-SW 254 0 min 0,000 mm 0,0 UV-I 0 W/m 14,9 C 16,1 C 9,7 km/h (2 Bft) 100,00 %
19.09.2018 04:46 16,2 C 22,2 C 15,6 C 92 % 1018,5 hPa 0,0 l/m 5,8 km/h (2 Bft) W-SW 257 0 min 0,000 mm 0,0 UV-I 0 W/m 14,9 C 16,2 C 8,0 km/h (2 Bft) 100,00 %
19.09.2018 04:48 16,2 C 22,2 C 15,6 C 92 % 1018,5 hPa 0,0 l/m 6,4 km/h (2 Bft) W 262 0 min 0,000 mm 0,0 UV-I 0 W/m 14,9 C 16,2 C 9,7 km/h (2 Bft) 100,00 %
19.09.2018 04:50 16,2 C 22,2 C 15,6 C 92 % 1018,5 hPa 0,0 l/m 6,9 km/h (2 Bft) W-SW 239 0 min 0,000 mm 0,0 UV-I 0 W/m 14,9 C 15,9 C 9,7 km/h (2 Bft) 100,00 %
19.09.2018 04:52 16,1 C 22,2 C 15,6 C 92 % 1018,4 hPa 0,0 l/m 7,6 km/h (2 Bft) W-SW 246 0 min 0,000 mm 0,0 UV-I 0 W/m 14,8 C 15,5 C 12,9 km/h (3 Bft) 100,00 %
19.09.2018 04:54 16,1 C 22,2 C 15,6 C 92 % 1018,5 hPa 0,0 l/m 5,7 km/h (1 Bft) SW 234 0 min 0,000 mm 0,0 UV-I 0 W/m 14,8 C 16,1 C 11,3 km/h (2 Bft) 100,00 %
19.09.2018 04:56 16,1 C 22,2 C 15,6 C 92 % 1018,5 hPa 0,0 l/m 7,4 km/h (2 Bft) SW 236 0 min 0,000 mm 0,0 UV-I 0 W/m 14,8 C 15,6 C 12,9 km/h (3 Bft) 97,14 %
19.09.2018 04:58 16,1 C 22,2 C 15,6 C 92 % 1018,5 hPa 0,0 l/m 5,6 km/h (1 Bft) SW 236 0 min 0,000 mm 0,0 UV-I 0 W/m 14,8 C 16,1 C 9,7 km/h (2 Bft) 98,21 %
19.09.2018 05:00 16,1 C 22,2 C 15,6 C 92 % 1018,5 hPa 0,0 l/m 5,7 km/h (1 Bft) SW 223 0 min 0,000 mm 0,0 UV-I 0 W/m 14,8 C 16,1 C 11,3 km/h (2 Bft) 98,00 %
19.09.2018 05:02 16,1 C 22,2 C 15,6 C 92 % 1018,5 hPa 0,0 l/m 6,1 km/h (2 Bft) SW 220 0 min 0,000 mm 0,0 UV-I 0 W/m 14,8 C 16,1 C 9,7 km/h (2 Bft) 97,56 %
19.09.2018 05:04 16,1 C 22,2 C 15,6 C 92 % 1018,5 hPa 0,0 l/m 6,4 km/h (2 Bft) SW 232 0 min 0,000 mm 0,0 UV-I 0 W/m 14,8 C 16,1 C 9,7 km/h (2 Bft) 95,74 %
19.09.2018 05:06 16,1 C 22,2 C 15,6 C 92 % 1018,4 hPa 0,0 l/m 6,4 km/h (2 Bft) W-SW 238 0 min 0,000 mm 0,0 UV-I 0 W/m 14,8 C 16,1 C 11,3 km/h (2 Bft) 98,00 %
19.09.2018 05:08 16,0 C 22,2 C 15,6 C 92 % 1018,4 hPa 0,0 l/m 6,1 km/h (2 Bft) W-SW 254 0 min 0,000 mm 0,0 UV-I 0 W/m 14,7 C 16,0 C 12,9 km/h (3 Bft) 97,87 %
19.09.2018 05:10 16,0 C 22,2 C 15,0 C 92 % 1018,4 hPa 0,0 l/m 6,0 km/h (2 Bft) W-SW 240 0 min 0,000 mm 0,0 UV-I 0 W/m 14,7 C 16,0 C 8,0 km/h (2 Bft) 97,73 %
19.09.2018 05:12 16,0 C 22,2 C 15,0 C 92 % 1018,4 hPa 0,0 l/m 6,0 km/h (2 Bft) W-SW 248 0 min 0,000 mm 0,0 UV-I 0 W/m 14,7 C 16,0 C 9,7 km/h (2 Bft) 98,00 %
19.09.2018 05:14 15,9 C 22,2 C 15,0 C 92 % 1018,4 hPa 0,0 l/m 5,8 km/h (2 Bft) W-SW 244 0 min 0,000 mm 0,0 UV-I 0 W/m 14,6 C 15,9 C 9,7 km/h (2 Bft) 97,87 %
19.09.2018 05:16 15,9 C 22,2 C 15,0 C 92 % 1018,4 hPa 0,0 l/m 5,0 km/h (1 Bft) W-SW 246 0 min 0,000 mm 0,0 UV-I 0 W/m 14,6 C 15,9 C 8,0 km/h (2 Bft) 97,62 %
19.09.2018 05:18 15,9 C 22,2 C 15,0 C 93 % 1018,3 hPa 0,0 l/m 5,3 km/h (1 Bft) W-SW 247 0 min 0,000 mm 0,0 UV-I 0 W/m 14,8 C 15,9 C 8,0 km/h (2 Bft) 98,00 %
19.09.2018 05:20 15,9 C 22,2 C 15,0 C 93 % 1018,3 hPa 0,0 l/m 4,8 km/h (1 Bft) W-SW 245 0 min 0,000 mm 0,0 UV-I 0 W/m 14,8 C 15,9 C 8,0 km/h (2 Bft) 97,87 %
19.09.2018 05:22 15,8 C 22,2 C 15,0 C 93 % 1018,4 hPa 0,0 l/m 5,8 km/h (2 Bft) W-SW 242 0 min 0,000 mm 0,0 UV-I 0 W/m 14,7 C 15,8 C 8,0 km/h (2 Bft) 98,00 %
19.09.2018 05:24 15,8 C 22,2 C 15,0 C 93 % 1018,4 hPa 0,0 l/m 5,4 km/h (1 Bft) SW 226 0 min 0,000 mm 0,0 UV-I 0 W/m 14,7 C 15,8 C 8,0 km/h (2 Bft) 95,12 %
19.09.2018 05:26 15,8 C 22,2 C 15,0 C 93 % 1018,4 hPa 0,0 l/m 5,4 km/h (1 Bft) SW 223 0 min 0,000 mm 0,0 UV-I 0 W/m 14,7 C 15,8 C 8,0 km/h (2 Bft) 100,00 %
19.09.2018 05:28 15,8 C 22,2 C 15,0 C 93 % 1018,4 hPa 0,0 l/m 6,0 km/h (2 Bft) W-SW 243 0 min 0,000 mm 0,0 UV-I 0 W/m 14,7 C 15,8 C 9,7 km/h (2 Bft) 100,00 %
19.09.2018 05:30 15,8 C 22,2 C 15,0 C 93 % 1018,4 hPa 0,0 l/m 6,6 km/h (2 Bft) W-SW 248 0 min 0,000 mm 0,0 UV-I 0 W/m 14,7 C 15,7 C 11,3 km/h (2 Bft) 100,00 %
19.09.2018 05:32 15,8 C 22,2 C 15,0 C 93 % 1018,4 hPa 0,0 l/m 4,9 km/h (1 Bft) W-SW 251 0 min 0,000 mm 0,0 UV-I 0 W/m 14,7 C 15,8 C 8,0 km/h (2 Bft) 97,14 %
19.09.2018 05:34 15,8 C 22,2 C 15,0 C 93 % 1018,4 hPa 0,0 l/m 5,2 km/h (1 Bft) SW 228 0 min 0,000 mm 0,0 UV-I 0 W/m 14,7 C 15,8 C 8,0 km/h (2 Bft) 100,00 %
19.09.2018 05:36 15,8 C 22,2 C 15,0 C 93 % 1018,4 hPa 0,0 l/m 5,2 km/h (1 Bft) W-SW 240 0 min 0,000 mm 0,0 UV-I 0 W/m 14,7 C 15,8 C 8,0 km/h (2 Bft) 100,00 %
19.09.2018 05:38 15,8 C 22,2 C 15,0 C 93 % 1018,4 hPa 0,0 l/m 4,6 km/h (1 Bft) W-SW 240 0 min 0,000 mm 0,0 UV-I 0 W/m 14,7 C 15,8 C 8,0 km/h (2 Bft) 96,00 %
19.09.2018 05:40 15,8 C 22,2 C 15,0 C 93 % 1018,4 hPa 0,0 l/m 4,3 km/h (1 Bft) SW 222 0 min 0,000 mm 0,0 UV-I 0 W/m 14,7 C 15,8 C 8,0 km/h (2 Bft) 100,00 %
19.09.2018 05:42 15,8 C 22,2 C 15,0 C 93 % 1018,3 hPa 0,0 l/m 5,3 km/h (1 Bft) SW 227 0 min 0,000 mm 0,0 UV-I 0 W/m 14,7 C 15,8 C 6,4 km/h (2 Bft) 98,11 %
19.09.2018 05:44 15,8 C 22,2 C 15,0 C 93 % 1018,4 hPa 0,0 l/m 5,0 km/h (1 Bft) SW 228 0 min 0,000 mm 0,0 UV-I 0 W/m 14,7 C 15,8 C 6,4 km/h (2 Bft) 97,37 %
19.09.2018 05:46 15,8 C 22,2 C 15,0 C 93 % 1018,3 hPa 0,0 l/m 4,9 km/h (1 Bft) SW 217 0 min 0,000 mm 0,0 UV-I 0 W/m 14,7 C 15,8 C 8,0 km/h (2 Bft) 100,00 %
19.09.2018 05:48 15,8 C 22,2 C 15,0 C 93 % 1018,4 hPa 0,0 l/m 5,8 km/h (2 Bft) S-SW 201 0 min 0,000 mm 0,0 UV-I 0 W/m 14,7 C 15,8 C 9,7 km/h (2 Bft) 100,00 %
19.09.2018 05:50 15,8 C 22,2 C 15,0 C 93 % 1018,4 hPa 0,0 l/m 4,6 km/h (1 Bft) SW 221 0 min 0,000 mm 0,0 UV-I 0 W/m 14,7 C 15,8 C 8,0 km/h (2 Bft) 100,00 %
19.09.2018 05:52 15,8 C 22,2 C 15,0 C 93 % 1018,4 hPa 0,0 l/m 2,9 km/h (1 Bft) SW 221 0 min 0,000 mm 0,0 UV-I 0 W/m 14,7 C 15,8 C 4,8 km/h (1 Bft) 100,00 %
19.09.2018 05:54 15,8 C 22,2 C 14,4 C 93 % 1018,4 hPa 0,0 l/m 2,5 km/h (1 Bft) SW 221 0 min 0,000 mm 0,0 UV-I 0 W/m 14,7 C 15,8 C 4,8 km/h (1 Bft) 100,00 %
19.09.2018 05:56 15,8 C 22,2 C 15,0 C 93 % 1018,4 hPa 0,0 l/m 3,8 km/h (1 Bft) S 189 0 min 0,000 mm 0,0 UV-I 0 W/m 14,7 C 15,8 C 4,8 km/h (1 Bft) 97,44 %
19.09.2018 05:58 15,8 C 22,2 C 15,0 C 93 % 1018,4 hPa 0,0 l/m 3,1 km/h (1 Bft) S 189 0 min 0,000 mm 0,0 UV-I 0 W/m 14,7 C 15,8 C 4,8 km/h (1 Bft) 100,00 %
19.09.2018 06:00 15,8 C 22,2 C 15,0 C 93 % 1018,4 hPa 0,0 l/m 3,3 km/h (1 Bft) S-SW 192 0 min 0,000 mm 0,0 UV-I 0 W/m 14,7 C 15,8 C 4,8 km/h (1 Bft) 100,00 %
19.09.2018 06:02 15,8 C 22,2 C 15,0 C 94 % 1018,4 hPa 0,0 l/m 2,5 km/h (1 Bft) S-SW 192 0 min 0,000 mm 0,0 UV-I 0 W/m 14,8 C 15,8 C 3,2 km/h (1 Bft) 97,73 %
19.09.2018 06:04 15,8 C 22,2 C 15,0 C 93 % 1018,4 hPa 0,0 l/m 2,1 km/h (1 Bft) S-SW 192 0 min 0,000 mm 0,0 UV-I 0 W/m 14,7 C 15,8 C 4,8 km/h (1 Bft) 98,11 %
19.09.2018 06:06 15,8 C 22,2 C 15,0 C 93 % 1018,5 hPa 0,0 l/m 1,6 km/h (1 Bft) S-SW 192 0 min 0,000 mm 0,0 UV-I 0 W/m 14,7 C 15,8 C 3,2 km/h (1 Bft) 97,37 %
19.09.2018 06:08 15,8 C 22,2 C 15,0 C 94 % 1018,5 hPa 0,0 l/m 2,2 km/h (1 Bft) S-SW 192 0 min 0,000 mm 0,0 UV-I 0 W/m 14,8 C 15,8 C 3,2 km/h (1 Bft) 98,21 %
19.09.2018 06:10 15,8 C 22,2 C 15,0 C 94 % 1018,5 hPa 0,0 l/m 2,1 km/h (1 Bft) S-SW 192 0 min 0,000 mm 0,0 UV-I 0 W/m 14,8 C 15,8 C 3,2 km/h (1 Bft) 95,12 %
19.09.2018 06:12 15,8 C 22,2 C 15,0 C 94 % 1018,5 hPa 0,0 l/m 2,5 km/h (1 Bft) SW 215 0 min 0,000 mm 0,0 UV-I 0 W/m 14,8 C 15,8 C 4,8 km/h (1 Bft) 94,00 %
19.09.2018 06:14 15,8 C 22,2 C 15,0 C 94 % 1018,6 hPa 0,0 l/m 3,2 km/h (1 Bft) W-SW 249 0 min 0,000 mm 0,0 UV-I 0 W/m 14,8 C 15,8 C 4,8 km/h (1 Bft) 96,30 %
19.09.2018 06:16 15,8 C 22,2 C 15,0 C 94 % 1018,6 hPa 0,0 l/m 4,2 km/h (1 Bft) W-SW 240 0 min 0,000 mm 0,0 UV-I 0 W/m 14,8 C 15,8 C 4,8 km/h (1 Bft) 97,01 %
19.09.2018 06:18 15,7 C 22,2 C 15,0 C 94 % 1018,6 hPa 0,0 l/m 6,1 km/h (2 Bft) SW 228 0 min 0,000 mm 0,0 UV-I 0 W/m 14,7 C 15,7 C 8,0 km/h (2 Bft) 98,00 %
19.09.2018 06:20 15,7 C 22,2 C 15,0 C 94 % 1018,6 hPa 0,0 l/m 5,6 km/h (1 Bft) SW 235 0 min 0,000 mm 0,0 UV-I 0 W/m 14,7 C 15,7 C 6,4 km/h (2 Bft) 98,00 %
19.09.2018 06:22 15,7 C 22,2 C 15,0 C 94 % 1018,6 hPa 0,0 l/m 5,4 km/h (1 Bft) SW 229 0 min 0,000 mm 0,0 UV-I 0 W/m 14,7 C 15,7 C 8,0 km/h (2 Bft) 95,12 %
19.09.2018 06:24 15,6 C 22,2 C 15,0 C 94 % 1018,7 hPa 0,0 l/m 5,5 km/h (1 Bft) SW 234 0 min 0,000 mm 0,0 UV-I 0 W/m 14,6 C 15,6 C 8,0 km/h (2 Bft) 98,00 %
19.09.2018 06:26 15,6 C 22,2 C 15,0 C 94 % 1018,7 hPa 0,0 l/m 6,5 km/h (2 Bft) SW 221 0 min 0,000 mm 0,0 UV-I 0 W/m 14,6 C 15,6 C 9,7 km/h (2 Bft) 93,62 %
19.09.2018 06:28 15,6 C 22,2 C 15,6 C 94 % 1018,6 hPa 0,0 l/m 7,1 km/h (2 Bft) S-SW 208 0 min 0,000 mm 0,0 UV-I 0 W/m 14,6 C 15,2 C 12,9 km/h (3 Bft) 92,86 %
19.09.2018 06:30 15,7 C 22,2 C 15,6 C 94 % 1018,6 hPa 0,0 l/m 6,8 km/h (2 Bft) SW 221 0 min 0,000 mm 0,0 UV-I 0 W/m 14,7 C 15,5 C 9,7 km/h (2 Bft) 90,00 %
19.09.2018 06:32 15,7 C 22,2 C 15,6 C 94 % 1018,6 hPa 0,0 l/m 6,1 km/h (2 Bft) S-SW 203 0 min 0,000 mm 0,0 UV-I 0 W/m 14,7 C 15,7 C 8,0 km/h (2 Bft) 93,62 %
19.09.2018 06:34 15,7 C 22,2 C 15,6 C 94 % 1018,6 hPa 0,0 l/m 6,1 km/h (2 Bft) SW 223 0 min 0,000 mm 0,0 UV-I 0 W/m 14,7 C 15,7 C 9,7 km/h (2 Bft) 94,00 %
19.09.2018 06:36 15,7 C 22,2 C 15,6 C 94 % 1018,6 hPa 0,0 l/m 6,0 km/h (2 Bft) S-SW 211 0 min 0,000 mm 0,0 UV-I 0 W/m 14,7 C 15,7 C 8,0 km/h (2 Bft) 95,45 %
19.09.2018 06:38 15,7 C 22,2 C 15,6 C 94 % 1018,6 hPa 0,0 l/m 6,9 km/h (2 Bft) SW 223 0 min 0,000 mm 0,0 UV-I 4 W/m 14,7 C 15,4 C 12,9 km/h (3 Bft) 94,00 %
19.09.2018 06:40 15,8 C 21,7 C 15,6 C 94 % 1018,6 hPa 0,0 l/m 5,4 km/h (1 Bft) W-SW 256 0 min 0,000 mm 0,0 UV-I 5 W/m 14,8 C 15,8 C 8,0 km/h (2 Bft) 97,14 %
19.09.2018 06:42 15,8 C 22,2 C 15,6 C 93 % 1018,6 hPa 0,0 l/m 5,7 km/h (1 Bft) SW 235 0 min 0,000 mm 0,0 UV-I 5 W/m 14,7 C 15,8 C 8,0 km/h (2 Bft) 92,86 %
19.09.2018 06:44 15,8 C 22,2 C 15,6 C 93 % 1018,6 hPa 0,0 l/m 5,8 km/h (2 Bft) W-SW 244 0 min 0,000 mm 0,0 UV-I 5 W/m 14,7 C 15,8 C 9,7 km/h (2 Bft) 95,12 %
19.09.2018 06:46 15,8 C 21,7 C 15,6 C 93 % 1018,6 hPa 0,0 l/m 5,0 km/h (1 Bft) W-SW 253 0 min 0,000 mm 0,0 UV-I 5 W/m 14,7 C 15,8 C 6,4 km/h (2 Bft) 95,74 %
19.09.2018 06:48 15,8 C 22,2 C 15,6 C 93 % 1018,6 hPa 0,0 l/m 5,7 km/h (1 Bft) W-SW 242 0 min 0,000 mm 0,0 UV-I 6 W/m 14,7 C 15,8 C 9,7 km/h (2 Bft) 96,00 %
19.09.2018 06:50 15,8 C 22,2 C 15,6 C 93 % 1018,7 hPa 0,0 l/m 4,7 km/h (1 Bft) W-SW 242 0 min 0,000 mm 0,0 UV-I 7 W/m 14,7 C 15,8 C 6,4 km/h (2 Bft) 94,34 %
19.09.2018 06:52 15,8 C 21,7 C 15,6 C 93 % 1018,7 hPa 0,0 l/m 5,7 km/h (1 Bft) W-SW 244 0 min 0,000 mm 0,0 UV-I 7 W/m 14,7 C 15,8 C 8,0 km/h (2 Bft) 97,14 %
19.09.2018 06:54 15,8 C 21,7 C 15,6 C 93 % 1018,7 hPa 0,0 l/m 6,4 km/h (2 Bft) W-SW 245 0 min 0,000 mm 0,0 UV-I 9 W/m 14,7 C 15,8 C 9,7 km/h (2 Bft) 97,87 %
19.09.2018 06:56 15,8 C 21,7 C 15,6 C 93 % 1018,8 hPa 0,0 l/m 6,1 km/h (2 Bft) SW 235 2 min 0,000 mm 0,0 UV-I 10 W/m 14,7 C 15,8 C 9,7 km/h (2 Bft) 98,11 %
19.09.2018 06:58 15,8 C 21,7 C 15,6 C 93 % 1018,8 hPa 0,0 l/m 7,3 km/h (2 Bft) SW 226 0 min 0,000 mm 0,0 UV-I 11 W/m 14,7 C 15,3 C 9,7 km/h (2 Bft) 97,56 %
19.09.2018 07:00 15,8 C 21,7 C 15,6 C 93 % 1018,8 hPa 0,0 l/m 7,4 km/h (2 Bft) W-SW 258 0 min 0,000 mm 0,0 UV-I 6 W/m 14,7 C 15,3 C 9,7 km/h (2 Bft) 97,87 %
19.09.2018 07:02 15,8 C 21,7 C 15,6 C 93 % 1018,8 hPa 0,0 l/m 7,5 km/h (2 Bft) SW 230 0 min 0,000 mm 0,0 UV-I 5 W/m 14,7 C 15,2 C 11,3 km/h (2 Bft) 97,62 %
19.09.2018 07:04 15,8 C 21,7 C 15,6 C 93 % 1018,9 hPa 0,0 l/m 8,6 km/h (2 Bft) W-SW 238 0 min 0,000 mm 0,0 UV-I 11 W/m 14,7 C 14,6 C 12,9 km/h (3 Bft) 96,55 %
19.09.2018 07:06 15,8 C 21,7 C 15,6 C 93 % 1018,9 hPa 0,0 l/m 7,5 km/h (2 Bft) W-SW 240 0 min 0,000 mm 0,0 UV-I 13 W/m 14,7 C 15,2 C 11,3 km/h (2 Bft) 98,00 %
19.09.2018 07:08 15,8 C 21,7 C 15,6 C 93 % 1018,9 hPa 0,0 l/m 9,8 km/h (2 Bft) W-SW 242 0 min 0,000 mm 0,0 UV-I 15 W/m 14,7 C 14,1 C 14,5 km/h (3 Bft) 97,22 %
19.09.2018 07:10 15,9 C 21,7 C 15,6 C 93 % 1018,9 hPa 0,0 l/m 10,3 km/h (2 Bft) SW 229 0 min 0,000 mm 0,0 UV-I 16 W/m 14,8 C 14,0 C 17,7 km/h (3 Bft) 98,00 %
19.09.2018 07:12 15,9 C 21,7 C 15,6 C 93 % 1018,9 hPa 0,0 l/m 8,1 km/h (2 Bft) W-SW 244 0 min 0,000 mm 0,0 UV-I 18 W/m 14,8 C 15,0 C 12,9 km/h (3 Bft) 95,74 %
19.09.2018 07:14 15,9 C 21,7 C 15,6 C 93 % 1019,0 hPa 0,0 l/m 9,1 km/h (2 Bft) SW 229 0 min 0,000 mm 0,0 UV-I 18 W/m 14,8 C 14,5 C 16,1 km/h (3 Bft) 98,11 %
19.09.2018 07:16 15,9 C 21,7 C 15,6 C 93 % 1019,0 hPa 0,0 l/m 9,4 km/h (2 Bft) SW 217 0 min 0,000 mm 0,0 UV-I 19 W/m 14,8 C 14,4 C 16,1 km/h (3 Bft) 98,00 %
19.09.2018 07:18 15,9 C 21,7 C 15,6 C 93 % 1019,0 hPa 0,0 l/m 9,7 km/h (2 Bft) SW 223 0 min 0,000 mm 0,0 UV-I 21 W/m 14,8 C 14,2 C 14,5 km/h (3 Bft) 94,29 %
19.09.2018 07:20 15,9 C 21,7 C 15,6 C 92 % 1019,0 hPa 0,0 l/m 10,0 km/h (2 Bft) W-SW 254 0 min 0,000 mm 0,0 UV-I 21 W/m 14,6 C 14,1 C 16,1 km/h (3 Bft) 97,87 %
19.09.2018 07:22 15,9 C 21,7 C 15,6 C 92 % 1019,1 hPa 0,0 l/m 8,7 km/h (2 Bft) W-SW 248 0 min 0,000 mm 0,0 UV-I 23 W/m 14,6 C 14,7 C 12,9 km/h (3 Bft) 96,00 %
19.09.2018 07:24 15,9 C 21,7 C 15,6 C 92 % 1019,1 hPa 0,0 l/m 7,6 km/h (2 Bft) SW 236 0 min 0,000 mm 0,0 UV-I 25 W/m 14,6 C 15,3 C 11,3 km/h (2 Bft) 98,00 %
19.09.2018 07:26 15,9 C 21,7 C 15,6 C 92 % 1019,1 hPa 0,0 l/m 6,9 km/h (2 Bft) W-SW 256 0 min 0,000 mm 0,0 UV-I 27 W/m 14,6 C 15,6 C 11,3 km/h (2 Bft) 95,74 %
19.09.2018 07:28 15,9 C 21,7 C 15,6 C 92 % 1019,2 hPa 0,0 l/m 7,0 km/h (2 Bft) W 269 0 min 0,000 mm 0,0 UV-I 30 W/m 14,6 C 15,6 C 12,9 km/h (3 Bft) 100,00 %
19.09.2018 07:30 15,9 C 21,7 C 15,6 C 92 % 1019,2 hPa 0,0 l/m 7,3 km/h (2 Bft) W 269 0 min 0,000 mm 0,0 UV-I 32 W/m 14,6 C 15,4 C 11,3 km/h (2 Bft) 98,15 %
19.09.2018 07:32 15,9 C 21,7 C 15,6 C 92 % 1019,3 hPa 0,0 l/m 6,6 km/h (2 Bft) W-SW 242 0 min 0,000 mm 0,0 UV-I 33 W/m 14,6 C 15,8 C 9,7 km/h (2 Bft) 100,00 %
19.09.2018 07:34 15,9 C 21,7 C 15,6 C 92 % 1019,3 hPa 0,0 l/m 6,4 km/h (2 Bft) W 263 0 min 0,000 mm 0,0 UV-I 34 W/m 14,6 C 15,9 C 11,3 km/h (2 Bft) 97,37 %
19.09.2018 07:36 15,9 C 21,7 C 15,6 C 92 % 1019,3 hPa 0,0 l/m 6,9 km/h (2 Bft) SW 225 0 min 0,000 mm 0,0 UV-I 36 W/m 14,6 C 15,6 C 9,7 km/h (2 Bft) 100,00 %
19.09.2018 07:38 16,0 C 21,7 C 15,6 C 92 % 1019,4 hPa 0,0 l/m 7,3 km/h (2 Bft) W-SW 238 0 min 0,000 mm 0,0 UV-I 39 W/m 14,7 C 15,5 C 11,3 km/h (2 Bft) 97,92 %
19.09.2018 07:40 16,0 C 21,7 C 15,6 C 92 % 1019,4 hPa 0,0 l/m 6,4 km/h (2 Bft) SW 221 0 min 0,000 mm 0,0 UV-I 40 W/m 14,7 C 16,0 C 11,3 km/h (2 Bft) 100,00 %
19.09.2018 07:42 16,1 C 21,7 C 16,1 C 92 % 1019,5 hPa 0,0 l/m 7,5 km/h (2 Bft) W 267 0 min 0,000 mm 0,0 UV-I 40 W/m 14,8 C 15,5 C 9,7 km/h (2 Bft) 100,00 %
19.09.2018 07:44 16,1 C 21,7 C 16,1 C 92 % 1019,5 hPa 0,0 l/m 5,3 km/h (1 Bft) W-SW 252 0 min 0,000 mm 0,0 UV-I 42 W/m 14,8 C 16,1 C 11,3 km/h (2 Bft) 100,00 %
19.09.2018 07:46 16,1 C 21,7 C 16,1 C 92 % 1019,5 hPa 0,0 l/m 4,8 km/h (1 Bft) W 261 0 min 0,000 mm 0,0 UV-I 44 W/m 14,8 C 16,1 C 9,7 km/h (2 Bft) 100,00 %
19.09.2018 07:48 16,1 C 21,7 C 16,1 C 92 % 1019,5 hPa 0,0 l/m 7,4 km/h (2 Bft) W 275 0 min 0,000 mm 0,0 UV-I 47 W/m 14,8 C 15,6 C 12,9 km/h (3 Bft) 100,00 %
19.09.2018 07:50 16,2 C 21,7 C 16,1 C 92 % 1019,5 hPa 0,0 l/m 9,2 km/h (2 Bft) W-SW 258 0 min 0,000 mm 0,0 UV-I 51 W/m 14,9 C 14,8 C 12,9 km/h (3 Bft) 100,00 %
19.09.2018 07:52 16,2 C 21,7 C 16,1 C 91 % 1019,6 hPa 0,0 l/m 9,9 km/h (2 Bft) SW 230 0 min 0,000 mm 0,0 UV-I 51 W/m 14,7 C 14,5 C 14,5 km/h (3 Bft) 100,00 %
19.09.2018 07:54 16,2 C 21,7 C 16,1 C 91 % 1019,6 hPa 0,0 l/m 6,2 km/h (2 Bft) W-SW 257 0 min 0,000 mm 0,0 UV-I 52 W/m 14,7 C 16,2 C 11,3 km/h (2 Bft) 100,00 %
19.09.2018 07:56 16,2 C 21,7 C 16,1 C 91 % 1019,6 hPa 0,0 l/m 5,9 km/h (2 Bft) W 261 0 min 0,000 mm 0,0 UV-I 53 W/m 14,7 C 16,2 C 11,3 km/h (2 Bft) 97,73 %
19.09.2018 07:58 16,2 C 21,7 C 16,1 C 91 % 1019,6 hPa 0,0 l/m 5,3 km/h (1 Bft) SW 224 0 min 0,000 mm 0,0 UV-I 53 W/m 14,7 C 16,2 C 8,0 km/h (2 Bft) 98,11 %
19.09.2018 08:00 16,3 C 21,7 C 16,1 C 91 % 1019,7 hPa 0,0 l/m 7,7 km/h (2 Bft) SW 236 0 min 0,000 mm 0,0 UV-I 53 W/m 14,8 C 15,6 C 11,3 km/h (2 Bft) 95,12 %
19.09.2018 08:02 16,3 C 21,7 C 16,1 C 91 % 1019,7 hPa 0,0 l/m 9,7 km/h (2 Bft) W 275 0 min 0,026 mm 0,0 UV-I 53 W/m 14,8 C 14,7 C 12,9 km/h (3 Bft) 95,74 %
19.09.2018 08:04 16,3 C 21,7 C 16,1 C 91 % 1019,8 hPa 0,0 l/m 10,8 km/h (2 Bft) W 259 0 min 0,000 mm 0,0 UV-I 54 W/m 14,8 C 14,2 C 16,1 km/h (3 Bft) 93,62 %
19.09.2018 08:06 16,3 C 21,7 C 16,1 C 91 % 1019,8 hPa 0,0 l/m 11,2 km/h (2 Bft) W-SW 238 0 min 0,000 mm 0,0 UV-I 55 W/m 14,8 C 14,1 C 14,5 km/h (3 Bft) 95,45 %
19.09.2018 08:08 16,3 C 21,7 C 16,7 C 91 % 1019,7 hPa 0,0 l/m 10,7 km/h (2 Bft) W 265 0 min 0,000 mm 0,0 UV-I 57 W/m 14,8 C 14,3 C 16,1 km/h (3 Bft) 96,43 %
19.09.2018 08:10 16,3 C 21,7 C 16,7 C 91 % 1019,7 hPa 0,0 l/m 7,0 km/h (2 Bft) W-SW 240 0 min 0,000 mm 0,0 UV-I 56 W/m 14,8 C 16,0 C 11,3 km/h (2 Bft) 92,11 %
19.09.2018 08:12 16,4 C 21,7 C 16,7 C 91 % 1019,7 hPa 0,0 l/m 6,8 km/h (2 Bft) W-SW 249 0 min 0,000 mm 0,0 UV-I 55 W/m 14,9 C 16,2 C 11,3 km/h (2 Bft) 93,62 %
19.09.2018 08:14 16,4 C 21,7 C 16,7 C 91 % 1019,7 hPa 0,0 l/m 4,3 km/h (1 Bft) SW 231 0 min 0,000 mm 0,0 UV-I 54 W/m 14,9 C 16,4 C 6,4 km/h (2 Bft) 95,56 %
19.09.2018 08:16 16,4 C 21,7 C 16,7 C 91 % 1019,7 hPa 0,0 l/m 6,9 km/h (2 Bft) W 261 0 min 0,000 mm 0,0 UV-I 54 W/m 14,9 C 16,1 C 9,7 km/h (2 Bft) 90,91 %
19.09.2018 08:18 16,4 C 21,7 C 16,7 C 91 % 1019,8 hPa 0,0 l/m 4,7 km/h (1 Bft) SW 229 0 min 0,000 mm 0,0 UV-I 56 W/m 14,9 C 16,4 C 6,4 km/h (2 Bft) 93,62 %
19.09.2018 08:20 16,4 C 21,7 C 16,7 C 91 % 1019,8 hPa 0,0 l/m 5,3 km/h (1 Bft) W 275 0 min 0,000 mm 0,0 UV-I 60 W/m 14,9 C 16,4 C 11,3 km/h (2 Bft) 97,44 %
19.09.2018 08:22 16,4 C 21,7 C 16,7 C 91 % 1019,8 hPa 0,0 l/m 5,9 km/h (2 Bft) W-SW 244 0 min 0,000 mm 0,0 UV-I 62 W/m 14,9 C 16,4 C 9,7 km/h (2 Bft) 98,00 %
19.09.2018 08:24 16,4 C 21,7 C 16,7 C 91 % 1019,7 hPa 0,0 l/m 4,9 km/h (1 Bft) W-SW 237 0 min 0,000 mm 0,0 UV-I 64 W/m 14,9 C 16,4 C 6,4 km/h (2 Bft) 98,00 %
19.09.2018 08:26 16,4 C 21,7 C 16,7 C 91 % 1019,8 hPa 0,0 l/m 5,5 km/h (1 Bft) W-SW 258 0 min 0,000 mm 0,0 UV-I 65 W/m 14,9 C 16,4 C 8,0 km/h (2 Bft) 96,23 %
19.09.2018 08:28 16,4 C 21,7 C 16,7 C 91 % 1019,8 hPa 0,0 l/m 7,7 km/h (2 Bft) W-SW 256 0 min 0,000 mm 0,0 UV-I 65 W/m 14,9 C 15,7 C 11,3 km/h (2 Bft) 95,45 %
19.09.2018 08:30 16,4 C 21,7 C 16,7 C 91 % 1019,9 hPa 0,0 l/m 6,2 km/h (2 Bft) W-SW 249 0 min 0,000 mm 0,0 UV-I 66 W/m 14,9 C 16,4 C 11,3 km/h (2 Bft) 97,56 %
19.09.2018 08:32 16,5 C 21,7 C 16,7 C 91 % 1019,9 hPa 0,0 l/m 8,1 km/h (2 Bft) W 265 0 min 0,000 mm 0,0 UV-I 67 W/m 15,0 C 15,6 C 11,3 km/h (2 Bft) 96,00 %
19.09.2018 08:34 16,5 C 21,7 C 16,7 C 91 % 1019,9 hPa 0,0 l/m 7,9 km/h (2 Bft) SW 236 0 min 0,000 mm 0,0 UV-I 68 W/m 15,0 C 15,7 C 11,3 km/h (2 Bft) 100,00 %
19.09.2018 08:36 16,5 C 21,7 C 16,7 C 91 % 1019,9 hPa 0,0 l/m 6,1 km/h (2 Bft) SW 231 0 min 0,000 mm 0,0 UV-I 69 W/m 15,0 C 16,5 C 8,0 km/h (2 Bft) 100,00 %
19.09.2018 08:38 16,5 C 21,7 C 16,7 C 91 % 1019,9 hPa 0,0 l/m 6,4 km/h (2 Bft) W 265 0 min 0,000 mm 0,0 UV-I 72 W/m 15,0 C 16,5 C 9,7 km/h (2 Bft) 100,00 %
19.09.2018 08:40 16,5 C 21,7 C 17,2 C 91 % 1019,9 hPa 0,0 l/m 4,1 km/h (1 Bft) W 268 0 min 0,000 mm 0,0 UV-I 75 W/m 15,0 C 16,5 C 4,8 km/h (1 Bft) 100,00 %
19.09.2018 08:42 16,6 C 21,7 C 17,2 C 91 % 1019,8 hPa 0,0 l/m 5,1 km/h (1 Bft) W 278 0 min 0,000 mm 0,0 UV-I 79 W/m 15,1 C 16,6 C 6,4 km/h (2 Bft) 100,00 %
19.09.2018 08:44 16,6 C 21,7 C 17,2 C 90 % 1019,9 hPa 0,0 l/m 5,5 km/h (1 Bft) W 260 0 min 0,000 mm 0,0 UV-I 83 W/m 15,0 C 16,6 C 9,7 km/h (2 Bft) 100,00 %
19.09.2018 08:46 16,6 C 21,7 C 17,2 C 90 % 1019,9 hPa 0,0 l/m 5,0 km/h (1 Bft) W-SW 257 0 min 0,000 mm 0,0 UV-I 86 W/m 15,0 C 16,6 C 9,7 km/h (2 Bft) 100,00 %
19.09.2018 08:48 16,7 C 21,7 C 17,2 C 90 % 1019,9 hPa 0,0 l/m 5,4 km/h (1 Bft) W 262 0 min 0,000 mm 0,0 UV-I 90 W/m 15,0 C 16,7 C 8,0 km/h (2 Bft) 100,00 %
19.09.2018 08:50 16,7 C 21,7 C 17,2 C 91 % 1019,9 hPa 0,0 l/m 4,5 km/h (1 Bft) W 268 0 min 0,000 mm 0,0 UV-I 93 W/m 15,2 C 16,7 C 6,4 km/h (2 Bft) 100,00 %
19.09.2018 08:52 16,7 C 21,7 C 17,8 C 91 % 1019,9 hPa 0,0 l/m 6,1 km/h (2 Bft) W 259 0 min 0,000 mm 0,0 UV-I 100 W/m 15,2 C 16,7 C 12,9 km/h (3 Bft) 100,00 %
19.09.2018 08:54 16,8 C 21,7 C 17,8 C 90 % 1019,9 hPa 0,0 l/m 7,0 km/h (2 Bft) W-SW 248 0 min 0,000 mm 0,0 UV-I 105 W/m 15,1 C 16,5 C 9,7 km/h (2 Bft) 100,00 %
19.09.2018 08:56 16,8 C 21,7 C 17,8 C 90 % 1019,9 hPa 0,0 l/m 6,1 km/h (2 Bft) W 274 0 min 0,000 mm 0,0 UV-I 104 W/m 15,1 C 16,8 C 11,3 km/h (2 Bft) 100,00 %
19.09.2018 08:58 16,8 C 21,7 C 17,8 C 90 % 1020,0 hPa 0,0 l/m 6,7 km/h (2 Bft) SW 236 0 min 0,000 mm 0,0 UV-I 105 W/m 15,1 C 16,7 C 9,7 km/h (2 Bft) 100,00 %
19.09.2018 09:00 16,8 C 21,7 C 17,8 C 90 % 1019,9 hPa 0,0 l/m 6,7 km/h (2 Bft) W 281 0 min 0,000 mm 0,0 UV-I 109 W/m 15,1 C 16,7 C 11,3 km/h (2 Bft) 97,73 %
19.09.2018 09:02 16,9 C 21,7 C 17,8 C 90 % 1020,0 hPa 0,0 l/m 6,1 km/h (2 Bft) W-SW 251 0 min 0,050 mm 0,0 UV-I 113 W/m 15,2 C 16,9 C 9,7 km/h (2 Bft) 100,00 %
19.09.2018 09:04 16,9 C 21,7 C 17,8 C 90 % 1020,0 hPa 0,0 l/m 7,6 km/h (2 Bft) S-SW 213 0 min 0,000 mm 0,0 UV-I 117 W/m 15,2 C 16,3 C 11,3 km/h (2 Bft) 97,87 %
19.09.2018 09:06 16,9 C 21,7 C 17,8 C 90 % 1020,0 hPa 0,0 l/m 6,0 km/h (2 Bft) W 261 0 min 0,000 mm 0,0 UV-I 117 W/m 15,2 C 16,9 C 9,7 km/h (2 Bft) 100,00 %
19.09.2018 09:08 16,9 C 21,7 C 18,3 C 90 % 1020,0 hPa 0,0 l/m 4,6 km/h (1 Bft) SW 234 0 min 0,000 mm 0,0 UV-I 116 W/m 15,2 C 16,9 C 6,4 km/h (2 Bft) 100,00 %
19.09.2018 09:10 17,0 C 21,7 C 18,3 C 90 % 1020,1 hPa 0,0 l/m 4,4 km/h (1 Bft) SW 215 0 min 0,000 mm 0,0 UV-I 120 W/m 15,3 C 17,0 C 6,4 km/h (2 Bft) 100,00 %
19.09.2018 09:12 17,0 C 21,7 C 18,3 C 90 % 1020,1 hPa 0,0 l/m 5,1 km/h (1 Bft) W-SW 238 0 min 0,000 mm 0,4 UV-I 122 W/m 15,3 C 17,0 C 9,7 km/h (2 Bft) 100,00 %
19.09.2018 09:14 17,1 C 21,7 C 18,3 C 90 % 1020,1 hPa 0,0 l/m 6,9 km/h (2 Bft) W-SW 244 0 min 0,000 mm 0,5 UV-I 123 W/m 15,4 C 16,9 C 11,3 km/h (2 Bft) 100,00 %
19.09.2018 09:16 17,1 C 21,7 C 18,3 C 89 % 1020,1 hPa 0,0 l/m 5,5 km/h (1 Bft) W-SW 243 0 min 0,000 mm 0,5 UV-I 122 W/m 15,3 C 17,1 C 8,0 km/h (2 Bft) 100,00 %
19.09.2018 09:18 17,1 C 21,7 C 18,3 C 90 % 1020,1 hPa 0,0 l/m 5,5 km/h (1 Bft) W 259 0 min 0,000 mm 0,5 UV-I 121 W/m 15,4 C 17,1 C 9,7 km/h (2 Bft) 97,87 %
19.09.2018 09:20 17,1 C 21,7 C 18,3 C 89 % 1020,1 hPa 0,0 l/m 6,1 km/h (2 Bft) W 264 0 min 0,000 mm 0,5 UV-I 122 W/m 15,3 C 17,1 C 11,3 km/h (2 Bft) 97,37 %
19.09.2018 09:22 17,1 C 21,7 C 18,3 C 90 % 1020,1 hPa 0,0 l/m 3,4 km/h (1 Bft) W-SW 237 0 min 0,000 mm 0,5 UV-I 123 W/m 15,4 C 17,1 C 4,8 km/h (1 Bft) 100,00 %
19.09.2018 09:24 17,1 C 21,7 C 18,3 C 89 % 1020,1 hPa 0,0 l/m 2,0 km/h (1 Bft) W-SW 237 0 min 0,000 mm 0,6 UV-I 125 W/m 15,3 C 17,1 C 4,8 km/h (1 Bft) 97,87 %
19.09.2018 09:26 17,2 C 21,7 C 18,9 C 89 % 1020,1 hPa 0,0 l/m 4,7 km/h (1 Bft) W-SW 251 0 min 0,000 mm 0,6 UV-I 131 W/m 15,4 C 17,2 C 6,4 km/h (2 Bft) 96,23 %
19.09.2018 09:28 17,2 C 21,7 C 18,9 C 89 % 1020,2 hPa 0,0 l/m 4,5 km/h (1 Bft) W-SW 244 0 min 0,000 mm 0,6 UV-I 135 W/m 15,4 C 17,2 C 6,4 km/h (2 Bft) 97,56 %
19.09.2018 09:30 17,2 C 21,7 C 18,9 C 89 % 1020,2 hPa 0,0 l/m 3,8 km/h (1 Bft) W-SW 256 0 min 0,000 mm 0,6 UV-I 136 W/m 15,4 C 17,2 C 6,4 km/h (2 Bft) 95,74 %
19.09.2018 09:32 17,3 C 21,7 C 18,9 C 89 % 1020,3 hPa 0,0 l/m 4,2 km/h (1 Bft) SW 234 0 min 0,000 mm 0,7 UV-I 135 W/m 15,5 C 17,3 C 6,4 km/h (2 Bft) 98,11 %
19.09.2018 09:34 17,3 C 21,7 C 18,9 C 89 % 1020,1 hPa 0,0 l/m 4,0 km/h (1 Bft) SW 229 0 min 0,000 mm 0,7 UV-I 139 W/m 15,5 C 17,3 C 4,8 km/h (1 Bft) 95,83 %
19.09.2018 09:36 17,3 C 21,7 C 18,9 C 89 % 1020,2 hPa 0,0 l/m 5,1 km/h (1 Bft) SW 232 0 min 0,000 mm 0,7 UV-I 144 W/m 15,5 C 17,3 C 9,7 km/h (2 Bft) 98,39 %
19.09.2018 09:38 17,3 C 21,7 C 18,9 C 88 % 1020,2 hPa 0,0 l/m 3,8 km/h (1 Bft) W-SW 253 0 min 0,000 mm 0,8 UV-I 154 W/m 15,3 C 17,3 C 6,4 km/h (2 Bft) 93,62 %
19.09.2018 09:40 17,3 C 21,7 C 19,4 C 89 % 1020,2 hPa 0,0 l/m 3,2 km/h (1 Bft) W-SW 254 0 min 0,000 mm 0,8 UV-I 169 W/m 15,5 C 17,3 C 4,8 km/h (1 Bft) 97,87 %
19.09.2018 09:42 17,4 C 21,7 C 20,0 C 89 % 1020,3 hPa 0,0 l/m 4,1 km/h (1 Bft) W-SW 242 0 min 0,000 mm 0,8 UV-I 175 W/m 15,6 C 17,4 C 6,4 km/h (2 Bft) 96,23 %
19.09.2018 09:44 17,4 C 21,7 C 20,0 C 88 % 1020,3 hPa 0,0 l/m 4,4 km/h (1 Bft) SW 221 0 min 0,000 mm 0,8 UV-I 181 W/m 15,4 C 17,4 C 8,0 km/h (2 Bft) 97,37 %
19.09.2018 09:46 17,6 C 21,7 C 20,6 C 88 % 1020,3 hPa 0,0 l/m 5,1 km/h (1 Bft) W-SW 244 0 min 0,000 mm 0,9 UV-I 199 W/m 15,6 C 17,6 C 8,0 km/h (2 Bft) 100,00 %
19.09.2018 09:48 17,6 C 21,7 C 20,6 C 89 % 1020,3 hPa 0,0 l/m 5,4 km/h (1 Bft) SW 227 0 min 0,000 mm 0,9 UV-I 256 W/m 15,8 C 17,6 C 8,0 km/h (2 Bft) 100,00 %
19.09.2018 09:50 17,6 C 21,7 C 21,1 C 88 % 1020,4 hPa 0,0 l/m 4,4 km/h (1 Bft) W-SW 252 0 min 0,000 mm 0,9 UV-I 247 W/m 15,6 C 17,6 C 6,4 km/h (2 Bft) 100,00 %
19.09.2018 09:52 17,7 C 21,7 C 21,1 C 88 % 1020,3 hPa 0,0 l/m 5,1 km/h (1 Bft) SW 234 0 min 0,000 mm 0,9 UV-I 251 W/m 15,7 C 17,7 C 8,0 km/h (2 Bft) 100,00 %
19.09.2018 09:54 17,7 C 21,7 C 21,7 C 88 % 1020,4 hPa 0,0 l/m 3,7 km/h (1 Bft) SW 223 0 min 0,000 mm 0,9 UV-I 244 W/m 15,7 C 17,7 C 4,8 km/h (1 Bft) 96,23 %
19.09.2018 09:56 17,8 C 21,7 C 21,7 C 87 % 1020,4 hPa 0,0 l/m 5,4 km/h (1 Bft) SW 234 0 min 0,000 mm 0,8 UV-I 211 W/m 15,6 C 17,8 C 8,0 km/h (2 Bft) 100,00 %
19.09.2018 09:58 17,8 C 21,7 C 21,1 C 87 % 1020,4 hPa 0,0 l/m 5,2 km/h (1 Bft) SW 227 0 min 0,000 mm 0,8 UV-I 197 W/m 15,6 C 17,8 C 6,4 km/h (2 Bft) 97,87 %
19.09.2018 10:00 17,8 C 21,7 C 21,7 C 87 % 1020,4 hPa 0,0 l/m 3,7 km/h (1 Bft) SW 234 0 min 0,102 mm 0,8 UV-I 202 W/m 15,6 C 17,8 C 6,4 km/h (2 Bft) 97,73 %
19.09.2018 10:02 17,9 C 21,7 C 21,7 C 87 % 1020,4 hPa 0,0 l/m 4,8 km/h (1 Bft) W 259 0 min 0,000 mm 0,8 UV-I 192 W/m 15,7 C 17,9 C 6,4 km/h (2 Bft) 98,00 %
19.09.2018 10:04 17,9 C 21,7 C 21,1 C 86 % 1020,4 hPa 0,0 l/m 3,0 km/h (1 Bft) W 265 0 min 0,000 mm 0,7 UV-I 182 W/m 15,5 C 17,9 C 6,4 km/h (2 Bft) 95,74 %
19.09.2018 10:06 17,9 C 21,7 C 21,1 C 86 % 1020,4 hPa 0,0 l/m 3,8 km/h (1 Bft) W 259 0 min 0,000 mm 0,7 UV-I 175 W/m 15,5 C 17,9 C 4,8 km/h (1 Bft) 96,00 %
19.09.2018 10:08 17,9 C 21,7 C 21,1 C 86 % 1020,4 hPa 0,0 l/m 3,6 km/h (1 Bft) W 259 0 min 0,000 mm 0,7 UV-I 169 W/m 15,5 C 17,9 C 4,8 km/h (1 Bft) 96,30 %
19.09.2018 10:10 17,8 C 21,7 C 20,6 C 86 % 1020,4 hPa 0,0 l/m 2,3 km/h (1 Bft) W-SW 258 0 min 0,000 mm 0,7 UV-I 166 W/m 15,4 C 17,8 C 4,8 km/h (1 Bft) 98,39 %
19.09.2018 10:12 17,8 C 21,7 C 20,6 C 87 % 1020,4 hPa 0,0 l/m 3,0 km/h (1 Bft) W-SW 257 0 min 0,000 mm 0,7 UV-I 165 W/m 15,6 C 17,8 C 4,8 km/h (1 Bft) 97,87 %
19.09.2018 10:14 18,0 C 21,7 C 21,1 C 88 % 1020,5 hPa 0,0 l/m 3,4 km/h (1 Bft) W-SW 257 0 min 0,000 mm 0,7 UV-I 167 W/m 16,0 C 18,0 C 4,8 km/h (1 Bft) 97,73 %
19.09.2018 10:16 18,1 C 21,7 C 20,6 C 87 % 1020,4 hPa 0,0 l/m 3,8 km/h (1 Bft) W-SW 243 0 min 0,000 mm 0,7 UV-I 165 W/m 15,9 C 18,1 C 6,4 km/h (2 Bft) 96,00 %
19.09.2018 10:18 18,1 C 21,7 C 20,6 C 86 % 1020,4 hPa 0,0 l/m 3,4 km/h (1 Bft) W-SW 243 0 min 0,000 mm 0,7 UV-I 167 W/m 15,7 C 18,1 C 4,8 km/h (1 Bft) 93,62 %
19.09.2018 10:20 18,1 C 21,7 C 20,6 C 87 % 1020,3 hPa 0,0 l/m 3,1 km/h (1 Bft) W-SW 242 0 min 0,000 mm 0,7 UV-I 167 W/m 15,9 C 18,1 C 6,4 km/h (2 Bft) 98,00 %
19.09.2018 10:22 18,1 C 21,7 C 20,6 C 86 % 1020,4 hPa 0,0 l/m 3,4 km/h (1 Bft) W-SW 243 0 min 0,000 mm 0,7 UV-I 161 W/m 15,7 C 18,1 C 4,8 km/h (1 Bft) 96,00 %
19.09.2018 10:24 18,3 C 21,7 C 21,1 C 86 % 1020,4 hPa 0,0 l/m 4,3 km/h (1 Bft) SW 232 0 min 0,000 mm 0,7 UV-I 151 W/m 15,9 C 18,3 C 6,4 km/h (2 Bft) 95,74 %
19.09.2018 10:26 18,2 C 21,7 C 20,6 C 86 % 1020,5 hPa 0,0 l/m 2,9 km/h (1 Bft) SW 231 0 min 0,000 mm 0,6 UV-I 142 W/m 15,8 C 18,2 C 6,4 km/h (2 Bft) 91,30 %
19.09.2018 10:28 18,2 C 21,7 C 20,6 C 86 % 1020,5 hPa 0,0 l/m 2,3 km/h (1 Bft) SW 229 0 min 0,000 mm 0,6 UV-I 130 W/m 15,8 C 18,2 C 4,8 km/h (1 Bft) 95,38 %
19.09.2018 10:30 18,2 C 21,7 C 20,6 C 86 % 1020,5 hPa 0,0 l/m 2,0 km/h (1 Bft) SW 230 0 min 0,000 mm 0,5 UV-I 124 W/m 15,8 C 18,2 C 4,8 km/h (1 Bft) 97,87 %
19.09.2018 10:32 18,2 C 21,7 C 20,0 C 86 % 1020,5 hPa 0,0 l/m 4,3 km/h (1 Bft) SW 229 0 min 0,000 mm 0,5 UV-I 123 W/m 15,8 C 18,2 C 6,4 km/h (2 Bft) 97,87 %
19.09.2018 10:34 18,2 C 21,7 C 20,0 C 85 % 1020,5 hPa 0,0 l/m 2,7 km/h (1 Bft) SW 230 0 min 0,000 mm 0,5 UV-I 121 W/m 15,6 C 18,2 C 4,8 km/h (1 Bft) 98,00 %
19.09.2018 10:36 18,1 C 21,7 C 20,0 C 85 % 1020,5 hPa 0,0 l/m 1,6 km/h (1 Bft) SW 229 0 min 0,000 mm 0,5 UV-I 120 W/m 15,5 C 18,1 C 3,2 km/h (1 Bft) 95,74 %
19.09.2018 10:38 18,1 C 21,7 C 20,0 C 86 % 1020,5 hPa 0,0 l/m 0,3 km/h (0 Bft) SW 230 0 min 0,000 mm 0,5 UV-I 120 W/m 15,7 C 18,1 C 1,6 km/h (1 Bft) 97,87 %
19.09.2018 10:40 18,2 C 21,7 C 20,0 C 86 % 1020,5 hPa 0,0 l/m 1,7 km/h (1 Bft) SW 230 0 min 0,000 mm 0,5 UV-I 121 W/m 15,8 C 18,2 C 3,2 km/h (1 Bft) 97,56 %
19.09.2018 10:42 18,2 C 21,7 C 20,0 C 85 % 1020,5 hPa 0,0 l/m 0,9 km/h (0 Bft) SW 229 0 min 0,000 mm 0,5 UV-I 121 W/m 15,6 C 18,2 C 3,2 km/h (1 Bft) 95,74 %
19.09.2018 10:44 18,1 C 21,7 C 20,0 C 85 % 1020,6 hPa 0,0 l/m 0,4 km/h (0 Bft) SW 230 0 min 0,000 mm 0,5 UV-I 121 W/m 15,5 C 18,1 C 1,6 km/h (1 Bft) 97,87 %
19.09.2018 10:46 18,2 C 21,7 C 20,0 C 86 % 1020,5 hPa 0,0 l/m 0,7 km/h (0 Bft) SW 230 0 min 0,000 mm 0,5 UV-I 117 W/m 15,8 C 18,2 C 1,6 km/h (1 Bft) 97,44 %
19.09.2018 10:48 18,2 C 21,7 C 20,0 C 85 % 1020,5 hPa 0,0 l/m 0,3 km/h (0 Bft) SW 230 0 min 0,000 mm 0,5 UV-I 116 W/m 15,6 C 18,2 C 3,2 km/h (1 Bft) 98,21 %
19.09.2018 10:50 18,2 C 21,7 C 20,0 C 86 % 1020,6 hPa 0,0 l/m 1,8 km/h (1 Bft) SW 230 0 min 0,000 mm 0,5 UV-I 113 W/m 15,8 C 18,2 C 3,2 km/h (1 Bft) 98,00 %
19.09.2018 10:52 18,2 C 21,7 C 20,0 C 85 % 1020,6 hPa 0,0 l/m 1,2 km/h (1 Bft) SW 229 0 min 0,000 mm 0,5 UV-I 110 W/m 15,6 C 18,2 C 3,2 km/h (1 Bft) 93,62 %
19.09.2018 10:54 18,2 C 21,7 C 20,0 C 85 % 1020,6 hPa 0,0 l/m 0,0 km/h (0 Bft) W-SW 253 0 min 0,000 mm 0,5 UV-I 110 W/m 15,6 C 18,2 C 1,6 km/h (1 Bft) 95,74 %
19.09.2018 10:56 18,2 C 21,7 C 20,0 C 85 % 1020,6 hPa 0,0 l/m 0,0 km/h (0 Bft) W-SW 253 0 min 0,000 mm 0,6 UV-I 112 W/m 15,6 C 18,2 C 0,0 km/h (0 Bft) 95,74 %
19.09.2018 10:58 18,3 C 21,7 C 20,0 C 86 % 1020,6 hPa 0,0 l/m 0,8 km/h (0 Bft) W-SW 253 0 min 0,000 mm 0,6 UV-I 116 W/m 15,9 C 18,3 C 1,6 km/h (1 Bft) 95,12 %
19.09.2018 11:00 18,3 C 21,7 C 20,0 C 85 % 1020,7 hPa 0,0 l/m 0,3 km/h (0 Bft) W-SW 252 0 min 0,076 mm 0,6 UV-I 122 W/m 15,7 C 18,3 C 1,6 km/h (1 Bft) 94,00 %
19.09.2018 11:02 18,3 C 21,7 C 20,6 C 85 % 1020,7 hPa 0,0 l/m 0,0 km/h (0 Bft) W-SW 252 0 min 0,000 mm 0,7 UV-I 127 W/m 15,7 C 18,3 C 1,6 km/h (1 Bft) 93,62 %
19.09.2018 11:04 18,3 C 21,7 C 20,6 C 84 % 1020,6 hPa 0,0 l/m 0,7 km/h (0 Bft) W-SW 254 0 min 0,000 mm 0,7 UV-I 134 W/m 15,5 C 18,3 C 1,6 km/h (1 Bft) 96,23 %
19.09.2018 11:06 18,3 C 21,7 C 20,6 C 85 % 1020,6 hPa 0,0 l/m 0,6 km/h (0 Bft) W-SW 254 0 min 0,000 mm 0,8 UV-I 142 W/m 15,7 C 18,3 C 3,2 km/h (1 Bft) 94,74 %
19.09.2018 11:08 18,4 C 21,7 C 20,6 C 86 % 1020,7 hPa 0,0 l/m 1,6 km/h (1 Bft) W-SW 254 0 min 0,000 mm 0,8 UV-I 148 W/m 16,0 C 18,4 C 3,2 km/h (1 Bft) 94,34 %
19.09.2018 11:10 18,4 C 21,7 C 20,6 C 85 % 1020,7 hPa 0,0 l/m 0,8 km/h (0 Bft) W-SW 254 0 min 0,000 mm 0,8 UV-I 152 W/m 15,8 C 18,4 C 3,2 km/h (1 Bft) 95,74 %
19.09.2018 11:12 18,5 C 21,7 C 21,1 C 85 % 1020,7 hPa 0,0 l/m 0,8 km/h (0 Bft) W-SW 254 0 min 0,000 mm 0,9 UV-I 158 W/m 15,9 C 18,5 C 1,6 km/h (1 Bft) 95,45 %
19.09.2018 11:14 18,5 C 21,7 C 21,1 C 86 % 1020,7 hPa 0,0 l/m 1,4 km/h (1 Bft) W-SW 254 0 min 0,000 mm 1,0 UV-I 165 W/m 16,1 C 18,5 C 3,2 km/h (1 Bft) 93,62 %
19.09.2018 11:16 18,6 C 21,7 C 21,1 C 85 % 1020,7 hPa 0,0 l/m 1,1 km/h (1 Bft) W-SW 254 0 min 0,000 mm 1,0 UV-I 173 W/m 16,0 C 18,6 C 1,6 km/h (1 Bft) 98,00 %
19.09.2018 11:18 18,6 C 21,7 C 21,1 C 86 % 1020,6 hPa 0,0 l/m 2,0 km/h (1 Bft) W-NW 296 0 min 0,000 mm 1,1 UV-I 182 W/m 16,2 C 18,6 C 4,8 km/h (1 Bft) 95,74 %
19.09.2018 11:20 18,6 C 21,7 C 21,1 C 85 % 1020,6 hPa 0,0 l/m 1,2 km/h (1 Bft) W-NW 296 0 min 0,000 mm 1,2 UV-I 193 W/m 16,0 C 18,6 C 3,2 km/h (1 Bft) 97,56 %
19.09.2018 11:22 18,6 C 21,7 C 21,7 C 86 % 1020,6 hPa 0,0 l/m 2,6 km/h (1 Bft) N 9 0 min 0,000 mm 1,2 UV-I 200 W/m 16,2 C 18,6 C 4,8 km/h (1 Bft) 97,62 %
19.09.2018 11:24 18,6 C 21,7 C 21,7 C 85 % 1020,6 hPa 0,0 l/m 2,9 km/h (1 Bft) N 9 0 min 0,000 mm 1,2 UV-I 205 W/m 16,0 C 18,6 C 4,8 km/h (1 Bft) 96,00 %
19.09.2018 11:26 18,7 C 21,7 C 21,7 C 86 % 1020,6 hPa 0,0 l/m 2,9 km/h (1 Bft) N 9 0 min 0,000 mm 1,3 UV-I 210 W/m 16,3 C 18,7 C 4,8 km/h (1 Bft) 98,08 %
19.09.2018 11:29 18,7 C 21,7 C 22,2 C 86 % 1020,6 hPa 0,0 l/m 1,5 km/h (1 Bft) N 9 0 min 0,000 mm 1,3 UV-I 223 W/m 16,3 C 18,7 C 3,2 km/h (1 Bft) 98,59 %
19.09.2018 11:30 18,7 C 21,7 C 22,2 C 85 % 1020,6 hPa 0,0 l/m 0,0 km/h (0 Bft) N 9 0 min 0,000 mm 1,4 UV-I 231 W/m 16,1 C 18,7 C 0,0 km/h (0 Bft) 95,83 %
19.09.2018 11:32 18,8 C 21,7 C 22,8 C 85 % 1020,6 hPa 0,0 l/m 0,1 km/h (0 Bft) N 9 0 min 0,000 mm 1,4 UV-I 232 W/m 16,2 C 18,8 C 1,6 km/h (1 Bft) 98,00 %
19.09.2018 11:34 18,8 C 21,7 C 22,8 C 85 % 1020,5 hPa 0,0 l/m 0,9 km/h (0 Bft) N 9 0 min 0,000 mm 1,4 UV-I 231 W/m 16,2 C 18,8 C 1,6 km/h (1 Bft) 100,00 %
19.09.2018 11:36 18,9 C 21,7 C 22,8 C 84 % 1020,5 hPa 0,0 l/m 0,0 km/h (0 Bft) N 9 0 min 0,000 mm 1,4 UV-I 229 W/m 16,1 C 18,9 C 0,0 km/h (0 Bft) 95,74 %
19.09.2018 11:38 18,9 C 21,7 C 22,8 C 84 % 1020,6 hPa 0,0 l/m 0,1 km/h (0 Bft) N 9 0 min 0,000 mm 1,3 UV-I 227 W/m 16,1 C 18,9 C 1,6 km/h (1 Bft) 95,74 %
19.09.2018 11:40 19,1 C 21,7 C 23,3 C 84 % 1020,6 hPa 0,0 l/m 0,8 km/h (0 Bft) N 9 0 min 0,000 mm 1,3 UV-I 225 W/m 16,3 C 19,1 C 1,6 km/h (1 Bft) 100,00 %
19.09.2018 11:42 19,2 C 21,7 C 23,3 C 83 % 1020,6 hPa 0,0 l/m 0,0 km/h (0 Bft) N 9 0 min 0,000 mm 1,4 UV-I 229 W/m 16,2 C 19,2 C 0,0 km/h (0 Bft) 97,14 %
19.09.2018 11:44 19,2 C 21,7 C 23,3 C 82 % 1020,6 hPa 0,0 l/m 0,0 km/h (0 Bft) N 9 0 min 0,000 mm 1,4 UV-I 232 W/m 16,0 C 19,2 C 0,0 km/h (0 Bft) 100,00 %
19.09.2018 11:46 19,2 C 21,7 C 23,3 C 82 % 1020,5 hPa 0,0 l/m 0,0 km/h (0 Bft) N 9 0 min 0,000 mm 1,4 UV-I 229 W/m 16,0 C 19,2 C 0,0 km/h (0 Bft) 100,00 %
19.09.2018 11:48 19,2 C 21,7 C 23,3 C 82 % 1020,6 hPa 0,0 l/m 0,0 km/h (0 Bft) N 9 0 min 0,000 mm 1,3 UV-I 218 W/m 16,0 C 19,2 C 0,0 km/h (0 Bft) 100,00 %
19.09.2018 11:50 19,2 C 21,7 C 22,8 C 81 % 1020,6 hPa 0,0 l/m 0,0 km/h (0 Bft) N 9 0 min 0,000 mm 1,3 UV-I 209 W/m 15,9 C 19,2 C 0,0 km/h (0 Bft) 100,00 %
19.09.2018 11:52 19,3 C 21,7 C 23,3 C 82 % 1020,5 hPa 0,0 l/m 0,0 km/h (0 Bft) N 9 0 min 0,000 mm 1,3 UV-I 204 W/m 16,1 C 19,3 C 0,0 km/h (0 Bft) 100,00 %
19.09.2018 11:54 19,3 C 21,7 C 23,3 C 81 % 1020,5 hPa 0,0 l/m 0,4 km/h (0 Bft) N 10 0 min 0,000 mm 1,3 UV-I 205 W/m 16,0 C 19,3 C 1,6 km/h (1 Bft) 98,00 %
19.09.2018 11:56 19,2 C 21,7 C 23,3 C 80 % 1020,5 hPa 0,0 l/m 1,4 km/h (1 Bft) N 9 0 min 0,000 mm 1,3 UV-I 207 W/m 15,7 C 19,2 C 3,2 km/h (1 Bft) 97,56 %
19.09.2018 11:58 19,2 C 21,7 C 23,3 C 81 % 1020,5 hPa 0,0 l/m 0,0 km/h (0 Bft) N 9 0 min 0,000 mm 1,3 UV-I 205 W/m 15,9 C 19,2 C 1,6 km/h (1 Bft) 97,87 %
19.09.2018 12:00 19,2 C 21,7 C 23,3 C 82 % 1020,5 hPa 0,0 l/m 0,0 km/h (0 Bft) N 9 0 min 0,127 mm 1,3 UV-I 200 W/m 16,0 C 19,2 C 0,0 km/h (0 Bft) 96,43 %
19.09.2018 12:02 19,3 C 21,7 C 23,3 C 82 % 1020,5 hPa 0,0 l/m 2,1 km/h (1 Bft) N 9 0 min 0,000 mm 1,3 UV-I 199 W/m 16,1 C 19,3 C 3,2 km/h (1 Bft) 97,22 %
19.09.2018 12:04 19,4 C 21,7 C 22,8 C 82 % 1020,5 hPa 0,0 l/m 1,8 km/h (1 Bft) N-NO 12 0 min 0,000 mm 1,4 UV-I 206 W/m 16,2 C 19,4 C 3,2 km/h (1 Bft) 98,08 %
19.09.2018 12:06 19,4 C 21,7 C 22,8 C 81 % 1020,5 hPa 0,0 l/m 1,5 km/h (1 Bft) N 11 0 min 0,000 mm 1,4 UV-I 215 W/m 16,1 C 19,4 C 3,2 km/h (1 Bft) 100,00 %
19.09.2018 12:08 19,5 C 21,7 C 22,8 C 81 % 1020,5 hPa 0,0 l/m 2,5 km/h (1 Bft) N-NW 342 0 min 0,000 mm 1,4 UV-I 221 W/m 16,1 C 19,5 C 4,8 km/h (1 Bft) 98,00 %
19.09.2018 12:10 19,5 C 21,7 C 22,8 C 81 % 1020,5 hPa 0,0 l/m 2,3 km/h (1 Bft) N-NW 342 0 min 0,000 mm 1,4 UV-I 221 W/m 16,1 C 19,5 C 3,2 km/h (1 Bft) 97,87 %
19.09.2018 12:12 19,5 C 21,7 C 23,3 C 81 % 1020,5 hPa 0,0 l/m 0,2 km/h (0 Bft) N-NW 342 0 min 0,000 mm 1,4 UV-I 222 W/m 16,1 C 19,5 C 1,6 km/h (1 Bft) 97,87 %
19.09.2018 12:14 19,6 C 21,7 C 23,3 C 81 % 1020,5 hPa 0,0 l/m 0,0 km/h (0 Bft) N-NW 342 0 min 0,000 mm 1,4 UV-I 221 W/m 16,2 C 19,6 C 0,0 km/h (0 Bft) 98,00 %
19.09.2018 12:16 19,7 C 21,7 C 23,3 C 81 % 1020,5 hPa 0,0 l/m 1,0 km/h (0 Bft) N-NW 345 0 min 0,000 mm 1,4 UV-I 227 W/m 16,3 C 19,7 C 3,2 km/h (1 Bft) 97,87 %
19.09.2018 12:18 19,8 C 21,7 C 23,9 C 80 % 1020,5 hPa 0,0 l/m 1,8 km/h (1 Bft) N-NW 345 0 min 0,000 mm 1,5 UV-I 238 W/m 16,2 C 19,8 C 3,2 km/h (1 Bft) 96,00 %
19.09.2018 12:20 19,8 C 21,7 C 23,9 C 80 % 1020,5 hPa 0,0 l/m 0,5 km/h (0 Bft) N-NW 345 0 min 0,000 mm 1,6 UV-I 250 W/m 16,2 C 19,8 C 3,2 km/h (1 Bft) 97,56 %
19.09.2018 12:22 19,8 C 21,7 C 23,9 C 80 % 1020,5 hPa 0,0 l/m 0,1 km/h (0 Bft) N-NW 345 0 min 0,000 mm 1,7 UV-I 261 W/m 16,2 C 19,8 C 1,6 km/h (1 Bft) 95,74 %
19.09.2018 12:24 19,8 C 21,7 C 24,4 C 80 % 1020,5 hPa 0,0 l/m 1,4 km/h (1 Bft) NO 48 0 min 0,000 mm 1,8 UV-I 278 W/m 16,2 C 19,8 C 3,2 km/h (1 Bft) 94,64 %
19.09.2018 12:26 19,8 C 21,7 C 24,4 C 81 % 1020,5 hPa 0,0 l/m 2,7 km/h (1 Bft) NO 48 0 min 0,000 mm 1,9 UV-I 283 W/m 16,4 C 19,8 C 4,8 km/h (1 Bft) 100,00 %
19.09.2018 12:28 19,8 C 21,7 C 23,9 C 80 % 1020,4 hPa 0,0 l/m 2,2 km/h (1 Bft) N-NO 32 0 min 0,000 mm 1,9 UV-I 280 W/m 16,2 C 19,8 C 3,2 km/h (1 Bft) 95,74 %
19.09.2018 12:30 19,8 C 21,7 C 23,9 C 80 % 1020,4 hPa 0,0 l/m 2,0 km/h (1 Bft) NO 39 0 min 0,000 mm 2,0 UV-I 281 W/m 16,2 C 19,8 C 4,8 km/h (1 Bft) 98,21 %
19.09.2018 12:32 19,7 C 21,7 C 24,4 C 79 % 1020,4 hPa 0,0 l/m 1,5 km/h (1 Bft) NO 39 0 min 0,000 mm 2,1 UV-I 302 W/m 16,0 C 19,7 C 3,2 km/h (1 Bft) 97,14 %
19.09.2018 12:34 19,8 C 21,7 C 25,6 C 82 % 1020,3 hPa 0,0 l/m 4,8 km/h (1 Bft) N-NO 24 2 min 0,000 mm 2,6 UV-I 381 W/m 16,6 C 19,8 C 8,0 km/h (2 Bft) 98,11 %
19.09.2018 12:36 20,2 C 21,7 C 27,2 C 83 % 1020,4 hPa 0,0 l/m 5,7 km/h (1 Bft) N-NO 24 2 min 0,000 mm 2,9 UV-I 608 W/m 17,2 C 20,2 C 8,0 km/h (2 Bft) 95,74 %
19.09.2018 12:38 20,4 C 21,7 C 28,9 C 80 % 1020,4 hPa 0,0 l/m 4,7 km/h (1 Bft) N-NO 26 2 min 0,000 mm 3,2 UV-I 711 W/m 16,8 C 20,4 C 6,4 km/h (2 Bft) 95,74 %
19.09.2018 12:40 20,6 C 21,7 C 30,6 C 80 % 1020,4 hPa 0,0 l/m 5,2 km/h (1 Bft) N-NO 24 2 min 0,000 mm 3,3 UV-I 804 W/m 17,0 C 20,6 C 6,4 km/h (2 Bft) 98,00 %
19.09.2018 12:42 20,7 C 22,2 C 30,6 C 77 % 1020,4 hPa 0,0 l/m 1,3 km/h (1 Bft) N-NO 25 2 min 0,000 mm 3,1 UV-I 738 W/m 16,5 C 20,7 C 3,2 km/h (1 Bft) 97,44 %
19.09.2018 12:44 20,9 C 22,2 C 32,8 C 79 % 1020,3 hPa 0,0 l/m 3,3 km/h (1 Bft) O-NO 63 2 min 0,000 mm 3,5 UV-I 698 W/m 17,1 C 20,9 C 6,4 km/h (2 Bft) 98,21 %
19.09.2018 12:46 21,2 C 22,2 C 33,9 C 79 % 1020,3 hPa 0,0 l/m 2,6 km/h (1 Bft) N-NO 15 2 min 0,000 mm 3,6 UV-I 826 W/m 17,4 C 21,2 C 4,8 km/h (1 Bft) 97,87 %
19.09.2018 12:48 21,4 C 22,2 C 33,9 C 78 % 1020,3 hPa 0,0 l/m 4,7 km/h (1 Bft) N-NO 18 2 min 0,000 mm 3,6 UV-I 834 W/m 17,4 C 21,4 C 8,0 km/h (2 Bft) 100,00 %
19.09.2018 12:50 21,7 C 22,2 C 35,0 C 77 % 1020,3 hPa 0,0 l/m 3,6 km/h (1 Bft) NO 34 2 min 0,000 mm 3,6 UV-I 815 W/m 17,5 C 21,7 C 6,4 km/h (2 Bft) 100,00 %
19.09.2018 12:52 21,7 C 22,2 C 33,9 C 74 % 1020,3 hPa 0,0 l/m 4,2 km/h (1 Bft) N-NW 338 2 min 0,000 mm 3,3 UV-I 718 W/m 16,9 C 21,7 C 6,4 km/h (2 Bft) 100,00 %
19.09.2018 12:54 21,4 C 22,2 C 32,2 C 73 % 1020,3 hPa 0,0 l/m 6,2 km/h (2 Bft) N 9 2 min 0,000 mm 3,0 UV-I 497 W/m 16,4 C 21,4 C 11,3 km/h (2 Bft) 100,00 %
19.09.2018 12:56 21,3 C 22,2 C 32,2 C 77 % 1020,3 hPa 0,0 l/m 4,9 km/h (1 Bft) N-NO 31 2 min 0,000 mm 3,3 UV-I 592 W/m 17,1 C 21,3 C 6,4 km/h (2 Bft) 100,00 %
19.09.2018 12:58 21,5 C 22,2 C 32,8 C 77 % 1020,2 hPa 0,0 l/m 8,7 km/h (2 Bft) N-NO 12 2 min 0,000 mm 3,4 UV-I 729 W/m 17,3 C 20,7 C 16,1 km/h (3 Bft) 98,00 %
19.09.2018 13:00 21,6 C 22,2 C 32,8 C 76 % 1020,3 hPa 0,0 l/m 6,1 km/h (2 Bft) NO 44 2 min 0,280 mm 3,4 UV-I 725 W/m 17,2 C 21,6 C 14,5 km/h (3 Bft) 97,37 %
19.09.2018 13:02 21,7 C 22,2 C 33,3 C 76 % 1020,2 hPa 0,0 l/m 5,6 km/h (1 Bft) N-NO 13 2 min 0,000 mm 3,4 UV-I 725 W/m 17,3 C 21,7 C 11,3 km/h (2 Bft) 98,21 %
19.09.2018 13:04 22,0 C 22,2 C 33,3 C 76 % 1020,2 hPa 0,0 l/m 8,2 km/h (2 Bft) N-NO 24 2 min 0,000 mm 3,4 UV-I 717 W/m 17,6 C 21,4 C 14,5 km/h (3 Bft) 100,00 %
19.09.2018 13:06 22,1 C 22,2 C 33,3 C 74 % 1020,2 hPa 0,0 l/m 5,8 km/h (2 Bft) NO 36 2 min 0,000 mm 3,4 UV-I 713 W/m 17,2 C 22,1 C 8,0 km/h (2 Bft) 100,00 %
19.09.2018 13:08 22,3 C 22,2 C 33,9 C 74 % 1020,2 hPa 0,0 l/m 3,5 km/h (1 Bft) N-NO 16 2 min 0,000 mm 3,4 UV-I 707 W/m 17,4 C 22,3 C 6,4 km/h (2 Bft) 100,00 %
19.09.2018 13:10 22,2 C 22,2 C 33,9 C 73 % 1020,1 hPa 0,0 l/m 4,1 km/h (1 Bft) W-NW 291 2 min 0,000 mm 3,4 UV-I 694 W/m 17,1 C 22,2 C 8,0 km/h (2 Bft) 97,87 %
19.09.2018 13:12 22,1 C 22,2 C 33,9 C 71 % 1020,1 hPa 0,0 l/m 2,0 km/h (1 Bft) W-NW 302 2 min 0,000 mm 3,4 UV-I 688 W/m 16,6 C 22,1 C 4,8 km/h (1 Bft) 100,00 %
19.09.2018 13:14 22,2 C 22,2 C 33,9 C 74 % 1020,1 hPa 0,0 l/m 3,2 km/h (1 Bft) N-NW 332 2 min 0,000 mm 3,4 UV-I 680 W/m 17,3 C 22,2 C 8,0 km/h (2 Bft) 100,00 %
19.09.2018 13:16 22,3 C 22,2 C 33,9 C 72 % 1020,1 hPa 0,0 l/m 3,6 km/h (1 Bft) N-NW 338 2 min 0,000 mm 3,3 UV-I 680 W/m 17,0 C 22,3 C 4,8 km/h (1 Bft) 100,00 %
19.09.2018 13:18 22,4 C 22,2 C 34,4 C 72 % 1020,1 hPa 0,0 l/m 3,5 km/h (1 Bft) N-NO 17 2 min 0,000 mm 3,3 UV-I 672 W/m 17,1 C 22,4 C 6,4 km/h (2 Bft) 100,00 %
19.09.2018 13:20 22,3 C 22,2 C 34,4 C 72 % 1020,1 hPa 0,0 l/m 4,7 km/h (1 Bft) N 11 2 min 0,000 mm 3,3 UV-I 662 W/m 17,0 C 22,3 C 11,3 km/h (2 Bft) 100,00 %
19.09.2018 13:22 22,3 C 22,2 C 33,9 C 72 % 1020,0 hPa 0,0 l/m 3,9 km/h (1 Bft) NO 41 2 min 0,000 mm 3,3 UV-I 639 W/m 17,0 C 22,3 C 8,0 km/h (2 Bft) 100,00 %
19.09.2018 13:24 22,4 C 22,2 C 33,9 C 70 % 1020,0 hPa 0,0 l/m 3,1 km/h (1 Bft) N-NW 340 2 min 0,000 mm 2,8 UV-I 652 W/m 16,7 C 22,4 C 6,4 km/h (2 Bft) 100,00 %
19.09.2018 13:26 22,6 C 22,2 C 33,9 C 71 % 1020,0 hPa 0,0 l/m 3,6 km/h (1 Bft) N 355 2 min 0,000 mm 3,0 UV-I 632 W/m 17,1 C 22,6 C 6,4 km/h (2 Bft) 98,11 %
19.09.2018 13:28 22,4 C 22,2 C 34,4 C 67 % 1020,0 hPa 0,0 l/m 2,0 km/h (1 Bft) W-NW 284 2 min 0,000 mm 3,3 UV-I 648 W/m 16,0 C 22,4 C 3,2 km/h (1 Bft) 100,00 %
19.09.2018 13:30 22,6 C 22,2 C 33,9 C 67 % 1020,0 hPa 0,0 l/m 6,3 km/h (2 Bft) W-NW 297 2 min 0,000 mm 3,3 UV-I 643 W/m 16,2 C 22,6 C 11,3 km/h (2 Bft) 100,00 %
19.09.2018 13:32 22,6 C 22,2 C 33,9 C 68 % 1020,0 hPa 0,0 l/m 3,6 km/h (1 Bft) W 273 2 min 0,000 mm 3,3 UV-I 643 W/m 16,4 C 22,6 C 6,4 km/h (2 Bft) 98,00 %
19.09.2018 13:34 22,8 C 22,2 C 33,9 C 68 % 1019,9 hPa 0,0 l/m 3,1 km/h (1 Bft) NW 306 2 min 0,000 mm 3,3 UV-I 642 W/m 16,6 C 22,8 C 4,8 km/h (1 Bft) 100,00 %
19.09.2018 13:36 22,8 C 22,2 C 33,3 C 66 % 1020,0 hPa 0,0 l/m 5,6 km/h (1 Bft) W 263 2 min 0,000 mm 3,2 UV-I 640 W/m 16,1 C 22,8 C 9,7 km/h (2 Bft) 100,00 %
19.09.2018 13:38 22,8 C 22,2 C 33,3 C 67 % 1020,0 hPa 0,0 l/m 7,3 km/h (2 Bft) NW 315 2 min 0,000 mm 3,2 UV-I 638 W/m 16,3 C 22,5 C 11,3 km/h (2 Bft) 97,87 %
19.09.2018 13:40 22,8 C 22,2 C 32,8 C 66 % 1020,0 hPa 0,0 l/m 3,2 km/h (1 Bft) W-NW 298 2 min 0,000 mm 3,2 UV-I 640 W/m 16,1 C 22,8 C 6,4 km/h (2 Bft) 100,00 %
19.09.2018 13:42 22,9 C 22,2 C 33,9 C 69 % 1019,9 hPa 0,0 l/m 1,8 km/h (1 Bft) N 360 2 min 0,000 mm 3,2 UV-I 649 W/m 16,9 C 22,9 C 3,2 km/h (1 Bft) 100,00 %
19.09.2018 13:44 23,2 C 22,2 C 34,4 C 66 % 1019,9 hPa 0,0 l/m 1,4 km/h (1 Bft) N 5 2 min 0,000 mm 3,2 UV-I 647 W/m 16,5 C 23,2 C 6,4 km/h (2 Bft) 100,00 %
19.09.2018 13:46 23,3 C 22,2 C 34,4 C 67 % 1019,9 hPa 0,0 l/m 4,8 km/h (1 Bft) NW 304 2 min 0,000 mm 3,3 UV-I 670 W/m 16,8 C 23,3 C 11,3 km/h (2 Bft) 100,00 %
19.09.2018 13:48 23,3 C 22,2 C 33,3 C 63 % 1019,9 hPa 0,0 l/m 5,5 km/h (1 Bft) N 355 2 min 0,000 mm 3,0 UV-I 546 W/m 15,9 C 23,3 C 11,3 km/h (2 Bft) 100,00 %
19.09.2018 13:50 23,2 C 22,2 C 32,8 C 66 % 1019,9 hPa 0,0 l/m 2,8 km/h (1 Bft) N-NW 338 2 min 0,000 mm 3,0 UV-I 476 W/m 16,5 C 23,2 C 6,4 km/h (2 Bft) 98,00 %
19.09.2018 13:52 23,1 C 22,2 C 32,8 C 65 % 1019,9 hPa 0,0 l/m 3,9 km/h (1 Bft) W-NW 295 2 min 0,000 mm 3,0 UV-I 587 W/m 16,2 C 23,1 C 8,0 km/h (2 Bft) 95,24 %
19.09.2018 13:54 23,1 C 22,2 C 32,8 C 67 % 1019,8 hPa 0,0 l/m 4,2 km/h (1 Bft) N-NO 29 2 min 0,000 mm 3,0 UV-I 564 W/m 16,6 C 23,1 C 8,0 km/h (2 Bft) 96,15 %
19.09.2018 13:56 23,1 C 22,2 C 33,3 C 66 % 1019,9 hPa 0,0 l/m 4,2 km/h (1 Bft) NW 325 2 min 0,000 mm 3,1 UV-I 623 W/m 16,4 C 23,1 C 6,4 km/h (2 Bft) 94,00 %
19.09.2018 13:58 23,1 C 22,2 C 32,8 C 66 % 1019,9 hPa 0,0 l/m 5,7 km/h (1 Bft) N-NO 27 2 min 0,000 mm 3,1 UV-I 647 W/m 16,4 C 23,1 C 9,7 km/h (2 Bft) 94,87 %
19.09.2018 14:00 23,2 C 22,2 C 33,9 C 65 % 1019,9 hPa 0,0 l/m 5,4 km/h (1 Bft) N 5 2 min 0,406 mm 3,1 UV-I 649 W/m 16,2 C 23,2 C 6,4 km/h (2 Bft) 94,00 %
19.09.2018 14:02 23,2 C 22,2 C 33,3 C 65 % 1019,8 hPa 0,0 l/m 4,1 km/h (1 Bft) N-NW 347 2 min 0,000 mm 3,1 UV-I 656 W/m 16,2 C 23,2 C 6,4 km/h (2 Bft) 94,00 %
19.09.2018 14:04 23,3 C 22,2 C 33,3 C 66 % 1019,8 hPa 0,0 l/m 4,5 km/h (1 Bft) N-NO 30 2 min 0,000 mm 3,1 UV-I 644 W/m 16,6 C 23,3 C 9,7 km/h (2 Bft) 95,12 %
19.09.2018 14:06 23,4 C 22,2 C 33,9 C 67 % 1019,9 hPa 0,0 l/m 4,3 km/h (1 Bft) NW 311 2 min 0,000 mm 3,1 UV-I 643 W/m 16,9 C 23,4 C 8,0 km/h (2 Bft) 94,64 %
19.09.2018 14:08 23,3 C 22,2 C 33,9 C 65 % 1019,9 hPa 0,0 l/m 5,7 km/h (1 Bft) N 9 2 min 0,000 mm 3,0 UV-I 647 W/m 16,3 C 23,3 C 11,3 km/h (2 Bft) 95,74 %
19.09.2018 14:10 23,3 C 22,2 C 33,9 C 66 % 1019,9 hPa 0,0 l/m 4,5 km/h (1 Bft) NW 305 2 min 0,000 mm 3,0 UV-I 659 W/m 16,6 C 23,3 C 8,0 km/h (2 Bft) 94,74 %
19.09.2018 14:12 23,4 C 22,2 C 33,9 C 66 % 1019,9 hPa 0,0 l/m 7,6 km/h (2 Bft) N-NO 33 2 min 0,000 mm 3,0 UV-I 657 W/m 16,7 C 23,0 C 14,5 km/h (3 Bft) 95,74 %
19.09.2018 14:14 23,5 C 22,2 C 33,3 C 66 % 1019,8 hPa 0,0 l/m 6,1 km/h (2 Bft) NO 38 2 min 0,000 mm 3,0 UV-I 616 W/m 16,8 C 23,5 C 8,0 km/h (2 Bft) 95,45 %
19.09.2018 14:16 23,6 C 22,2 C 32,2 C 67 % 1019,8 hPa 0,0 l/m 6,4 km/h (2 Bft) N-NW 341 2 min 0,000 mm 2,7 UV-I 495 W/m 17,1 C 23,6 C 8,0 km/h (2 Bft) 94,92 %
19.09.2018 14:18 23,4 C 22,2 C 32,2 C 65 % 1019,8 hPa 0,0 l/m 4,7 km/h (1 Bft) N-NO 30 2 min 0,000 mm 2,8 UV-I 518 W/m 16,4 C 23,4 C 8,0 km/h (2 Bft) 95,12 %
19.09.2018 14:20 23,5 C 22,2 C 32,8 C 67 % 1019,8 hPa 0,0 l/m 3,4 km/h (1 Bft) N 355 2 min 0,000 mm 2,9 UV-I 635 W/m 17,0 C 23,5 C 6,4 km/h (2 Bft) 96,00 %
19.09.2018 14:22 23,6 C 22,2 C 32,2 C 65 % 1019,8 hPa 0,0 l/m 5,8 km/h (2 Bft) W-NW 285 2 min 0,000 mm 2,8 UV-I 660 W/m 16,6 C 23,6 C 11,3 km/h (2 Bft) 100,00 %
19.09.2018 14:24 23,6 C 22,2 C 32,2 C 63 % 1019,8 hPa 0,0 l/m 3,6 km/h (1 Bft) S-SW 212 2 min 0,000 mm 2,5 UV-I 666 W/m 16,1 C 23,6 C 8,0 km/h (2 Bft) 97,87 %
19.09.2018 14:26 23,6 C 22,2 C 31,7 C 62 % 1019,8 hPa 0,0 l/m 5,3 km/h (1 Bft) W 267 2 min 0,000 mm 2,7 UV-I 585 W/m 15,9 C 23,6 C 12,9 km/h (3 Bft) 100,00 %
19.09.2018 14:28 23,5 C 22,2 C 32,2 C 62 % 1019,8 hPa 0,0 l/m 4,2 km/h (1 Bft) NW 315 2 min 0,000 mm 2,6 UV-I 490 W/m 15,8 C 23,5 C 9,7 km/h (2 Bft) 100,00 %
19.09.2018 14:30 23,5 C 22,2 C 31,1 C 62 % 1019,8 hPa 0,0 l/m 2,9 km/h (1 Bft) N-NO 17 2 min 0,000 mm 2,2 UV-I 377 W/m 15,8 C 23,5 C 6,4 km/h (2 Bft) 97,10 %
19.09.2018 14:32 23,3 C 22,2 C 30,6 C 64 % 1019,8 hPa 0,0 l/m 1,8 km/h (1 Bft) N-NO 19 2 min 0,000 mm 2,3 UV-I 347 W/m 16,1 C 23,3 C 4,8 km/h (1 Bft) 100,00 %
19.09.2018 14:34 23,2 C 22,2 C 31,1 C 65 % 1019,8 hPa 0,0 l/m 4,4 km/h (1 Bft) N 355 2 min 0,000 mm 2,6 UV-I 464 W/m 16,2 C 23,2 C 8,0 km/h (2 Bft) 98,11 %
19.09.2018 14:36 23,3 C 22,2 C 30,6 C 65 % 1019,8 hPa 0,0 l/m 4,9 km/h (1 Bft) N-NW 346 2 min 0,000 mm 2,5 UV-I 479 W/m 16,3 C 23,3 C 8,0 km/h (2 Bft) 100,00 %
19.09.2018 14:38 23,3 C 22,2 C 30,6 C 64 % 1019,8 hPa 0,0 l/m 4,5 km/h (1 Bft) N 355 2 min 0,000 mm 2,4 UV-I 450 W/m 16,1 C 23,3 C 8,0 km/h (2 Bft) 100,00 %
19.09.2018 14:40 23,3 C 22,2 C 30,6 C 65 % 1019,9 hPa 0,0 l/m 3,6 km/h (1 Bft) N-NW 347 2 min 0,000 mm 2,6 UV-I 486 W/m 16,3 C 23,3 C 8,0 km/h (2 Bft) 100,00 %
19.09.2018 14:42 23,4 C 22,8 C 31,7 C 65 % 1019,8 hPa 0,0 l/m 3,8 km/h (1 Bft) N-NO 12 2 min 0,000 mm 2,6 UV-I 577 W/m 16,4 C 23,4 C 6,4 km/h (2 Bft) 100,00 %
19.09.2018 14:44 23,6 C 22,8 C 31,1 C 65 % 1019,8 hPa 0,0 l/m 5,9 km/h (2 Bft) NO 49 2 min 0,000 mm 2,5 UV-I 634 W/m 16,6 C 23,6 C 11,3 km/h (2 Bft) 98,21 %
19.09.2018 14:46 23,6 C 22,8 C 30,0 C 64 % 1019,8 hPa 0,0 l/m 5,2 km/h (1 Bft) O-NO 66 2 min 0,000 mm 2,2 UV-I 355 W/m 16,4 C 23,6 C 8,0 km/h (2 Bft) 97,37 %
19.09.2018 14:49 23,4 C 22,8 C 28,9 C 64 % 1019,8 hPa 0,0 l/m 5,3 km/h (1 Bft) N-NW 328 3 min 0,000 mm 2,3 UV-I 378 W/m 16,2 C 23,4 C 11,3 km/h (2 Bft) 96,20 %
19.09.2018 14:50 23,5 C 22,8 C 29,4 C 64 % 1019,8 hPa 0,0 l/m 2,2 km/h (1 Bft) NO 42 1 min 0,000 mm 2,3 UV-I 385 W/m 16,3 C 23,5 C 3,2 km/h (1 Bft) 100,00 %
19.09.2018 14:52 23,6 C 22,8 C 30,6 C 65 % 1019,8 hPa 0,0 l/m 5,0 km/h (1 Bft) NW 321 2 min 0,000 mm 2,4 UV-I 526 W/m 16,6 C 23,6 C 11,3 km/h (2 Bft) 96,00 %
19.09.2018 14:54 23,7 C 22,8 C 31,1 C 63 % 1019,8 hPa 0,0 l/m 3,4 km/h (1 Bft) W 279 2 min 0,000 mm 2,5 UV-I 504 W/m 16,2 C 23,7 C 8,0 km/h (2 Bft) 95,74 %
19.09.2018 14:56 23,9 C 22,8 C 32,2 C 63 % 1019,8 hPa 0,0 l/m 4,8 km/h (1 Bft) N-NO 12 2 min 0,000 mm 2,4 UV-I 554 W/m 16,4 C 23,9 C 6,4 km/h (2 Bft) 96,00 %
19.09.2018 14:58 23,9 C 22,8 C 32,8 C 62 % 1019,7 hPa 0,0 l/m 5,3 km/h (1 Bft) N-NO 26 2 min 0,000 mm 2,3 UV-I 670 W/m 16,2 C 23,9 C 9,7 km/h (2 Bft) 97,87 %
19.09.2018 15:00 24,1 C 22,8 C 33,9 C 64 % 1019,7 hPa 0,0 l/m 4,6 km/h (1 Bft) N-NO 24 2 min 0,356 mm 2,5 UV-I 641 W/m 16,9 C 24,1 C 9,7 km/h (2 Bft) 97,37 %
19.09.2018 15:02 24,2 C 22,8 C 33,3 C 61 % 1019,7 hPa 0,0 l/m 3,2 km/h (1 Bft) W 275 2 min 0,000 mm 2,3 UV-I 631 W/m 16,2 C 24,2 C 8,0 km/h (2 Bft) 96,23 %
19.09.2018 15:04 24,1 C 22,8 C 31,7 C 57 % 1019,7 hPa 0,0 l/m 9,5 km/h (2 Bft) W 270 2 min 0,000 mm 2,0 UV-I 478 W/m 15,0 C 23,3 C 14,5 km/h (3 Bft) 97,56 %
19.09.2018 15:06 23,8 C 22,8 C 30,0 C 56 % 1019,7 hPa 0,0 l/m 4,0 km/h (1 Bft) W-NW 302 0 min 0,000 mm 1,8 UV-I 221 W/m 14,5 C 23,8 C 6,4 km/h (2 Bft) 98,21 %
19.09.2018 15:08 23,6 C 22,8 C 28,3 C 59 % 1019,6 hPa 0,0 l/m 4,4 km/h (1 Bft) W 279 0 min 0,000 mm 1,8 UV-I 263 W/m 15,1 C 23,6 C 6,4 km/h (2 Bft) 93,33 %
19.09.2018 15:10 23,4 C 22,8 C 27,8 C 58 % 1019,7 hPa 0,0 l/m 4,3 km/h (1 Bft) W 267 0 min 0,000 mm 1,8 UV-I 304 W/m 14,7 C 23,4 C 6,4 km/h (2 Bft) 96,88 %
19.09.2018 15:12 23,4 C 22,8 C 28,3 C 60 % 1019,6 hPa 0,0 l/m 5,8 km/h (2 Bft) W 273 2 min 0,000 mm 2,0 UV-I 364 W/m 15,2 C 23,4 C 9,7 km/h (2 Bft) 97,87 %
19.09.2018 15:14 23,4 C 22,8 C 27,8 C 59 % 1019,6 hPa 0,0 l/m 5,0 km/h (1 Bft) W 259 0 min 0,000 mm 1,8 UV-I 304 W/m 14,9 C 23,4 C 6,4 km/h (2 Bft) 97,87 %
19.09.2018 15:16 23,4 C 22,8 C 27,8 C 60 % 1019,6 hPa 0,0 l/m 3,7 km/h (1 Bft) NW 304 0 min 0,000 mm 1,8 UV-I 254 W/m 15,2 C 23,4 C 8,0 km/h (2 Bft) 97,22 %
19.09.2018 15:18 23,4 C 22,8 C 26,7 C 63 % 1019,6 hPa 0,0 l/m 6,4 km/h (2 Bft) N-NO 29 0 min 0,000 mm 1,7 UV-I 229 W/m 15,9 C 23,4 C 11,3 km/h (2 Bft) 98,00 %
19.09.2018 15:20 23,4 C 22,8 C 26,1 C 62 % 1019,6 hPa 0,0 l/m 2,8 km/h (1 Bft) N-NW 327 0 min 0,000 mm 1,6 UV-I 219 W/m 15,7 C 23,4 C 6,4 km/h (2 Bft) 96,00 %
19.09.2018 15:22 23,3 C 22,8 C 26,1 C 62 % 1019,6 hPa 0,0 l/m 1,4 km/h (1 Bft) NW 319 0 min 0,000 mm 1,6 UV-I 229 W/m 15,6 C 23,3 C 3,2 km/h (1 Bft) 97,87 %
19.09.2018 15:24 23,3 C 22,8 C 26,1 C 63 % 1019,6 hPa 0,0 l/m 2,5 km/h (1 Bft) W-NW 300 0 min 0,000 mm 1,6 UV-I 298 W/m 15,9 C 23,3 C 4,8 km/h (1 Bft) 98,00 %
19.09.2018 15:26 23,3 C 22,8 C 26,7 C 62 % 1019,6 hPa 0,0 l/m 1,8 km/h (1 Bft) W-NW 287 2 min 0,000 mm 1,7 UV-I 344 W/m 15,6 C 23,3 C 4,8 km/h (1 Bft) 94,29 %
19.09.2018 15:29 23,6 C 22,8 C 27,2 C 61 % 1019,5 hPa 0,0 l/m 1,5 km/h (1 Bft) SW 236 3 min 0,000 mm 1,8 UV-I 383 W/m 15,6 C 23,6 C 4,8 km/h (1 Bft) 96,05 %
19.09.2018 15:30 23,7 C 22,8 C 27,8 C 62 % 1019,5 hPa 0,0 l/m 1,9 km/h (1 Bft) W-SW 237 1 min 0,000 mm 1,7 UV-I 363 W/m 16,0 C 23,7 C 4,8 km/h (1 Bft) 95,83 %
19.09.2018 15:32 23,7 C 22,8 C 27,8 C 60 % 1019,5 hPa 0,0 l/m 4,7 km/h (1 Bft) W-NW 286 2 min 0,000 mm 1,8 UV-I 401 W/m 15,5 C 23,7 C 9,7 km/h (2 Bft) 96,00 %
19.09.2018 15:34 23,8 C 22,8 C 27,2 C 60 % 1019,5 hPa 0,0 l/m 5,4 km/h (1 Bft) W 265 2 min 0,000 mm 1,7 UV-I 387 W/m 15,6 C 23,8 C 8,0 km/h (2 Bft) 96,00 %
19.09.2018 15:36 23,7 C 22,8 C 27,2 C 59 % 1019,5 hPa 0,0 l/m 5,3 km/h (1 Bft) W 261 2 min 0,000 mm 1,8 UV-I 429 W/m 15,2 C 23,7 C 8,0 km/h (2 Bft) 94,74 %
19.09.2018 15:38 23,7 C 22,8 C 27,2 C 59 % 1019,5 hPa 0,0 l/m 4,5 km/h (1 Bft) NW 306 2 min 0,000 mm 1,8 UV-I 470 W/m 15,2 C 23,7 C 9,7 km/h (2 Bft) 97,87 %
19.09.2018 15:40 23,8 C 22,8 C 27,2 C 59 % 1019,4 hPa 0,0 l/m 5,3 km/h (1 Bft) W-SW 252 2 min 0,000 mm 1,8 UV-I 484 W/m 15,3 C 23,8 C 11,3 km/h (2 Bft) 95,74 %
19.09.2018 15:42 24,0 C 22,8 C 27,2 C 57 % 1019,4 hPa 0,0 l/m 7,1 km/h (2 Bft) W-SW 241 2 min 0,000 mm 1,8 UV-I 483 W/m 14,9 C 23,8 C 11,3 km/h (2 Bft) 92,45 %
19.09.2018 15:44 24,2 C 22,8 C 27,2 C 56 % 1019,4 hPa 0,0 l/m 6,9 km/h (2 Bft) W-SW 241 2 min 0,000 mm 1,7 UV-I 468 W/m 14,9 C 24,1 C 11,3 km/h (2 Bft) 97,37 %
19.09.2018 15:46 24,3 C 22,8 C 26,7 C 57 % 1019,4 hPa 0,0 l/m 5,0 km/h (1 Bft) W-SW 237 2 min 0,000 mm 1,7 UV-I 458 W/m 15,2 C 24,3 C 8,0 km/h (2 Bft) 92,16 %
19.09.2018 15:48 24,2 C 22,8 C 26,1 C 55 % 1019,4 hPa 0,0 l/m 6,2 km/h (2 Bft) W 259 2 min 0,000 mm 1,6 UV-I 447 W/m 14,6 C 24,2 C 9,7 km/h (2 Bft) 94,00 %
19.09.2018 15:50 24,2 C 22,8 C 26,1 C 57 % 1019,4 hPa 0,0 l/m 5,1 km/h (1 Bft) W 274 2 min 0,000 mm 1,6 UV-I 443 W/m 15,1 C 24,2 C 11,3 km/h (2 Bft) 94,44 %
19.09.2018 15:52 24,3 C 22,8 C 26,1 C 55 % 1019,4 hPa 0,0 l/m 4,4 km/h (1 Bft) NW 307 2 min 0,000 mm 1,6 UV-I 438 W/m 14,7 C 24,3 C 9,7 km/h (2 Bft) 96,61 %
19.09.2018 15:54 24,3 C 22,8 C 26,1 C 55 % 1019,3 hPa 0,0 l/m 7,9 km/h (2 Bft) W-NW 299 2 min 0,000 mm 1,6 UV-I 433 W/m 14,7 C 23,9 C 12,9 km/h (3 Bft) 95,45 %
19.09.2018 15:56 24,3 C 22,8 C 26,7 C 54 % 1019,4 hPa 0,0 l/m 5,5 km/h (1 Bft) W 260 2 min 0,000 mm 1,5 UV-I 427 W/m 14,4 C 24,3 C 9,7 km/h (2 Bft) 95,45 %
19.09.2018 15:59 24,4 C 22,8 C 26,1 C 53 % 1019,4 hPa 0,0 l/m 5,5 km/h (1 Bft) W 267 3 min 0,000 mm 1,5 UV-I 419 W/m 14,2 C 24,4 C 11,3 km/h (2 Bft) 98,68 %
19.09.2018 16:00 24,4 C 22,8 C 26,1 C 55 % 1019,4 hPa 0,0 l/m 2,9 km/h (1 Bft) W 267 1 min 0,000 mm 1,5 UV-I 413 W/m 14,8 C 24,4 C 4,8 km/h (1 Bft) 100,00 %
19.09.2018 16:02 24,4 C 22,8 C 25,6 C 54 % 1019,4 hPa 0,0 l/m 4,7 km/h (1 Bft) W-NW 294 2 min 0,254 mm 1,4 UV-I 407 W/m 14,5 C 24,4 C 6,4 km/h (2 Bft) 94,34 %
19.09.2018 16:04 24,4 C 22,8 C 25,0 C 55 % 1019,3 hPa 0,0 l/m 5,6 km/h (1 Bft) SW 234 2 min 0,000 mm 1,4 UV-I 404 W/m 14,8 C 24,4 C 9,7 km/h (2 Bft) 98,00 %
19.09.2018 16:06 24,6 C 22,8 C 25,0 C 52 % 1019,4 hPa 0,0 l/m 9,0 km/h (2 Bft) W-SW 256 2 min 0,000 mm 1,4 UV-I 404 W/m 14,1 C 23,9 C 16,1 km/h (3 Bft) 97,37 %
19.09.2018 16:08 24,6 C 22,8 C 25,0 C 53 % 1019,4 hPa 0,0 l/m 7,8 km/h (2 Bft) W 281 2 min 0,000 mm 1,4 UV-I 401 W/m 14,4 C 24,2 C 14,5 km/h (3 Bft) 98,21 %
19.09.2018 16:10 24,6 C 22,8 C 24,4 C 51 % 1019,3 hPa 0,0 l/m 5,2 km/h (1 Bft) W-SW 256 2 min 0,000 mm 1,3 UV-I 395 W/m 13,8 C 24,6 C 9,7 km/h (2 Bft) 94,74 %
19.09.2018 16:12 24,4 C 22,8 C 24,4 C 52 % 1019,3 hPa 0,0 l/m 5,4 km/h (1 Bft) W 279 2 min 0,000 mm 1,3 UV-I 390 W/m 13,9 C 24,4 C 8,0 km/h (2 Bft) 98,11 %
19.09.2018 16:14 24,4 C 22,8 C 24,4 C 53 % 1019,3 hPa 0,0 l/m 7,8 km/h (2 Bft) W 270 2 min 0,000 mm 1,3 UV-I 388 W/m 14,2 C 24,0 C 11,3 km/h (2 Bft) 98,00 %
19.09.2018 16:16 24,4 C 22,8 C 23,9 C 51 % 1019,3 hPa 0,0 l/m 7,5 km/h (2 Bft) W-SW 252 2 min 0,000 mm 1,3 UV-I 384 W/m 13,6 C 24,1 C 12,9 km/h (3 Bft) 97,37 %
19.09.2018 16:18 24,3 C 22,8 C 23,9 C 53 % 1019,3 hPa 0,0 l/m 4,4 km/h (1 Bft) W-SW 240 2 min 0,000 mm 1,2 UV-I 378 W/m 14,1 C 24,3 C 6,4 km/h (2 Bft) 97,22 %
19.09.2018 16:20 24,4 C 22,8 C 23,9 C 53 % 1019,3 hPa 0,0 l/m 4,7 km/h (1 Bft) W-SW 243 2 min 0,000 mm 1,2 UV-I 373 W/m 14,2 C 24,4 C 8,0 km/h (2 Bft) 98,51 %
19.09.2018 16:22 24,6 C 22,8 C 23,9 C 55 % 1019,2 hPa 0,0 l/m 1,7 km/h (1 Bft) W-SW 246 2 min 0,000 mm 1,2 UV-I 367 W/m 14,9 C 24,6 C 4,8 km/h (1 Bft) 100,00 %
19.09.2018 16:24 24,8 C 22,8 C 23,9 C 55 % 1019,2 hPa 0,0 l/m 2,1 km/h (1 Bft) W 264 2 min 0,000 mm 1,2 UV-I 362 W/m 15,1 C 24,8 C 6,4 km/h (2 Bft) 100,00 %
19.09.2018 16:26 24,8 C 22,8 C 23,9 C 55 % 1019,2 hPa 0,0 l/m 5,3 km/h (1 Bft) W-SW 252 2 min 0,000 mm 1,1 UV-I 359 W/m 15,1 C 24,8 C 11,3 km/h (2 Bft) 100,00 %
19.09.2018 16:28 24,7 C 22,8 C 23,9 C 53 % 1019,3 hPa 0,0 l/m 5,4 km/h (1 Bft) W 263 2 min 0,000 mm 1,1 UV-I 352 W/m 14,5 C 24,7 C 12,9 km/h (3 Bft) 100,00 %
19.09.2018 16:30 24,7 C 22,8 C 23,9 C 53 % 1019,2 hPa 0,0 l/m 9,2 km/h (2 Bft) W 277 2 min 0,000 mm 1,1 UV-I 346 W/m 14,5 C 24,0 C 16,1 km/h (3 Bft) 100,00 %
19.09.2018 16:32 24,6 C 22,8 C 23,9 C 53 % 1019,2 hPa 0,0 l/m 8,8 km/h (2 Bft) W 259 2 min 0,000 mm 1,1 UV-I 342 W/m 14,4 C 24,0 C 14,5 km/h (3 Bft) 100,00 %
19.09.2018 16:34 24,6 C 22,8 C 23,9 C 53 % 1019,2 hPa 0,0 l/m 6,4 km/h (2 Bft) SW 223 2 min 0,000 mm 1,0 UV-I 337 W/m 14,4 C 24,6 C 11,3 km/h (2 Bft) 97,87 %
19.09.2018 16:36 24,4 C 22,8 C 23,3 C 53 % 1019,2 hPa 0,0 l/m 7,1 km/h (2 Bft) W 277 2 min 0,000 mm 1,0 UV-I 332 W/m 14,2 C 24,2 C 11,3 km/h (2 Bft) 100,00 %
19.09.2018 16:38 24,4 C 22,8 C 23,3 C 53 % 1019,2 hPa 0,0 l/m 5,9 km/h (2 Bft) W 271 2 min 0,000 mm 1,0 UV-I 325 W/m 14,2 C 24,4 C 9,7 km/h (2 Bft) 100,00 %
19.09.2018 16:40 24,4 C 22,8 C 23,3 C 54 % 1019,2 hPa 0,0 l/m 6,2 km/h (2 Bft) W-SW 246 2 min 0,000 mm 0,9 UV-I 320 W/m 14,5 C 24,4 C 11,3 km/h (2 Bft) 100,00 %
19.09.2018 16:42 24,3 C 22,8 C 23,3 C 54 % 1019,2 hPa 0,0 l/m 6,0 km/h (2 Bft) NW 315 2 min 0,000 mm 0,9 UV-I 315 W/m 14,4 C 24,3 C 11,3 km/h (2 Bft) 100,00 %
19.09.2018 16:44 24,4 C 22,8 C 23,3 C 54 % 1019,2 hPa 0,0 l/m 6,0 km/h (2 Bft) W 260 2 min 0,000 mm 0,9 UV-I 310 W/m 14,5 C 24,4 C 11,3 km/h (2 Bft) 97,73 %
19.09.2018 16:46 24,3 C 22,8 C 23,3 C 53 % 1019,2 hPa 0,0 l/m 6,4 km/h (2 Bft) W 275 2 min 0,000 mm 0,9 UV-I 306 W/m 14,1 C 24,3 C 12,9 km/h (3 Bft) 100,00 %
19.09.2018 16:48 24,3 C 22,8 C 23,3 C 53 % 1019,2 hPa 0,0 l/m 3,0 km/h (1 Bft) W-NW 285 2 min 0,000 mm 0,9 UV-I 301 W/m 14,1 C 24,3 C 8,0 km/h (2 Bft) 100,00 %
19.09.2018 16:50 24,3 C 22,8 C 23,3 C 53 % 1019,1 hPa 0,0 l/m 4,0 km/h (1 Bft) W-SW 257 2 min 0,000 mm 0,8 UV-I 295 W/m 14,1 C 24,3 C 8,0 km/h (2 Bft) 98,00 %
19.09.2018 16:52 24,3 C 22,8 C 23,3 C 54 % 1019,1 hPa 0,0 l/m 8,4 km/h (2 Bft) W 273 2 min 0,000 mm 0,8 UV-I 291 W/m 14,4 C 23,8 C 11,3 km/h (2 Bft) 100,00 %
19.09.2018 16:54 24,3 C 22,8 C 23,3 C 54 % 1019,1 hPa 0,0 l/m 8,1 km/h (2 Bft) W 267 2 min 0,000 mm 0,8 UV-I 287 W/m 14,4 C 23,8 C 11,3 km/h (2 Bft) 100,00 %
19.09.2018 16:56 24,2 C 22,8 C 23,3 C 53 % 1019,1 hPa 0,0 l/m 4,5 km/h (1 Bft) W 270 2 min 0,000 mm 0,8 UV-I 281 W/m 14,0 C 24,2 C 6,4 km/h (2 Bft) 98,00 %
19.09.2018 16:59 24,2 C 22,8 C 23,3 C 52 % 1019,1 hPa 0,0 l/m 6,3 km/h (2 Bft) W 261 3 min 0,000 mm 0,7 UV-I 275 W/m 13,7 C 24,2 C 11,3 km/h (2 Bft) 98,53 %
19.09.2018 17:00 24,2 C 22,8 C 22,8 C 53 % 1019,1 hPa 0,0 l/m 6,0 km/h (2 Bft) W-SW 257 1 min 0,000 mm 0,7 UV-I 271 W/m 14,0 C 24,2 C 9,7 km/h (2 Bft) 95,65 %
19.09.2018 17:02 24,3 C 22,8 C 22,8 C 53 % 1019,1 hPa 0,0 l/m 8,2 km/h (2 Bft) W-SW 248 2 min 0,254 mm 0,7 UV-I 266 W/m 14,1 C 23,8 C 12,9 km/h (3 Bft) 100,00 %
19.09.2018 17:04 24,3 C 22,8 C 23,3 C 54 % 1019,1 hPa 0,0 l/m 5,6 km/h (1 Bft) W 259 2 min 0,000 mm 0,7 UV-I 258 W/m 14,4 C 24,3 C 11,3 km/h (2 Bft) 100,00 %
19.09.2018 17:06 24,2 C 22,8 C 22,8 C 54 % 1019,1 hPa 0,0 l/m 5,3 km/h (1 Bft) W-NW 295 2 min 0,000 mm 0,6 UV-I 253 W/m 14,3 C 24,2 C 9,7 km/h (2 Bft) 100,00 %
19.09.2018 17:08 24,2 C 22,8 C 22,8 C 54 % 1019,1 hPa 0,0 l/m 4,1 km/h (1 Bft) SW 221 2 min 0,000 mm 0,6 UV-I 247 W/m 14,3 C 24,2 C 6,4 km/h (2 Bft) 97,92 %
19.09.2018 17:10 24,1 C 22,8 C 22,8 C 54 % 1019,1 hPa 0,0 l/m 3,1 km/h (1 Bft) W-SW 248 2 min 0,000 mm 0,6 UV-I 240 W/m 14,2 C 24,1 C 4,8 km/h (1 Bft) 97,87 %
19.09.2018 17:12 24,2 C 22,8 C 22,8 C 56 % 1019,1 hPa 0,0 l/m 4,2 km/h (1 Bft) W-NW 288 2 min 0,000 mm 0,6 UV-I 236 W/m 14,9 C 24,2 C 6,4 km/h (2 Bft) 97,37 %
19.09.2018 17:14 24,2 C 22,8 C 22,8 C 53 % 1019,1 hPa 0,0 l/m 1,7 km/h (1 Bft) W-SW 241 2 min 0,000 mm 0,6 UV-I 231 W/m 14,0 C 24,2 C 6,4 km/h (2 Bft) 98,31 %
19.09.2018 17:16 24,2 C 22,8 C 22,8 C 54 % 1019,1 hPa 0,0 l/m 4,6 km/h (1 Bft) W-SW 242 2 min 0,000 mm 0,5 UV-I 225 W/m 14,3 C 24,2 C 6,4 km/h (2 Bft) 97,87 %
19.09.2018 17:18 24,2 C 22,8 C 22,8 C 55 % 1019,1 hPa 0,0 l/m 4,9 km/h (1 Bft) W-SW 242 2 min 0,000 mm 0,5 UV-I 220 W/m 14,6 C 24,2 C 8,0 km/h (2 Bft) 97,87 %
19.09.2018 17:20 24,2 C 22,8 C 22,8 C 54 % 1019,1 hPa 0,0 l/m 5,7 km/h (1 Bft) SW 226 2 min 0,000 mm 0,5 UV-I 215 W/m 14,3 C 24,2 C 8,0 km/h (2 Bft) 94,74 %
19.09.2018 17:22 24,2 C 22,8 C 22,8 C 54 % 1019,0 hPa 0,0 l/m 3,3 km/h (1 Bft) W-SW 255 2 min 0,000 mm 0,5 UV-I 209 W/m 14,3 C 24,2 C 6,4 km/h (2 Bft) 97,87 %
19.09.2018 17:24 24,2 C 22,8 C 22,8 C 55 % 1019,0 hPa 0,0 l/m 6,4 km/h (2 Bft) W 265 2 min 0,000 mm 0,5 UV-I 204 W/m 14,6 C 24,2 C 12,9 km/h (3 Bft) 97,87 %
19.09.2018 17:26 24,2 C 22,8 C 22,8 C 55 % 1018,9 hPa 0,0 l/m 4,3 km/h (1 Bft) W-SW 258 2 min 0,000 mm 0,2 UV-I 198 W/m 14,6 C 24,2 C 8,0 km/h (2 Bft) 97,73 %
19.09.2018 17:28 24,2 C 22,8 C 22,2 C 54 % 1019,0 hPa 0,0 l/m 3,8 km/h (1 Bft) W 264 2 min 0,000 mm 0,0 UV-I 192 W/m 14,3 C 24,2 C 6,4 km/h (2 Bft) 98,00 %
19.09.2018 17:30 24,1 C 22,8 C 22,2 C 55 % 1019,0 hPa 0,0 l/m 2,6 km/h (1 Bft) W 265 2 min 0,000 mm 0,0 UV-I 188 W/m 14,5 C 24,1 C 4,8 km/h (1 Bft) 95,74 %
19.09.2018 17:32 24,1 C 22,8 C 22,2 C 53 % 1019,0 hPa 0,0 l/m 2,3 km/h (1 Bft) NW 320 2 min 0,000 mm 0,0 UV-I 183 W/m 13,9 C 24,1 C 4,8 km/h (1 Bft) 95,45 %
19.09.2018 17:34 24,1 C 22,8 C 22,2 C 57 % 1019,0 hPa 0,0 l/m 2,2 km/h (1 Bft) NW 320 2 min 0,000 mm 0,0 UV-I 179 W/m 15,0 C 24,1 C 4,8 km/h (1 Bft) 98,00 %
19.09.2018 17:36 24,1 C 22,8 C 21,7 C 53 % 1019,0 hPa 0,0 l/m 0,0 km/h (0 Bft) NW 320 2 min 0,000 mm 0,0 UV-I 174 W/m 13,9 C 24,1 C 0,0 km/h (0 Bft) 100,00 %
19.09.2018 17:39 24,2 C 22,8 C 21,7 C 54 % 1019,0 hPa 0,0 l/m 3,3 km/h (1 Bft) N-NO 28 3 min 0,000 mm 0,0 UV-I 168 W/m 14,3 C 24,2 C 6,4 km/h (2 Bft) 100,00 %
19.09.2018 17:40 24,3 C 22,8 C 21,7 C 54 % 1019,0 hPa 0,0 l/m 3,5 km/h (1 Bft) N-NO 28 1 min 0,000 mm 0,0 UV-I 164 W/m 14,4 C 24,3 C 6,4 km/h (2 Bft) 100,00 %
19.09.2018 17:42 24,2 C 22,8 C 21,7 C 54 % 1019,0 hPa 0,0 l/m 3,9 km/h (1 Bft) N-NO 28 2 min 0,000 mm 0,0 UV-I 161 W/m 14,3 C 24,2 C 4,8 km/h (1 Bft) 100,00 %
19.09.2018 17:44 24,2 C 22,8 C 21,7 C 55 % 1018,9 hPa 0,0 l/m 4,7 km/h (1 Bft) N-NO 17 2 min 0,000 mm 0,0 UV-I 158 W/m 14,6 C 24,2 C 6,4 km/h (2 Bft) 98,00 %
19.09.2018 17:46 24,1 C 22,8 C 21,7 C 55 % 1018,9 hPa 0,0 l/m 3,7 km/h (1 Bft) N-NO 15 2 min 0,000 mm 0,0 UV-I 152 W/m 14,5 C 24,1 C 6,4 km/h (2 Bft) 95,74 %
19.09.2018 17:48 23,9 C 22,8 C 21,7 C 57 % 1019,0 hPa 0,0 l/m 3,5 km/h (1 Bft) N-NO 22 2 min 0,000 mm 0,0 UV-I 147 W/m 14,9 C 23,9 C 6,4 km/h (2 Bft) 97,92 %
19.09.2018 17:50 23,9 C 22,8 C 21,1 C 55 % 1019,0 hPa 0,0 l/m 2,9 km/h (1 Bft) N-NO 14 2 min 0,000 mm 0,0 UV-I 141 W/m 14,3 C 23,9 C 4,8 km/h (1 Bft) 97,87 %
19.09.2018 17:52 24,0 C 22,8 C 21,1 C 56 % 1019,0 hPa 0,0 l/m 1,4 km/h (1 Bft) N-NO 14 2 min 0,000 mm 0,0 UV-I 137 W/m 14,7 C 24,0 C 3,2 km/h (1 Bft) 100,00 %
19.09.2018 17:54 23,9 C 22,8 C 21,1 C 57 % 1019,0 hPa 0,0 l/m 3,5 km/h (1 Bft) N-NO 21 2 min 0,000 mm 0,0 UV-I 133 W/m 14,9 C 23,9 C 4,8 km/h (1 Bft) 97,40 %
19.09.2018 17:56 23,8 C 22,8 C 21,1 C 57 % 1018,9 hPa 0,0 l/m 3,0 km/h (1 Bft) N-NO 24 2 min 0,000 mm 0,0 UV-I 127 W/m 14,8 C 23,8 C 4,8 km/h (1 Bft) 98,00 %
19.09.2018 17:58 23,8 C 22,8 C 21,1 C 57 % 1018,9 hPa 0,0 l/m 3,2 km/h (1 Bft) N-NO 24 2 min 0,000 mm 0,0 UV-I 123 W/m 14,8 C 23,8 C 6,4 km/h (2 Bft) 97,56 %
19.09.2018 18:00 23,7 C 22,8 C 21,1 C 56 % 1019,0 hPa 0,0 l/m 3,3 km/h (1 Bft) N-NO 23 2 min 0,000 mm 0,0 UV-I 119 W/m 14,4 C 23,7 C 4,8 km/h (1 Bft) 96,00 %
19.09.2018 18:02 23,6 C 22,8 C 21,1 C 57 % 1019,0 hPa 0,0 l/m 2,4 km/h (1 Bft) N-NO 23 2 min 0,152 mm 0,0 UV-I 115 W/m 14,6 C 23,6 C 3,2 km/h (1 Bft) 96,00 %
19.09.2018 18:04 23,5 C 22,8 C 21,1 C 58 % 1019,0 hPa 0,0 l/m 2,9 km/h (1 Bft) N 355 2 min 0,000 mm 0,0 UV-I 109 W/m 14,7 C 23,5 C 4,8 km/h (1 Bft) 95,12 %
19.09.2018 18:06 23,4 C 22,8 C 21,1 C 56 % 1019,0 hPa 0,0 l/m 4,2 km/h (1 Bft) N 5 2 min 0,000 mm 0,0 UV-I 103 W/m 14,1 C 23,4 C 6,4 km/h (2 Bft) 97,87 %
19.09.2018 18:08 23,3 C 22,8 C 21,1 C 58 % 1019,0 hPa 0,0 l/m 3,3 km/h (1 Bft) N 5 2 min 0,000 mm 0,0 UV-I 99 W/m 14,6 C 23,3 C 4,8 km/h (1 Bft) 97,87 %
19.09.2018 18:10 23,3 C 22,8 C 21,1 C 57 % 1019,0 hPa 0,0 l/m 2,3 km/h (1 Bft) N 5 2 min 0,000 mm 0,0 UV-I 93 W/m 14,3 C 23,3 C 3,2 km/h (1 Bft) 100,00 %
19.09.2018 18:12 23,3 C 22,8 C 20,6 C 57 % 1019,0 hPa 0,0 l/m 2,7 km/h (1 Bft) N 5 2 min 0,000 mm 0,0 UV-I 91 W/m 14,3 C 23,3 C 4,8 km/h (1 Bft) 97,56 %
19.09.2018 18:14 23,3 C 22,8 C 20,6 C 57 % 1019,0 hPa 0,0 l/m 2,3 km/h (1 Bft) N 5 2 min 0,000 mm 0,0 UV-I 88 W/m 14,3 C 23,3 C 4,8 km/h (1 Bft) 97,87 %
19.09.2018 18:16 23,3 C 22,8 C 20,6 C 57 % 1019,0 hPa 0,0 l/m 2,5 km/h (1 Bft) N 5 2 min 0,000 mm 0,0 UV-I 93 W/m 14,3 C 23,3 C 3,2 km/h (1 Bft) 100,00 %
19.09.2018 18:18 23,3 C 22,8 C 20,6 C 58 % 1019,0 hPa 0,0 l/m 2,7 km/h (1 Bft) N 5 2 min 0,000 mm 0,0 UV-I 81 W/m 14,6 C 23,3 C 3,2 km/h (1 Bft) 100,00 %
19.09.2018 18:20 23,3 C 22,8 C 20,0 C 57 % 1019,0 hPa 0,0 l/m 2,6 km/h (1 Bft) N 5 2 min 0,000 mm 0,0 UV-I 77 W/m 14,3 C 23,3 C 3,2 km/h (1 Bft) 100,00 %
19.09.2018 18:22 23,2 C 22,8 C 20,0 C 57 % 1019,0 hPa 0,0 l/m 2,9 km/h (1 Bft) N 5 2 min 0,000 mm 0,0 UV-I 74 W/m 14,2 C 23,2 C 4,8 km/h (1 Bft) 97,22 %
19.09.2018 18:24 23,2 C 22,8 C 20,0 C 59 % 1019,0 hPa 0,0 l/m 3,0 km/h (1 Bft) N 5 2 min 0,000 mm 0,0 UV-I 70 W/m 14,7 C 23,2 C 4,8 km/h (1 Bft) 98,11 %
19.09.2018 18:26 23,1 C 22,8 C 20,0 C 58 % 1019,0 hPa 0,0 l/m 2,7 km/h (1 Bft) N 5 2 min 0,000 mm 0,0 UV-I 68 W/m 14,4 C 23,1 C 3,2 km/h (1 Bft) 97,56 %
19.09.2018 18:28 23,0 C 22,8 C 20,0 C 57 % 1019,0 hPa 0,0 l/m 2,3 km/h (1 Bft) N 5 2 min 0,000 mm 0,0 UV-I 63 W/m 14,0 C 23,0 C 3,2 km/h (1 Bft) 100,00 %
19.09.2018 18:30 23,0 C 22,8 C 20,0 C 57 % 1019,0 hPa 0,0 l/m 2,0 km/h (1 Bft) N 5 2 min 0,000 mm 0,0 UV-I 60 W/m 14,0 C 23,0 C 3,2 km/h (1 Bft) 95,74 %
19.09.2018 18:32 22,9 C 22,8 C 19,4 C 58 % 1019,0 hPa 0,0 l/m 0,8 km/h (0 Bft) N 5 2 min 0,000 mm 0,0 UV-I 55 W/m 14,2 C 22,9 C 1,6 km/h (1 Bft) 100,00 %
19.09.2018 18:34 22,9 C 22,8 C 19,4 C 57 % 1019,1 hPa 0,0 l/m 0,9 km/h (0 Bft) N 5 2 min 0,000 mm 0,0 UV-I 52 W/m 13,9 C 22,9 C 3,2 km/h (1 Bft) 98,11 %
19.09.2018 18:36 22,9 C 22,8 C 18,9 C 56 % 1019,1 hPa 0,0 l/m 0,7 km/h (0 Bft) N 5 2 min 0,000 mm 0,0 UV-I 49 W/m 13,6 C 22,9 C 3,2 km/h (1 Bft) 94,00 %
19.09.2018 18:38 22,9 C 22,8 C 18,9 C 56 % 1019,1 hPa 0,0 l/m 0,1 km/h (0 Bft) N 5 2 min 0,000 mm 0,0 UV-I 46 W/m 13,6 C 22,9 C 1,6 km/h (1 Bft) 100,00 %
19.09.2018 18:40 22,9 C 22,8 C 18,3 C 57 % 1019,2 hPa 0,0 l/m 0,0 km/h (0 Bft) N 5 2 min 0,000 mm 0,0 UV-I 44 W/m 13,9 C 22,9 C 0,0 km/h (0 Bft) 98,21 %
19.09.2018 18:42 22,8 C 22,8 C 18,3 C 58 % 1019,2 hPa 0,0 l/m 0,4 km/h (0 Bft) N 5 2 min 0,000 mm 0,0 UV-I 41 W/m 14,1 C 22,8 C 1,6 km/h (1 Bft) 97,87 %
19.09.2018 18:44 22,7 C 22,8 C 17,8 C 58 % 1019,3 hPa 0,0 l/m 1,4 km/h (1 Bft) N 5 2 min 0,000 mm 0,0 UV-I 38 W/m 14,0 C 22,7 C 3,2 km/h (1 Bft) 94,29 %
19.09.2018 18:46 22,5 C 22,8 C 17,8 C 59 % 1019,3 hPa 0,0 l/m 1,5 km/h (1 Bft) N 5 2 min 0,000 mm 0,0 UV-I 35 W/m 14,1 C 22,5 C 3,2 km/h (1 Bft) 98,21 %
19.09.2018 18:48 22,4 C 22,8 C 17,8 C 59 % 1019,3 hPa 0,0 l/m 2,1 km/h (1 Bft) N 5 2 min 0,000 mm 0,0 UV-I 32 W/m 14,0 C 22,4 C 4,8 km/h (1 Bft) 94,74 %
19.09.2018 18:50 22,4 C 22,8 C 17,8 C 59 % 1019,3 hPa 0,0 l/m 1,4 km/h (1 Bft) N 5 2 min 0,000 mm 0,0 UV-I 28 W/m 14,0 C 22,4 C 3,2 km/h (1 Bft) 96,23 %
19.09.2018 18:52 22,3 C 22,8 C 17,2 C 59 % 1019,3 hPa 0,0 l/m 1,5 km/h (1 Bft) N 5 2 min 0,000 mm 0,0 UV-I 26 W/m 13,9 C 22,3 C 1,6 km/h (1 Bft) 94,00 %
19.09.2018 18:54 22,1 C 22,8 C 17,2 C 62 % 1019,3 hPa 0,0 l/m 1,6 km/h (1 Bft) N 5 2 min 0,000 mm 0,0 UV-I 22 W/m 14,5 C 22,1 C 3,2 km/h (1 Bft) 95,74 %
19.09.2018 18:56 21,8 C 22,8 C 17,2 C 63 % 1019,3 hPa 0,0 l/m 1,3 km/h (1 Bft) N 5 2 min 0,000 mm 0,0 UV-I 20 W/m 14,4 C 21,8 C 1,6 km/h (1 Bft) 92,11 %
19.09.2018 18:58 21,4 C 22,8 C 17,2 C 66 % 1019,3 hPa 0,0 l/m 1,3 km/h (1 Bft) N 5 2 min 0,000 mm 0,0 UV-I 18 W/m 14,8 C 21,4 C 3,2 km/h (1 Bft) 95,83 %
19.09.2018 19:00 21,1 C 22,8 C 17,2 C 67 % 1019,3 hPa 0,0 l/m 0,9 km/h (0 Bft) N 5 0 min 0,051 mm 0,0 UV-I 15 W/m 14,7 C 21,1 C 3,2 km/h (1 Bft) 93,88 %
19.09.2018 19:02 20,8 C 22,8 C 17,2 C 68 % 1019,3 hPa 0,0 l/m 1,3 km/h (1 Bft) N 5 0 min 0,000 mm 0,0 UV-I 12 W/m 14,7 C 20,8 C 3,2 km/h (1 Bft) 96,23 %
19.09.2018 19:04 20,6 C 22,8 C 17,2 C 68 % 1019,3 hPa 0,0 l/m 1,2 km/h (1 Bft) N 5 0 min 0,000 mm 0,0 UV-I 11 W/m 14,5 C 20,6 C 3,2 km/h (1 Bft) 95,74 %
19.09.2018 19:06 20,6 C 22,8 C 16,7 C 69 % 1019,3 hPa 0,0 l/m 0,8 km/h (0 Bft) N 5 0 min 0,000 mm 0,0 UV-I 11 W/m 14,7 C 20,6 C 3,2 km/h (1 Bft) 95,24 %
19.09.2018 19:08 20,5 C 22,8 C 16,7 C 69 % 1019,3 hPa 0,0 l/m 1,3 km/h (1 Bft) N 5 0 min 0,000 mm 0,0 UV-I 9 W/m 14,6 C 20,5 C 3,2 km/h (1 Bft) 98,00 %
19.09.2018 19:10 20,2 C 22,8 C 16,7 C 70 % 1019,3 hPa 0,0 l/m 0,7 km/h (0 Bft) N 5 0 min 0,000 mm 0,0 UV-I 8 W/m 14,5 C 20,2 C 1,6 km/h (1 Bft) 96,00 %
19.09.2018 19:12 19,9 C 22,8 C 16,7 C 71 % 1019,5 hPa 0,0 l/m 0,0 km/h (0 Bft) N 5 0 min 0,000 mm 0,0 UV-I 7 W/m 14,5 C 19,9 C 0,0 km/h (0 Bft) 100,00 %
19.09.2018 19:14 19,7 C 22,8 C 16,7 C 73 % 1019,4 hPa 0,0 l/m 0,4 km/h (0 Bft) N 5 0 min 0,000 mm 0,0 UV-I 7 W/m 14,7 C 19,7 C 1,6 km/h (1 Bft) 96,00 %
19.09.2018 19:16 19,3 C 22,8 C 16,7 C 74 % 1019,5 hPa 0,0 l/m 0,0 km/h (0 Bft) N 5 0 min 0,000 mm 0,0 UV-I 5 W/m 14,5 C 19,3 C 0,0 km/h (0 Bft) 98,00 %
19.09.2018 19:18 19,1 C 22,8 C 16,7 C 75 % 1019,5 hPa 0,0 l/m 0,0 km/h (0 Bft) N 5 0 min 0,000 mm 0,0 UV-I 5 W/m 14,6 C 19,1 C 0,0 km/h (0 Bft) 97,87 %
19.09.2018 19:20 19,1 C 22,8 C 16,7 C 75 % 1019,5 hPa 0,0 l/m 0,0 km/h (0 Bft) N 5 0 min 0,000 mm 0,0 UV-I 5 W/m 14,6 C 19,1 C 0,0 km/h (0 Bft) 97,37 %
19.09.2018 19:22 19,1 C 22,8 C 16,7 C 75 % 1019,5 hPa 0,0 l/m 0,0 km/h (0 Bft) N 5 0 min 0,000 mm 0,0 UV-I 5 W/m 14,6 C 19,1 C 0,0 km/h (0 Bft) 97,87 %
19.09.2018 19:24 19,1 C 22,8 C 16,7 C 75 % 1019,5 hPa 0,0 l/m 0,0 km/h (0 Bft) N 5 0 min 0,000 mm 0,0 UV-I 5 W/m 14,6 C 19,1 C 0,0 km/h (0 Bft) 97,87 %
19.09.2018 19:26 19,0 C 22,8 C 16,7 C 75 % 1019,5 hPa 0,0 l/m 0,0 km/h (0 Bft) N 5 0 min 0,000 mm 0,0 UV-I 0 W/m 14,5 C 19,0 C 0,0 km/h (0 Bft) 98,11 %
19.09.2018 19:28 19,1 C 22,8 C 16,1 C 74 % 1019,6 hPa 0,0 l/m 0,0 km/h (0 Bft) N 5 0 min 0,000 mm 0,0 UV-I 0 W/m 14,4 C 19,1 C 0,0 km/h (0 Bft) 95,74 %
19.09.2018 19:30 19,1 C 22,8 C 16,1 C 75 % 1019,6 hPa 0,0 l/m 0,0 km/h (0 Bft) N 5 0 min 0,000 mm 0,0 UV-I 0 W/m 14,6 C 19,1 C 0,0 km/h (0 Bft) 96,00 %
19.09.2018 19:32 19,2 C 22,8 C 15,6 C 74 % 1019,5 hPa 0,0 l/m 0,0 km/h (0 Bft) N 5 0 min 0,000 mm 0,0 UV-I 0 W/m 14,4 C 19,2 C 0,0 km/h (0 Bft) 97,87 %
19.09.2018 19:34 19,4 C 22,8 C 15,6 C 74 % 1019,6 hPa 0,0 l/m 0,0 km/h (0 Bft) N 5 0 min 0,000 mm 0,0 UV-I 0 W/m 14,6 C 19,4 C 0,0 km/h (0 Bft) 95,74 %
19.09.2018 19:36 19,4 C 22,8 C 15,6 C 74 % 1019,6 hPa 0,0 l/m 0,0 km/h (0 Bft) N 5 0 min 0,000 mm 0,0 UV-I 0 W/m 14,6 C 19,4 C 0,0 km/h (0 Bft) 100,00 %
19.09.2018 19:38 19,4 C 22,8 C 15,6 C 74 % 1019,6 hPa 0,0 l/m 0,0 km/h (0 Bft) N 5 0 min 0,000 mm 0,0 UV-I 0 W/m 14,6 C 19,4 C 1,6 km/h (1 Bft) 96,23 %
19.09.2018 19:40 19,3 C 22,8 C 15,6 C 73 % 1019,5 hPa 0,0 l/m 1,1 km/h (1 Bft) N 5 0 min 0,000 mm 0,0 UV-I 0 W/m 14,3 C 19,3 C 3,2 km/h (1 Bft) 97,37 %
19.09.2018 19:42 19,1 C 22,8 C 15,6 C 73 % 1019,6 hPa 0,0 l/m 0,9 km/h (0 Bft) N 5 0 min 0,000 mm 0,0 UV-I 0 W/m 14,1 C 19,1 C 3,2 km/h (1 Bft) 98,21 %
19.09.2018 19:44 18,9 C 22,8 C 15,6 C 75 % 1019,6 hPa 0,0 l/m 0,0 km/h (0 Bft) N 5 0 min 0,000 mm 0,0 UV-I 0 W/m 14,4 C 18,9 C 0,0 km/h (0 Bft) 96,00 %
19.09.2018 19:46 18,8 C 22,8 C 15,6 C 75 % 1019,6 hPa 0,0 l/m 0,0 km/h (0 Bft) N 5 0 min 0,000 mm 0,0 UV-I 0 W/m 14,3 C 18,8 C 0,0 km/h (0 Bft) 94,74 %
19.09.2018 19:48 18,7 C 22,8 C 15,6 C 75 % 1019,6 hPa 0,0 l/m 0,0 km/h (0 Bft) N 5 0 min 0,000 mm 0,0 UV-I 0 W/m 14,2 C 18,7 C 0,0 km/h (0 Bft) 94,00 %
19.09.2018 19:50 18,4 C 22,8 C 15,6 C 77 % 1019,6 hPa 0,0 l/m 0,0 km/h (0 Bft) N 5 0 min 0,000 mm 0,0 UV-I 0 W/m 14,3 C 18,4 C 0,0 km/h (0 Bft) 96,00 %
19.09.2018 19:52 18,1 C 22,8 C 15,6 C 77 % 1019,7 hPa 0,0 l/m 0,7 km/h (0 Bft) N 5 0 min 0,000 mm 0,0 UV-I 0 W/m 14,0 C 18,1 C 3,2 km/h (1 Bft) 96,00 %
19.09.2018 19:54 18,0 C 22,8 C 15,6 C 78 % 1019,7 hPa 0,0 l/m 1,0 km/h (0 Bft) N 5 0 min 0,000 mm 0,0 UV-I 0 W/m 14,1 C 18,0 C 1,6 km/h (1 Bft) 93,62 %
19.09.2018 19:56 18,1 C 22,8 C 15,6 C 77 % 1019,7 hPa 0,0 l/m 1,2 km/h (1 Bft) N 5 0 min 0,000 mm 0,0 UV-I 0 W/m 14,0 C 18,1 C 1,6 km/h (1 Bft) 94,29 %
19.09.2018 19:58 18,2 C 22,8 C 15,6 C 76 % 1019,8 hPa 0,0 l/m 0,3 km/h (0 Bft) N 5 0 min 0,000 mm 0,0 UV-I 0 W/m 13,9 C 18,2 C 3,2 km/h (1 Bft) 98,21 %
19.09.2018 20:00 18,3 C 22,8 C 15,6 C 76 % 1019,7 hPa 0,0 l/m 0,1 km/h (0 Bft) N 5 0 min 0,000 mm 0,0 UV-I 0 W/m 14,0 C 18,3 C 1,6 km/h (1 Bft) 97,87 %
19.09.2018 20:02 18,3 C 22,8 C 15,6 C 76 % 1019,8 hPa 0,0 l/m 0,0 km/h (0 Bft) N 5 0 min 0,000 mm 0,0 UV-I 0 W/m 14,0 C 18,3 C 0,0 km/h (0 Bft) 97,37 %
19.09.2018 20:04 18,3 C 22,8 C 15,6 C 75 % 1019,8 hPa 0,0 l/m 0,0 km/h (0 Bft) N 5 0 min 0,000 mm 0,0 UV-I 0 W/m 13,8 C 18,3 C 0,0 km/h (0 Bft) 96,61 %
19.09.2018 20:06 18,2 C 22,8 C 15,6 C 76 % 1019,8 hPa 0,0 l/m 0,0 km/h (0 Bft) N 5 0 min 0,000 mm 0,0 UV-I 0 W/m 13,9 C 18,2 C 0,0 km/h (0 Bft) 93,62 %
19.09.2018 20:08 18,2 C 22,8 C 15,6 C 75 % 1019,8 hPa 0,0 l/m 0,0 km/h (0 Bft) N 5 0 min 0,000 mm 0,0 UV-I 0 W/m 13,7 C 18,2 C 1,6 km/h (1 Bft) 97,37 %
19.09.2018 20:10 18,2 C 22,8 C 15,6 C 75 % 1019,8 hPa 0,0 l/m 0,0 km/h (0 Bft) N 5 0 min 0,000 mm 0,0 UV-I 0 W/m 13,7 C 18,2 C 0,0 km/h (0 Bft) 98,00 %
19.09.2018 20:12 18,2 C 22,8 C 15,6 C 76 % 1019,8 hPa 0,0 l/m 0,0 km/h (0 Bft) N 5 0 min 0,000 mm 0,0 UV-I 0 W/m 13,9 C 18,2 C 0,0 km/h (0 Bft) 92,86 %
19.09.2018 20:14 18,2 C 22,8 C 15,6 C 76 % 1019,8 hPa 0,0 l/m 0,0 km/h (0 Bft) N 5 0 min 0,000 mm 0,0 UV-I 0 W/m 13,9 C 18,2 C 0,0 km/h (0 Bft) 96,00 %
19.09.2018 20:16 18,1 C 22,8 C 15,6 C 76 % 1019,8 hPa 0,0 l/m 0,0 km/h (0 Bft) N 5 0 min 0,000 mm 0,0 UV-I 0 W/m 13,8 C 18,1 C 0,0 km/h (0 Bft) 95,92 %
19.09.2018 20:18 18,2 C 22,8 C 15,6 C 76 % 1019,8 hPa 0,0 l/m 0,0 km/h (0 Bft) N 5 0 min 0,000 mm 0,0 UV-I 0 W/m 13,9 C 18,2 C 0,0 km/h (0 Bft) 93,75 %
19.09.2018 20:20 18,2 C 22,8 C 15,6 C 76 % 1019,8 hPa 0,0 l/m 0,0 km/h (0 Bft) N 5 0 min 0,000 mm 0,0 UV-I 0 W/m 13,9 C 18,2 C 0,0 km/h (0 Bft) 95,74 %
19.09.2018 20:22 18,0 C 22,8 C 15,6 C 76 % 1019,8 hPa 0,0 l/m 0,0 km/h (0 Bft) N 5 0 min 0,000 mm 0,0 UV-I 0 W/m 13,7 C 18,0 C 0,0 km/h (0 Bft) 100,00 %
19.09.2018 20:24 17,8 C 22,8 C 15,6 C 77 % 1019,8 hPa 0,0 l/m 0,0 km/h (0 Bft) N 5 0 min 0,000 mm 0,0 UV-I 0 W/m 13,7 C 17,8 C 0,0 km/h (0 Bft) 89,47 %
19.09.2018 20:26 17,6 C 22,8 C 15,6 C 78 % 1019,8 hPa 0,0 l/m 2,6 km/h (1 Bft) O 95 0 min 0,000 mm 0,0 UV-I 0 W/m 13,7 C 17,6 C 4,8 km/h (1 Bft) 98,11 %
19.09.2018 20:28 17,5 C 22,8 C 15,6 C 79 % 1019,8 hPa 0,0 l/m 4,2 km/h (1 Bft) SO 125 0 min 0,000 mm 0,0 UV-I 0 W/m 13,8 C 17,5 C 4,8 km/h (1 Bft) 98,00 %
19.09.2018 20:30 17,5 C 22,8 C 15,6 C 79 % 1019,8 hPa 0,0 l/m 4,5 km/h (1 Bft) SO 126 0 min 0,000 mm 0,0 UV-I 0 W/m 13,8 C 17,5 C 6,4 km/h (2 Bft) 97,37 %
19.09.2018 20:32 17,4 C 22,8 C 15,6 C 80 % 1019,8 hPa 0,0 l/m 4,9 km/h (1 Bft) S-SO 155 0 min 0,000 mm 0,0 UV-I 0 W/m 13,9 C 17,4 C 6,4 km/h (2 Bft) 95,74 %
19.09.2018 20:34 17,6 C 22,8 C 16,1 C 80 % 1019,9 hPa 0,0 l/m 5,8 km/h (2 Bft) S-SO 153 0 min 0,000 mm 0,0 UV-I 0 W/m 14,1 C 17,6 C 6,4 km/h (2 Bft) 98,00 %
19.09.2018 20:36 17,8 C 22,8 C 16,1 C 78 % 1019,9 hPa 0,0 l/m 6,0 km/h (2 Bft) S-SO 153 0 min 0,000 mm 0,0 UV-I 0 W/m 13,9 C 17,8 C 6,4 km/h (2 Bft) 100,00 %
19.09.2018 20:38 17,9 C 22,8 C 16,1 C 78 % 1019,8 hPa 0,0 l/m 5,6 km/h (1 Bft) S-SO 152 0 min 0,000 mm 0,0 UV-I 0 W/m 14,0 C 17,9 C 6,4 km/h (2 Bft) 98,00 %
19.09.2018 20:40 17,8 C 22,8 C 16,1 C 78 % 1019,8 hPa 0,0 l/m 5,8 km/h (2 Bft) S-SO 150 0 min 0,000 mm 0,0 UV-I 0 W/m 13,9 C 17,8 C 6,4 km/h (2 Bft) 100,00 %
19.09.2018 20:42 17,7 C 22,8 C 16,1 C 78 % 1019,8 hPa 0,0 l/m 5,9 km/h (2 Bft) S-SO 150 0 min 0,000 mm 0,0 UV-I 0 W/m 13,8 C 17,7 C 6,4 km/h (2 Bft) 97,87 %
19.09.2018 20:44 17,8 C 22,8 C 16,1 C 78 % 1019,9 hPa 0,0 l/m 5,2 km/h (1 Bft) S-SO 150 0 min 0,000 mm 0,0 UV-I 0 W/m 13,9 C 17,8 C 6,4 km/h (2 Bft) 100,00 %
19.09.2018 20:46 17,8 C 22,8 C 16,1 C 78 % 1019,9 hPa 0,0 l/m 3,8 km/h (1 Bft) S-SO 150 0 min 0,000 mm 0,0 UV-I 0 W/m 13,9 C 17,8 C 4,8 km/h (1 Bft) 100,00 %
19.09.2018 20:48 17,8 C 22,8 C 16,1 C 78 % 1019,9 hPa 0,0 l/m 2,9 km/h (1 Bft) S-SO 150 0 min 0,000 mm 0,0 UV-I 0 W/m 13,9 C 17,8 C 4,8 km/h (1 Bft) 100,00 %
19.09.2018 20:50 17,8 C 22,8 C 16,1 C 78 % 1019,9 hPa 0,0 l/m 3,8 km/h (1 Bft) S-SO 150 0 min 0,000 mm 0,0 UV-I 0 W/m 13,9 C 17,8 C 4,8 km/h (1 Bft) 97,87 %
19.09.2018 20:52 17,9 C 22,8 C 16,1 C 78 % 1020,0 hPa 0,0 l/m 3,3 km/h (1 Bft) S-SO 150 0 min 0,000 mm 0,0 UV-I 0 W/m 14,0 C 17,9 C 4,8 km/h (1 Bft) 100,00 %
19.09.2018 20:54 17,8 C 22,8 C 16,1 C 78 % 1019,9 hPa 0,0 l/m 2,9 km/h (1 Bft) S-SO 150 0 min 0,000 mm 0,0 UV-I 0 W/m 13,9 C 17,8 C 3,2 km/h (1 Bft) 94,00 %
19.09.2018 20:56 17,8 C 22,8 C 16,1 C 78 % 1019,9 hPa 0,0 l/m 3,2 km/h (1 Bft) S-SO 150 0 min 0,000 mm 0,0 UV-I 0 W/m 13,9 C 17,8 C 4,8 km/h (1 Bft) 100,00 %
19.09.2018 20:58 17,8 C 22,8 C 16,1 C 79 % 1020,0 hPa 0,0 l/m 2,0 km/h (1 Bft) S-SO 150 0 min 0,000 mm 0,0 UV-I 0 W/m 14,1 C 17,8 C 3,2 km/h (1 Bft) 97,56 %
19.09.2018 21:00 17,7 C 22,8 C 16,1 C 79 % 1020,0 hPa 0,0 l/m 1,6 km/h (1 Bft) S-SO 150 0 min 0,000 mm 0,0 UV-I 0 W/m 14,0 C 17,7 C 3,2 km/h (1 Bft) 98,00 %
19.09.2018 21:02 17,6 C 22,8 C 16,1 C 80 % 1019,9 hPa 0,0 l/m 1,5 km/h (1 Bft) S-SO 150 0 min 0,025 mm 0,0 UV-I 0 W/m 14,1 C 17,6 C 1,6 km/h (1 Bft) 100,00 %
19.09.2018 21:04 17,4 C 22,8 C 16,1 C 80 % 1020,0 hPa 0,0 l/m 0,6 km/h (0 Bft) S-SO 150 0 min 0,000 mm 0,0 UV-I 0 W/m 13,9 C 17,4 C 1,6 km/h (1 Bft) 100,00 %
19.09.2018 21:06 17,3 C 22,8 C 15,6 C 81 % 1020,0 hPa 0,0 l/m 0,0 km/h (0 Bft) S-SO 150 0 min 0,000 mm 0,0 UV-I 0 W/m 14,0 C 17,3 C 0,0 km/h (0 Bft) 100,00 %
19.09.2018 21:08 17,3 C 22,8 C 15,6 C 81 % 1020,0 hPa 0,0 l/m 1,8 km/h (1 Bft) S-SO 150 0 min 0,000 mm 0,0 UV-I 0 W/m 14,0 C 17,3 C 3,2 km/h (1 Bft) 100,00 %
19.09.2018 21:10 17,3 C 22,8 C 15,6 C 81 % 1020,0 hPa 0,0 l/m 3,3 km/h (1 Bft) S-SO 150 0 min 0,000 mm 0,0 UV-I 0 W/m 14,0 C 17,3 C 4,8 km/h (1 Bft) 100,00 %
19.09.2018 21:12 17,2 C 22,8 C 15,6 C 81 % 1020,0 hPa 0,0 l/m 4,2 km/h (1 Bft) S-SO 153 0 min 0,000 mm 0,0 UV-I 0 W/m 13,9 C 17,2 C 4,8 km/h (1 Bft) 100,00 %
19.09.2018 21:14 17,1 C 22,8 C 15,6 C 81 % 1020,0 hPa 0,0 l/m 4,5 km/h (1 Bft) S 178 0 min 0,000 mm 0,0 UV-I 0 W/m 13,8 C 17,1 C 6,4 km/h (2 Bft) 100,00 %
19.09.2018 21:16 17,1 C 22,8 C 15,6 C 81 % 1020,0 hPa 0,0 l/m 4,2 km/h (1 Bft) S 178 0 min 0,000 mm 0,0 UV-I 0 W/m 13,8 C 17,1 C 4,8 km/h (1 Bft) 100,00 %
19.09.2018 21:18 16,8 C 22,8 C 15,6 C 82 % 1019,9 hPa 0,0 l/m 4,9 km/h (1 Bft) S-SO 155 0 min 0,000 mm 0,0 UV-I 0 W/m 13,7 C 16,8 C 6,4 km/h (2 Bft) 100,00 %
19.09.2018 21:20 16,7 C 22,8 C 15,6 C 82 % 1019,9 hPa 0,0 l/m 4,4 km/h (1 Bft) S-SO 155 0 min 0,000 mm 0,0 UV-I 0 W/m 13,6 C 16,7 C 6,4 km/h (2 Bft) 100,00 %
19.09.2018 21:22 16,7 C 22,8 C 15,0 C 83 % 1020,0 hPa 0,0 l/m 3,4 km/h (1 Bft) S-SO 155 0 min 0,000 mm 0,0 UV-I 0 W/m 13,8 C 16,7 C 4,8 km/h (1 Bft) 100,00 %
19.09.2018 21:24 16,9 C 22,8 C 15,0 C 82 % 1020,0 hPa 0,0 l/m 1,7 km/h (1 Bft) S-SO 155 0 min 0,000 mm 0,0 UV-I 0 W/m 13,8 C 16,9 C 3,2 km/h (1 Bft) 100,00 %
19.09.2018 21:26 17,1 C 22,8 C 15,0 C 82 % 1020,0 hPa 0,0 l/m 2,6 km/h (1 Bft) S-SO 155 0 min 0,000 mm 0,0 UV-I 0 W/m 14,0 C 17,1 C 3,2 km/h (1 Bft) 100,00 %
19.09.2018 21:28 17,1 C 22,8 C 15,0 C 82 % 1020,0 hPa 0,0 l/m 2,4 km/h (1 Bft) S-SO 155 0 min 0,000 mm 0,0 UV-I 0 W/m 14,0 C 17,1 C 4,8 km/h (1 Bft) 100,00 %
19.09.2018 21:30 17,0 C 22,8 C 15,6 C 82 % 1020,0 hPa 0,0 l/m 2,9 km/h (1 Bft) S-SO 155 0 min 0,000 mm 0,0 UV-I 0 W/m 13,9 C 17,0 C 3,2 km/h (1 Bft) 97,37 %
19.09.2018 21:32 16,9 C 22,2 C 15,6 C 82 % 1020,0 hPa 0,0 l/m 2,2 km/h (1 Bft) S-SO 155 0 min 0,000 mm 0,0 UV-I 0 W/m 13,8 C 16,9 C 3,2 km/h (1 Bft) 100,00 %
19.09.2018 21:34 16,8 C 22,2 C 15,0 C 82 % 1019,9 hPa 0,0 l/m 2,7 km/h (1 Bft) S-SO 155 0 min 0,000 mm 0,0 UV-I 0 W/m 13,7 C 16,8 C 3,2 km/h (1 Bft) 97,87 %
19.09.2018 21:36 16,8 C 22,2 C 15,0 C 83 % 1019,9 hPa 0,0 l/m 2,4 km/h (1 Bft) S-SO 155 0 min 0,000 mm 0,0 UV-I 0 W/m 13,9 C 16,8 C 3,2 km/h (1 Bft) 100,00 %
19.09.2018 21:38 16,8 C 22,2 C 15,0 C 82 % 1020,0 hPa 0,0 l/m 3,1 km/h (1 Bft) S 176 0 min 0,000 mm 0,0 UV-I 0 W/m 13,7 C 16,8 C 4,8 km/h (1 Bft) 95,74 %
19.09.2018 21:40 16,8 C 22,2 C 15,0 C 83 % 1020,0 hPa 0,0 l/m 3,4 km/h (1 Bft) S-SW 207 0 min 0,000 mm 0,0 UV-I 0 W/m 13,9 C 16,8 C 4,8 km/h (1 Bft) 94,00 %
19.09.2018 21:42 16,7 C 22,8 C 15,0 C 83 % 1020,0 hPa 0,0 l/m 3,5 km/h (1 Bft) S-SW 209 0 min 0,000 mm 0,0 UV-I 0 W/m 13,8 C 16,7 C 4,8 km/h (1 Bft) 97,37 %
19.09.2018 21:44 16,6 C 22,2 C 15,0 C 83 % 1020,1 hPa 0,0 l/m 4,1 km/h (1 Bft) S-SW 209 0 min 0,000 mm 0,0 UV-I 0 W/m 13,7 C 16,6 C 6,4 km/h (2 Bft) 97,87 %
19.09.2018 21:46 16,5 C 22,2 C 15,0 C 84 % 1020,0 hPa 0,0 l/m 4,2 km/h (1 Bft) S-SW 209 0 min 0,000 mm 0,0 UV-I 0 W/m 13,8 C 16,5 C 4,8 km/h (1 Bft) 95,74 %
19.09.2018 21:48 16,5 C 22,2 C 15,0 C 84 % 1020,0 hPa 0,0 l/m 3,7 km/h (1 Bft) S-SW 209 0 min 0,000 mm 0,0 UV-I 0 W/m 13,8 C 16,5 C 4,8 km/h (1 Bft) 97,87 %
19.09.2018 21:50 16,6 C 22,2 C 15,0 C 84 % 1020,0 hPa 0,0 l/m 3,3 km/h (1 Bft) S-SW 209 0 min 0,000 mm 0,0 UV-I 0 W/m 13,9 C 16,6 C 4,8 km/h (1 Bft) 98,00 %
19.09.2018 21:52 16,7 C 22,2 C 15,0 C 84 % 1020,0 hPa 0,0 l/m 2,5 km/h (1 Bft) S-SW 209 0 min 0,000 mm 0,0 UV-I 0 W/m 14,0 C 16,7 C 3,2 km/h (1 Bft) 95,74 %
19.09.2018 21:54 16,8 C 22,2 C 14,4 C 83 % 1020,0 hPa 0,0 l/m 1,9 km/h (1 Bft) S-SW 209 0 min 0,000 mm 0,0 UV-I 0 W/m 13,9 C 16,8 C 3,2 km/h (1 Bft) 95,12 %
19.09.2018 21:56 16,9 C 22,2 C 14,4 C 83 % 1020,0 hPa 0,0 l/m 2,5 km/h (1 Bft) S-SW 209 0 min 0,000 mm 0,0 UV-I 0 W/m 14,0 C 16,9 C 3,2 km/h (1 Bft) 96,00 %
19.09.2018 21:58 17,0 C 22,2 C 14,4 C 82 % 1020,0 hPa 0,0 l/m 3,3 km/h (1 Bft) S-SW 209 0 min 0,000 mm 0,0 UV-I 0 W/m 13,9 C 17,0 C 4,8 km/h (1 Bft) 96,23 %
19.09.2018 22:00 16,9 C 22,2 C 13,9 C 82 % 1020,0 hPa 0,0 l/m 3,6 km/h (1 Bft) S-SW 209 0 min 0,000 mm 0,0 UV-I 0 W/m 13,8 C 16,9 C 4,8 km/h (1 Bft) 97,44 %
19.09.2018 22:02 16,9 C 22,2 C 14,4 C 82 % 1020,0 hPa 0,0 l/m 4,1 km/h (1 Bft) S-SW 209 0 min 0,000 mm 0,0 UV-I 0 W/m 13,8 C 16,9 C 4,8 km/h (1 Bft) 97,87 %
19.09.2018 22:04 16,8 C 22,2 C 14,4 C 82 % 1020,0 hPa 0,0 l/m 3,0 km/h (1 Bft) S-SW 209 0 min 0,000 mm 0,0 UV-I 0 W/m 13,7 C 16,8 C 4,8 km/h (1 Bft) 97,87 %
19.09.2018 22:06 16,7 C 22,2 C 14,4 C 82 % 1020,0 hPa 0,0 l/m 2,3 km/h (1 Bft) S-SW 209 0 min 0,000 mm 0,0 UV-I 0 W/m 13,6 C 16,7 C 3,2 km/h (1 Bft) 96,23 %
19.09.2018 22:08 16,6 C 22,2 C 14,4 C 83 % 1020,0 hPa 0,0 l/m 1,6 km/h (1 Bft) S-SW 209 0 min 0,000 mm 0,0 UV-I 0 W/m 13,7 C 16,6 C 3,2 km/h (1 Bft) 98,00 %
19.09.2018 22:10 16,6 C 22,2 C 14,4 C 84 % 1020,0 hPa 0,0 l/m 3,6 km/h (1 Bft) S-SW 209 0 min 0,000 mm 0,0 UV-I 0 W/m 13,9 C 16,6 C 6,4 km/h (2 Bft) 94,74 %
19.09.2018 22:12 16,5 C 22,2 C 14,4 C 84 % 1020,0 hPa 0,0 l/m 4,6 km/h (1 Bft) S-SW 211 0 min 0,000 mm 0,0 UV-I 0 W/m 13,8 C 16,5 C 6,4 km/h (2 Bft) 98,11 %
19.09.2018 22:14 16,7 C 22,2 C 14,4 C 84 % 1020,1 hPa 0,0 l/m 3,5 km/h (1 Bft) SW 217 0 min 0,000 mm 0,0 UV-I 0 W/m 14,0 C 16,7 C 6,4 km/h (2 Bft) 95,12 %
19.09.2018 22:16 16,8 C 22,2 C 13,9 C 84 % 1020,0 hPa 0,0 l/m 4,7 km/h (1 Bft) SW 217 0 min 0,000 mm 0,0 UV-I 0 W/m 14,1 C 16,8 C 6,4 km/h (2 Bft) 97,87 %
19.09.2018 22:18 16,8 C 22,2 C 14,4 C 83 % 1020,0 hPa 0,0 l/m 5,3 km/h (1 Bft) S-SW 213 0 min 0,000 mm 0,0 UV-I 0 W/m 13,9 C 16,8 C 6,4 km/h (2 Bft) 98,00 %
19.09.2018 22:20 16,8 C 22,2 C 14,4 C 83 % 1020,1 hPa 0,0 l/m 4,7 km/h (1 Bft) S-SW 202 0 min 0,000 mm 0,0 UV-I 0 W/m 13,9 C 16,8 C 6,4 km/h (2 Bft) 92,68 %
19.09.2018 22:22 16,7 C 22,2 C 14,4 C 83 % 1020,1 hPa 0,0 l/m 5,3 km/h (1 Bft) S-SW 205 0 min 0,000 mm 0,0 UV-I 0 W/m 13,8 C 16,7 C 6,4 km/h (2 Bft) 98,00 %
19.09.2018 22:24 16,7 C 22,2 C 15,0 C 83 % 1020,1 hPa 0,0 l/m 3,8 km/h (1 Bft) S-SW 210 0 min 0,000 mm 0,0 UV-I 0 W/m 13,8 C 16,7 C 4,8 km/h (1 Bft) 93,62 %
19.09.2018 22:26 16,7 C 22,2 C 15,0 C 84 % 1020,1 hPa 0,0 l/m 3,7 km/h (1 Bft) S-SW 210 0 min 0,000 mm 0,0 UV-I 0 W/m 14,0 C 16,7 C 4,8 km/h (1 Bft) 96,00 %
19.09.2018 22:28 16,7 C 22,2 C 14,4 C 84 % 1020,1 hPa 0,0 l/m 4,4 km/h (1 Bft) SW 219 0 min 0,000 mm 0,0 UV-I 0 W/m 14,0 C 16,7 C 6,4 km/h (2 Bft) 97,87 %
19.09.2018 22:30 16,7 C 22,2 C 14,4 C 84 % 1020,1 hPa 0,0 l/m 4,0 km/h (1 Bft) SW 220 0 min 0,000 mm 0,0 UV-I 0 W/m 14,0 C 16,7 C 4,8 km/h (1 Bft) 100,00 %
19.09.2018 22:32 16,7 C 22,2 C 14,4 C 84 % 1020,1 hPa 0,0 l/m 3,4 km/h (1 Bft) SW 220 0 min 0,000 mm 0,0 UV-I 0 W/m 14,0 C 16,7 C 4,8 km/h (1 Bft) 97,87 %
19.09.2018 22:34 16,6 C 22,2 C 14,4 C 84 % 1020,1 hPa 0,0 l/m 4,8 km/h (1 Bft) SW 219 0 min 0,000 mm 0,0 UV-I 0 W/m 13,9 C 16,6 C 6,4 km/h (2 Bft) 98,00 %
19.09.2018 22:36 16,4 C 22,2 C 14,4 C 84 % 1020,1 hPa 0,0 l/m 4,4 km/h (1 Bft) SW 219 0 min 0,000 mm 0,0 UV-I 0 W/m 13,7 C 16,4 C 6,4 km/h (2 Bft) 97,87 %
19.09.2018 22:38 16,3 C 22,2 C 14,4 C 85 % 1020,1 hPa 0,0 l/m 3,1 km/h (1 Bft) SW 219 0 min 0,000 mm 0,0 UV-I 0 W/m 13,8 C 16,3 C 4,8 km/h (1 Bft) 97,44 %
19.09.2018 22:40 16,3 C 22,2 C 14,4 C 85 % 1020,1 hPa 0,0 l/m 3,1 km/h (1 Bft) SW 219 0 min 0,000 mm 0,0 UV-I 0 W/m 13,8 C 16,3 C 4,8 km/h (1 Bft) 98,00 %
19.09.2018 22:42 16,3 C 22,2 C 14,4 C 85 % 1020,1 hPa 0,0 l/m 3,8 km/h (1 Bft) SW 219 0 min 0,000 mm 0,0 UV-I 0 W/m 13,8 C 16,3 C 4,8 km/h (1 Bft) 98,08 %
19.09.2018 22:44 16,3 C 22,2 C 14,4 C 85 % 1020,1 hPa 0,0 l/m 4,0 km/h (1 Bft) SW 219 0 min 0,000 mm 0,0 UV-I 0 W/m 13,8 C 16,3 C 6,4 km/h (2 Bft) 97,44 %
19.09.2018 22:46 16,3 C 22,2 C 13,9 C 85 % 1020,1 hPa 0,0 l/m 4,1 km/h (1 Bft) SW 223 0 min 0,000 mm 0,0 UV-I 0 W/m 13,8 C 16,3 C 4,8 km/h (1 Bft) 97,87 %
19.09.2018 22:48 16,4 C 22,2 C 13,9 C 85 % 1020,1 hPa 0,0 l/m 3,8 km/h (1 Bft) SW 225 0 min 0,000 mm 0,0 UV-I 0 W/m 13,9 C 16,4 C 6,4 km/h (2 Bft) 96,00 %
19.09.2018 22:50 16,4 C 22,2 C 13,9 C 85 % 1020,1 hPa 0,0 l/m 4,2 km/h (1 Bft) SW 223 0 min 0,000 mm 0,0 UV-I 0 W/m 13,9 C 16,4 C 6,4 km/h (2 Bft) 97,87 %
19.09.2018 22:52 16,3 C 22,2 C 13,9 C 85 % 1020,1 hPa 0,0 l/m 4,4 km/h (1 Bft) SW 223 0 min 0,000 mm 0,0 UV-I 0 W/m 13,8 C 16,3 C 6,4 km/h (2 Bft) 98,00 %
19.09.2018 22:54 16,3 C 22,2 C 14,4 C 85 % 1020,1 hPa 0,0 l/m 5,0 km/h (1 Bft) S-SW 208 0 min 0,000 mm 0,0 UV-I 0 W/m 13,8 C 16,3 C 6,4 km/h (2 Bft) 97,73 %
19.09.2018 22:56 16,3 C 22,2 C 14,4 C 85 % 1020,1 hPa 0,0 l/m 5,2 km/h (1 Bft) S-SW 213 0 min 0,000 mm 0,0 UV-I 0 W/m 13,8 C 16,3 C 8,0 km/h (2 Bft) 96,00 %
19.09.2018 22:59 16,3 C 22,2 C 14,4 C 85 % 1020,1 hPa 0,0 l/m 4,9 km/h (1 Bft) S-SW 201 0 min 0,000 mm 0,0 UV-I 0 W/m 13,8 C 16,3 C 8,0 km/h (2 Bft) 97,14 %
19.09.2018 23:00 16,3 C 22,2 C 14,4 C 86 % 1020,1 hPa 0,0 l/m 6,4 km/h (2 Bft) S-SW 203 0 min 0,000 mm 0,0 UV-I 0 W/m 14,0 C 16,3 C 8,0 km/h (2 Bft) 95,83 %
19.09.2018 23:02 16,3 C 22,2 C 15,0 C 86 % 1020,1 hPa 0,0 l/m 6,6 km/h (2 Bft) S-SW 197 0 min 0,026 mm 0,0 UV-I 0 W/m 14,0 C 16,2 C 11,3 km/h (2 Bft) 94,29 %
19.09.2018 23:04 16,4 C 22,2 C 15,0 C 86 % 1020,0 hPa 0,0 l/m 6,4 km/h (2 Bft) S 189 0 min 0,000 mm 0,0 UV-I 0 W/m 14,1 C 16,4 C 11,3 km/h (2 Bft) 94,00 %
19.09.2018 23:06 16,6 C 22,2 C 15,0 C 86 % 1020,0 hPa 0,0 l/m 5,9 km/h (2 Bft) S 185 0 min 0,000 mm 0,0 UV-I 0 W/m 14,2 C 16,6 C 8,0 km/h (2 Bft) 94,00 %
19.09.2018 23:08 16,6 C 22,2 C 15,0 C 85 % 1020,0 hPa 0,0 l/m 4,4 km/h (1 Bft) S-SW 196 0 min 0,000 mm 0,0 UV-I 0 W/m 14,1 C 16,6 C 6,4 km/h (2 Bft) 95,45 %
19.09.2018 23:10 16,6 C 22,2 C 15,0 C 85 % 1020,1 hPa 0,0 l/m 5,4 km/h (1 Bft) S-SW 199 0 min 0,000 mm 0,0 UV-I 0 W/m 14,1 C 16,6 C 8,0 km/h (2 Bft) 97,56 %
19.09.2018 23:12 16,6 C 22,2 C 15,0 C 85 % 1020,0 hPa 0,0 l/m 5,1 km/h (1 Bft) S-SW 198 0 min 0,000 mm 0,0 UV-I 0 W/m 14,1 C 16,6 C 6,4 km/h (2 Bft) 93,33 %
19.09.2018 23:14 16,6 C 22,2 C 15,0 C 85 % 1020,0 hPa 0,0 l/m 4,4 km/h (1 Bft) S-SW 203 0 min 0,000 mm 0,0 UV-I 0 W/m 14,1 C 16,6 C 6,4 km/h (2 Bft) 89,47 %
19.09.2018 23:16 16,6 C 22,2 C 15,0 C 85 % 1020,0 hPa 0,0 l/m 5,1 km/h (1 Bft) S-SW 213 0 min 0,000 mm 0,0 UV-I 0 W/m 14,1 C 16,6 C 8,0 km/h (2 Bft) 94,00 %
19.09.2018 23:18 16,6 C 22,2 C 15,0 C 85 % 1020,1 hPa 0,0 l/m 5,0 km/h (1 Bft) S-SW 211 0 min 0,000 mm 0,0 UV-I 0 W/m 14,1 C 16,6 C 9,7 km/h (2 Bft) 95,24 %
19.09.2018 23:20 16,6 C 22,2 C 15,0 C 85 % 1020,0 hPa 0,0 l/m 5,9 km/h (2 Bft) S-SW 194 0 min 0,000 mm 0,0 UV-I 0 W/m 14,1 C 16,6 C 9,7 km/h (2 Bft) 98,00 %
19.09.2018 23:22 16,6 C 22,2 C 15,0 C 85 % 1020,1 hPa 0,0 l/m 5,6 km/h (1 Bft) SW 214 0 min 0,000 mm 0,0 UV-I 0 W/m 14,1 C 16,6 C 8,0 km/h (2 Bft) 94,00 %
19.09.2018 23:24 16,6 C 22,2 C 15,0 C 85 % 1020,1 hPa 0,0 l/m 5,2 km/h (1 Bft) S-SW 211 0 min 0,000 mm 0,0 UV-I 0 W/m 14,1 C 16,6 C 6,4 km/h (2 Bft) 97,56 %
19.09.2018 23:26 16,5 C 22,2 C 15,0 C 86 % 1020,1 hPa 0,0 l/m 5,1 km/h (1 Bft) S-SW 209 0 min 0,000 mm 0,0 UV-I 0 W/m 14,1 C 16,5 C 6,4 km/h (2 Bft) 98,11 %
19.09.2018 23:29 16,4 C 22,2 C 15,0 C 86 % 1020,1 hPa 0,0 l/m 5,6 km/h (1 Bft) SW 217 0 min 0,000 mm 0,0 UV-I 0 W/m 14,1 C 16,4 C 8,0 km/h (2 Bft) 97,26 %
19.09.2018 23:30 16,4 C 22,2 C 15,0 C 86 % 1020,1 hPa 0,0 l/m 6,4 km/h (2 Bft) SW 220 0 min 0,000 mm 0,0 UV-I 0 W/m 14,1 C 16,4 C 8,0 km/h (2 Bft) 94,44 %
19.09.2018 23:32 16,3 C 22,2 C 14,4 C 86 % 1020,1 hPa 0,0 l/m 5,6 km/h (1 Bft) SW 227 0 min 0,000 mm 0,0 UV-I 0 W/m 14,0 C 16,3 C 8,0 km/h (2 Bft) 97,56 %
19.09.2018 23:34 16,3 C 22,2 C 14,4 C 86 % 1020,1 hPa 0,0 l/m 5,2 km/h (1 Bft) SW 221 0 min 0,000 mm 0,0 UV-I 0 W/m 14,0 C 16,3 C 8,0 km/h (2 Bft) 97,87 %
19.09.2018 23:36 16,2 C 22,2 C 14,4 C 87 % 1020,1 hPa 0,0 l/m 4,0 km/h (1 Bft) SW 221 0 min 0,000 mm 0,0 UV-I 0 W/m 14,0 C 16,2 C 4,8 km/h (1 Bft) 100,00 %
19.09.2018 23:39 16,1 C 22,2 C 13,9 C 87 % 1020,1 hPa 0,0 l/m 4,0 km/h (1 Bft) SW 221 0 min 0,000 mm 0,0 UV-I 0 W/m 13,9 C 16,1 C 6,4 km/h (2 Bft) 100,00 %
19.09.2018 23:40 16,1 C 22,2 C 13,9 C 87 % 1020,1 hPa 0,0 l/m 4,1 km/h (1 Bft) S-SW 198 0 min 0,000 mm 0,0 UV-I 0 W/m 13,9 C 16,1 C 6,4 km/h (2 Bft) 100,00 %
19.09.2018 23:42 15,9 C 22,2 C 14,4 C 87 % 1020,1 hPa 0,0 l/m 4,4 km/h (1 Bft) S-SW 200 0 min 0,000 mm 0,0 UV-I 0 W/m 13,7 C 15,9 C 6,4 km/h (2 Bft) 100,00 %
19.09.2018 23:44 15,8 C 22,2 C 14,4 C 88 % 1020,1 hPa 0,0 l/m 5,2 km/h (1 Bft) S-SW 193 0 min 0,000 mm 0,0 UV-I 0 W/m 13,8 C 15,8 C 6,4 km/h (2 Bft) 100,00 %
19.09.2018 23:46 15,8 C 22,2 C 14,4 C 88 % 1020,1 hPa 0,0 l/m 4,0 km/h (1 Bft) S-SW 194 0 min 0,000 mm 0,0 UV-I 0 W/m 13,8 C 15,8 C 6,4 km/h (2 Bft) 100,00 %
19.09.2018 23:49 15,9 C 22,2 C 14,4 C 88 % 1020,1 hPa 0,0 l/m 4,9 km/h (1 Bft) S-SW 211 0 min 0,000 mm 0,0 UV-I 0 W/m 13,9 C 15,9 C 8,0 km/h (2 Bft) 98,70 %
19.09.2018 23:50 15,9 C 22,2 C 14,4 C 88 % 1020,1 hPa 0,0 l/m 5,8 km/h (2 Bft) SW 215 0 min 0,000 mm 0,0 UV-I 0 W/m 13,9 C 15,9 C 6,4 km/h (2 Bft) 100,00 %
19.09.2018 23:52 16,0 C 22,2 C 14,4 C 88 % 1020,1 hPa 0,0 l/m 3,9 km/h (1 Bft) SW 215 0 min 0,000 mm 0,0 UV-I 0 W/m 14,0 C 16,0 C 4,8 km/h (1 Bft) 100,00 %
19.09.2018 23:54 16,1 C 22,2 C 14,4 C 88 % 1020,2 hPa 0,0 l/m 3,6 km/h (1 Bft) SW 215 0 min 0,000 mm 0,0 UV-I 0 W/m 14,1 C 16,1 C 4,8 km/h (1 Bft) 100,00 %
19.09.2018 23:56 16,1 C 22,2 C 14,4 C 88 % 1020,1 hPa 0,0 l/m 2,7 km/h (1 Bft) S-SW 208 0 min 0,000 mm 0,0 UV-I 0 W/m 14,1 C 16,1 C 4,8 km/h (1 Bft) 98,00 %
19.09.2018 23:59 16,1 C 22,2 C 13,9 C 88 % 1020,2 hPa 0,0 l/m 2,4 km/h (1 Bft) S-SW 208 0 min 0,000 mm 0,0 UV-I 0 W/m 14,1 C 16,1 C 4,8 km/h (1 Bft) 98,65 %
_ Min-Zeit 06:22 06:40 22:00 16:10 01:30 - 10:54 - - - - - - 16:16 00:54 10:56 00:02
Minimum _ 15,6 C 21,7 C 13,9 C 51 % 1017,4 hPa - 0,0 km/h (0 Bft) - - - - - - 13,6 C 11,6 C 0,0 km/h (0 Bft) 13,33 %
_ Max-Zeit 16:24 00:00 12:50 06:02 11:00 01:38 00:00 - - 14:49 14:00 12:46 12:48 13:04 16:24 00:22 01:00
Maximum _ 24,8 C 22,8 C 35,0 C 94 % 1020,7 hPa 0,2 l/m 31,6 km/h
W-SW (5 Bft)
- - 3 min 0,406 mm 3,6 UV-I 834 W/m 17,6 C 24,8 C 41,8 km/h
W-SW (6 Bft)
100,00 %
Durchschnitt _ 18,8 C 22,3 C 19,5 C 80 % 1019,4 hPa #0,2 l/m 5,4 km/h (1 Bft) W-SW - #6:10 h #2,261 mm 1,6 UV-I 252 W/m 14,9 C 18,3 C 8,7 km/h (2 Bft) 97,39 %